[[{"header":{"parameterUnit":"m.s-1","parameterCategory":1,"la1":30.6,"la2":29.2853,"lo1":-89.7004,"lo2":-87.6739,"dy":0.0162,"dx":0.0183,"nx":112,"ny":82,"refTime":"2026-03-06T12:00:00:Z","depth":0,"parameterNumber":2,"parameterNumberName":"U-component_of_WINDS"},"data":[0.0,0.0,0.0,0.0,0.0,0.0,0.0,0.0,0.0,0.0,0.0,0.0,0.0,0.0,0.0,0.0,0.0,0.0,0.0,0.0,0.0,0.0,0.0,0.0,0.0,0.0,0.0,0.0,0.0,0.0,0.0,0.0,0.0,0.0,0.0,0.0,0.0,0.0,0.0,0.0,0.0,0.0,0.0,0.0,0.0,0.0,0.0,0.0,0.0,0.0,0.0,0.0,0.0,0.0,0.0,0.0,0.0,0.0,0.0,0.0,0.0,0.0,0.0,0.0,0.0,0.0,0.0,0.0,0.0,0.0,0.0,0.0,0.0,0.0,0.0,0.0,0.0,0.0,0.0,0.0,0.0,0.0,0.0,0.0,0.0,0.0,0.0,0.0,0.0,0.0,-2.2484,-2.4629,-2.7296,-2.8304,-2.6776,-2.5719,-2.3763,-2.052,0.0,0.0,0.0,0.0,0.0,0.0,0.0,0.0,0.0,0.0,0.0,0.0,0.0,0.0,0.0,0.0,0.0,0.0,0.0,0.0,0.0,0.0,0.0,0.0,0.0,0.0,0.0,0.0,0.0,0.0,0.0,0.0,0.0,0.0,0.0,0.0,0.0,0.0,0.0,0.0,0.0,0.0,0.0,0.0,0.0,0.0,0.0,0.0,0.0,0.0,0.0,0.0,0.0,0.0,0.0,0.0,0.0,0.0,0.0,0.0,0.0,0.0,0.0,0.0,0.0,0.0,0.0,0.0,0.0,0.0,0.0,0.0,0.0,0.0,0.0,0.0,0.0,0.0,0.0,0.0,0.0,0.0,0.0,0.0,0.0,0.0,0.0,0.0,0.0,0.0,0.0,0.0,0.0,0.0,0.0,0.0,0.0,0.0,0.0,0.0,0.0,0.0,0.0,0.0,-2.1957,-2.565,-2.7016,-2.7342,-2.6509,-2.5216,-2.3255,-2.0489,0.0,0.0,0.0,0.0,0.0,0.0,0.0,0.0,0.0,0.0,0.0,0.0,0.0,0.0,0.0,0.0,0.0,0.0,0.0,0.0,0.0,0.0,0.0,0.0,0.0,0.0,0.0,0.0,0.0,0.0,0.0,0.0,0.0,0.0,0.0,0.0,0.0,0.0,0.0,0.0,0.0,0.0,0.0,0.0,0.0,0.0,0.0,0.0,0.0,0.0,0.0,0.0,0.0,0.0,0.0,0.0,0.0,0.0,0.0,0.0,0.0,0.0,0.0,0.0,0.0,0.0,0.0,0.0,0.0,0.0,0.0,0.0,0.0,0.0,0.0,0.0,0.0,0.0,0.0,0.0,0.0,0.0,0.0,0.0,0.0,0.0,0.0,0.0,0.0,0.0,0.0,0.0,0.0,0.0,0.0,0.0,0.0,0.0,0.0,0.0,0.0,0.0,0.0,-2.0703,-2.2902,-2.5481,-2.6749,-2.6965,-2.5903,-2.486,-2.3104,-2.0419,-1.8894,0.0,0.0,0.0,0.0,0.0,0.0,0.0,0.0,0.0,0.0,0.0,0.0,0.0,0.0,0.0,0.0,0.0,0.0,0.0,0.0,0.0,0.0,0.0,0.0,0.0,0.0,0.0,0.0,0.0,0.0,0.0,0.0,0.0,0.0,0.0,0.0,0.0,0.0,0.0,0.0,0.0,0.0,0.0,0.0,0.0,0.0,0.0,0.0,0.0,0.0,0.0,0.0,0.0,0.0,0.0,0.0,0.0,0.0,0.0,0.0,0.0,0.0,0.0,0.0,0.0,0.0,0.0,0.0,0.0,0.0,0.0,0.0,0.0,0.0,0.0,0.0,0.0,0.0,0.0,0.0,0.0,0.0,0.0,0.0,0.0,0.0,0.0,0.0,0.0,0.0,0.0,0.0,0.0,0.0,0.0,0.0,0.0,0.0,0.0,0.0,0.0,0.0,-2.2306,-2.3764,-2.5136,-2.6205,-2.6404,-2.5382,-2.43,-2.2664,-2.0296,-1.8506,0.0,0.0,0.0,0.0,0.0,0.0,0.0,0.0,0.0,0.0,0.0,0.0,0.0,0.0,0.0,0.0,0.0,0.0,0.0,0.0,0.0,0.0,0.0,0.0,0.0,0.0,0.0,0.0,0.0,0.0,0.0,0.0,0.0,0.0,0.0,0.0,0.0,0.0,0.0,0.0,0.0,0.0,0.0,0.0,0.0,0.0,0.0,0.0,0.0,0.0,0.0,0.0,0.0,0.0,0.0,0.0,0.0,0.0,0.0,0.0,0.0,0.0,0.0,0.0,0.0,0.0,0.0,0.0,0.0,0.0,0.0,0.0,0.0,0.0,0.0,0.0,0.0,0.0,0.0,0.0,0.0,0.0,0.0,0.0,0.0,0.0,0.0,0.0,0.0,0.0,0.0,0.0,0.0,0.0,0.0,0.0,0.0,0.0,0.0,0.0,0.0,0.0,-2.1843,-2.3594,-2.5044,-2.5185,-2.5179,-2.5197,-2.3341,-2.1542,-2.0096,-1.7577,0.0,0.0,0.0,0.0,0.0,0.0,0.0,0.0,0.0,0.0,0.0,0.0,0.0,0.0,0.0,0.0,0.0,0.0,0.0,0.0,0.0,0.0,0.0,0.0,0.0,0.0,0.0,0.0,0.0,0.0,0.0,0.0,0.0,0.0,0.0,0.0,0.0,0.0,0.0,0.0,0.0,0.0,0.0,0.0,0.0,0.0,0.0,0.0,0.0,0.0,0.0,0.0,0.0,0.0,0.0,0.0,0.0,0.0,0.0,0.0,0.0,0.0,0.0,0.0,0.0,0.0,0.0,0.0,0.0,0.0,0.0,0.0,0.0,0.0,0.0,0.0,0.0,0.0,0.0,0.0,0.0,0.0,0.0,0.0,0.0,0.0,0.0,0.0,0.0,0.0,0.0,0.0,0.0,0.0,0.0,0.0,0.0,0.0,0.0,0.0,0.0,0.0,-2.1147,-2.2915,0.0,-2.477,-2.4846,-2.4493,-2.3263,-2.1579,-1.9451,0.0,0.0,0.0,0.0,0.0,0.0,0.0,0.0,0.0,0.0,0.0,0.0,0.0,0.0,0.0,0.0,0.0,0.0,0.0,0.0,0.0,0.0,0.0,0.0,0.0,0.0,0.0,0.0,0.0,0.0,0.0,0.0,0.0,0.0,0.0,0.0,0.0,0.0,0.0,0.0,0.0,0.0,0.0,0.0,0.0,0.0,0.0,0.0,0.0,0.0,0.0,0.0,0.0,0.0,0.0,0.0,0.0,0.0,0.0,0.0,0.0,0.0,0.0,0.0,0.0,0.0,0.0,0.0,0.0,0.0,0.0,0.0,0.0,0.0,0.0,0.0,0.0,0.0,0.0,0.0,0.0,0.0,0.0,0.0,0.0,0.0,0.0,0.0,0.0,0.0,0.0,0.0,0.0,0.0,0.0,0.0,0.0,0.0,0.0,0.0,0.0,0.0,-1.8906,-2.0812,-2.243,0.0,-2.4312,-2.4381,-2.397,-2.2838,-2.1196,-1.8987,0.0,0.0,0.0,0.0,0.0,0.0,0.0,0.0,0.0,0.0,0.0,0.0,0.0,0.0,0.0,0.0,0.0,0.0,0.0,0.0,0.0,0.0,0.0,0.0,0.0,0.0,0.0,0.0,0.0,0.0,0.0,0.0,0.0,0.0,0.0,0.0,0.0,0.0,0.0,0.0,0.0,0.0,0.0,0.0,0.0,0.0,0.0,0.0,0.0,0.0,0.0,0.0,0.0,0.0,0.0,0.0,0.0,0.0,0.0,0.0,0.0,0.0,0.0,0.0,0.0,0.0,0.0,0.0,0.0,0.0,0.0,0.0,0.0,0.0,0.0,0.0,0.0,0.0,0.0,0.0,0.0,0.0,0.0,0.0,0.0,0.0,0.0,0.0,0.0,0.0,0.0,0.0,0.0,0.0,0.0,0.0,0.0,0.0,0.0,0.0,0.0,0.0,-1.9451,-2.0895,-2.2229,-2.3646,-2.3674,-2.3653,-2.3797,-2.1904,-2.012,0.0,0.0,0.0,0.0,0.0,0.0,0.0,0.0,0.0,0.0,0.0,0.0,0.0,0.0,0.0,0.0,0.0,0.0,0.0,0.0,0.0,0.0,0.0,0.0,0.0,0.0,0.0,0.0,0.0,0.0,0.0,0.0,0.0,0.0,0.0,0.0,0.0,0.0,0.0,0.0,0.0,0.0,0.0,0.0,0.0,0.0,0.0,0.0,0.0,0.0,0.0,0.0,0.0,0.0,0.0,0.0,0.0,0.0,0.0,0.0,0.0,0.0,0.0,0.0,0.0,0.0,0.0,0.0,0.0,0.0,0.0,0.0,0.0,0.0,0.0,0.0,0.0,0.0,0.0,0.0,0.0,0.0,0.0,0.0,0.0,0.0,0.0,0.0,0.0,0.0,0.0,0.0,0.0,0.0,0.0,0.0,0.0,0.0,0.0,0.0,0.0,0.0,0.0,-1.9321,-2.0876,-2.2209,-2.3518,-2.3616,-2.3616,-2.3674,-2.2269,-2.0438,-1.8147,0.0,0.0,0.0,0.0,0.0,0.0,0.0,0.0,0.0,0.0,0.0,0.0,0.0,0.0,0.0,0.0,0.0,0.0,0.0,0.0,0.0,0.0,0.0,0.0,0.0,0.0,0.0,0.0,0.0,0.0,0.0,0.0,0.0,0.0,0.0,0.0,0.0,0.0,0.0,0.0,0.0,0.0,0.0,0.0,0.0,0.0,0.0,0.0,0.0,0.0,0.0,0.0,0.0,0.0,0.0,0.0,0.0,0.0,0.0,0.0,0.0,0.0,0.0,0.0,0.0,0.0,0.0,0.0,0.0,0.0,0.0,0.0,0.0,0.0,0.0,0.0,0.0,0.0,0.0,0.0,0.0,0.0,0.0,0.0,0.0,0.0,0.0,0.0,0.0,0.0,0.0,0.0,0.0,0.0,0.0,0.0,0.0,0.0,0.0,0.0,0.0,0.0,-1.9288,-2.0857,-2.2188,-2.346,-2.3595,-2.3595,-2.3595,-2.2428,-2.0677,-1.8252,0.0,0.0,0.0,0.0,0.0,0.0,0.0,0.0,0.0,0.0,0.0,0.0,0.0,0.0,0.0,0.0,0.0,0.0,0.0,0.0,0.0,0.0,0.0,0.0,0.0,0.0,0.0,0.0,0.0,0.0,0.0,0.0,0.0,0.0,0.0,0.0,0.0,0.0,0.0,0.0,0.0,0.0,0.0,0.0,0.0,0.0,0.0,0.0,0.0,0.0,0.0,0.0,0.0,0.0,0.0,0.0,0.0,0.0,0.0,0.0,0.0,0.0,0.0,0.0,0.0,0.0,0.0,0.0,0.0,0.0,0.0,0.0,0.0,0.0,0.0,0.0,0.0,0.0,0.0,0.0,0.0,0.0,0.0,0.0,0.0,0.0,0.0,0.0,0.0,0.0,0.0,0.0,0.0,0.0,0.0,0.0,0.0,0.0,0.0,0.0,0.0,0.0,-1.9253,-2.0859,-2.2166,-2.3374,-2.345,-2.3428,-2.3443,-2.2268,-2.0722,-1.8772,0.0,0.0,0.0,0.0,0.0,0.0,0.0,0.0,0.0,0.0,0.0,0.0,0.0,0.0,0.0,0.0,0.0,0.0,0.0,0.0,0.0,0.0,0.0,0.0,0.0,0.0,0.0,0.0,0.0,0.0,0.0,0.0,0.0,0.0,0.0,0.0,0.0,0.0,0.0,0.0,0.0,0.0,0.0,0.0,0.0,0.0,0.0,0.0,0.0,0.0,0.0,0.0,0.0,0.0,0.0,0.0,0.0,0.0,0.0,0.0,-2.0795,0.0,0.0,0.0,0.0,0.0,0.0,0.0,0.0,0.0,0.0,0.0,0.0,0.0,0.0,0.0,0.0,0.0,0.0,0.0,0.0,0.0,0.0,0.0,0.0,0.0,0.0,0.0,0.0,0.0,0.0,0.0,0.0,0.0,0.0,0.0,0.0,0.0,0.0,0.0,0.0,0.0,-1.9113,-2.068,-2.1888,-2.2802,-2.2423,-2.2156,-2.2253,-2.1042,-1.9704,-1.8326,-1.5296,0.0,0.0,0.0,0.0,0.0,0.0,0.0,0.0,0.0,0.0,0.0,0.0,0.0,0.0,0.0,0.0,0.0,0.0,0.0,0.0,0.0,0.0,0.0,0.0,0.0,0.0,0.0,0.0,0.0,0.0,0.0,0.0,0.0,0.0,0.0,0.0,0.0,0.0,0.0,0.0,0.0,0.0,0.0,0.0,0.0,0.0,0.0,0.0,0.0,0.0,0.0,0.0,0.0,0.0,0.0,0.0,0.0,0.0,0.0,0.0,-2.2079,0.0,0.0,0.0,0.0,0.0,0.0,0.0,0.0,0.0,0.0,0.0,0.0,0.0,0.0,0.0,0.0,0.0,0.0,0.0,0.0,0.0,0.0,0.0,0.0,0.0,0.0,0.0,0.0,0.0,0.0,0.0,0.0,0.0,0.0,0.0,0.0,0.0,0.0,0.0,0.0,-1.8683,-2.0273,-2.1417,-2.2136,-2.1899,-2.1734,-2.1795,-2.0628,-1.9514,-1.8549,-1.579,0.0,0.0,0.0,0.0,0.0,0.0,0.0,0.0,0.0,0.0,0.0,0.0,0.0,0.0,0.0,0.0,0.0,0.0,0.0,0.0,0.0,0.0,0.0,0.0,0.0,0.0,0.0,0.0,0.0,0.0,0.0,0.0,0.0,0.0,0.0,0.0,0.0,0.0,0.0,0.0,0.0,0.0,0.0,0.0,0.0,0.0,0.0,0.0,0.0,0.0,0.0,0.0,0.0,-2.456,-2.5204,-2.5879,-2.5671,-2.5879,-2.6384,-2.5171,-2.4961,-2.5345,-2.3458,0.0,0.0,0.0,0.0,0.0,0.0,0.0,0.0,0.0,0.0,0.0,0.0,0.0,0.0,0.0,0.0,0.0,0.0,0.0,0.0,0.0,0.0,0.0,0.0,-1.9915,-1.9598,0.0,0.0,0.0,0.0,0.0,0.0,0.0,0.0,0.0,0.0,0.0,0.0,-1.8312,-1.9874,-2.0953,-2.1489,-2.1448,-2.1376,-2.14,-2.0288,-1.9369,-1.8838,-1.6361,-1.4781,0.0,0.0,0.0,0.0,0.0,0.0,0.0,0.0,0.0,0.0,0.0,0.0,0.0,0.0,0.0,0.0,0.0,0.0,0.0,0.0,0.0,0.0,0.0,0.0,0.0,0.0,0.0,0.0,0.0,0.0,0.0,0.0,-1.9056,-1.9568,0.0,0.0,0.0,0.0,0.0,0.0,0.0,0.0,0.0,0.0,0.0,0.0,0.0,-2.32,-2.4334,-2.5567,-2.625,-2.6378,-2.753,-2.8141,-2.8256,-2.8215,-2.8521,-2.9102,-2.8897,0.0,-2.6568,-2.5194,0.0,0.0,0.0,0.0,0.0,0.0,0.0,0.0,0.0,0.0,0.0,0.0,0.0,0.0,0.0,0.0,0.0,0.0,0.0,0.0,0.0,0.0,-2.167,-2.1704,-2.2138,-2.2326,0.0,-1.8997,-1.6743,-1.6287,-1.4985,0.0,0.0,0.0,0.0,0.0,0.0,0.0,-1.8528,-1.9817,-2.0692,-2.0906,-2.0396,-2.0105,-2.022,-1.9135,-1.8435,-1.8462,-1.6291,-1.5012,-1.5073,-1.2839,0.0,0.0,0.0,0.0,0.0,0.0,0.0,0.0,0.0,0.0,0.0,0.0,0.0,0.0,0.0,0.0,0.0,0.0,0.0,0.0,0.0,0.0,0.0,0.0,0.0,0.0,0.0,0.0,0.0,-1.8597,-2.0429,-2.0926,-2.095,-2.045,0.0,0.0,0.0,0.0,0.0,0.0,0.0,0.0,0.0,-2.4743,-2.5039,-2.5596,-2.6474,-2.7752,-2.8376,-2.839,-2.8942,-2.9392,-2.9769,-2.9377,-2.9552,-3.0161,-3.0161,-2.9697,-2.8881,-2.76,-2.6301,-2.4966,0.0,0.0,0.0,0.0,-2.2221,-2.2828,-2.3611,-2.3615,0.0,-2.3174,0.0,0.0,0.0,0.0,0.0,0.0,0.0,0.0,0.0,0.0,0.0,-2.2563,-2.2635,-2.2519,-2.2258,-2.0746,-1.9087,0.0,-1.7025,-1.5936,-1.4101,0.0,0.0,0.0,0.0,-1.7705,-1.8592,-1.9555,-2.0182,-2.022,-1.9978,-1.9711,-1.946,-1.868,-1.8089,-1.7844,-1.6573,-1.5737,-1.5493,-1.4208,-1.3065,0.0,0.0,0.0,0.0,0.0,0.0,0.0,0.0,0.0,0.0,0.0,0.0,0.0,0.0,0.0,0.0,0.0,0.0,0.0,0.0,0.0,0.0,0.0,0.0,0.0,0.0,0.0,0.0,-1.9797,-2.1621,-2.2019,-2.243,-2.2044,0.0,0.0,0.0,0.0,0.0,0.0,-2.3809,-2.4032,-2.494,-2.6721,-2.7258,-2.781,-2.8448,-2.9392,-2.9914,-3.0074,-3.0074,-3.0451,-3.1061,-3.0582,-3.0626,-3.1106,-3.1106,-3.1106,-3.0945,-2.9377,-2.7926,-2.6678,-2.5749,-2.4867,-2.4118,-2.4238,-2.4383,-2.4693,-2.6007,-2.6132,-2.5605,-2.5037,0.0,-2.2425,-2.012,0.0,0.0,0.0,0.0,-2.105,-2.2444,-2.2577,-2.2531,-2.318,-2.2916,-2.2493,-2.2493,-2.2083,-2.117,0.0,-1.8869,-1.8038,-1.5571,0.0,0.0,0.0,0.0,-1.806,-1.8695,-1.9395,-1.9798,-1.9798,-1.9685,-1.9421,-1.9033,-1.8506,-1.7965,-1.7436,-1.6974,-1.6484,-1.5932,-1.5399,-1.4393,-1.2856,0.0,0.0,0.0,0.0,0.0,0.0,0.0,0.0,0.0,0.0,0.0,0.0,0.0,0.0,0.0,0.0,0.0,0.0,0.0,0.0,0.0,0.0,0.0,0.0,0.0,0.0,0.0,0.0,0.0,-2.2503,-2.4149,0.0,0.0,0.0,0.0,-2.2765,-2.4457,-2.5847,-2.6547,-2.7157,-2.8058,-2.9363,-2.9436,-2.9784,-3.0452,-3.0525,-3.0829,-3.1393,-3.1393,-3.1741,-3.2394,-3.235,-3.235,-3.2394,-3.2394,-3.2394,-3.2222,-2.9711,-2.8971,-2.9218,-2.7403,-2.6966,-2.7227,-2.605,-2.5976,-2.6394,-2.5932,-2.5727,-2.5905,-2.705,-2.6167,-2.4349,-2.2696,-2.1694,0.0,0.0,-2.2178,-2.2581,-2.4243,-2.3859,-2.3201,-2.3809,-2.3502,-2.3058,-2.3058,-2.2631,-2.1898,0.0,-2.0029,-1.9417,-1.844,0.0,-1.7416,-1.7695,-1.7992,-1.8355,-1.892,-1.9459,-1.9798,-1.9798,-1.9334,-1.9033,-1.9008,-1.8506,-1.7965,-1.7436,-1.7373,-1.7087,-1.6475,-1.5944,-1.5135,-1.404,-1.2382,0.0,0.0,0.0,0.0,0.0,0.0,0.0,0.0,0.0,0.0,0.0,0.0,0.0,0.0,0.0,0.0,0.0,0.0,0.0,0.0,0.0,0.0,0.0,0.0,0.0,0.0,0.0,0.0,-2.4992,-2.6149,0.0,-2.4612,-2.5266,-2.5662,-2.5429,-2.6416,-2.749,-2.855,-2.8797,-2.932,-3.0205,-3.0626,-3.0929,-3.1177,-3.1613,-3.1946,-3.2133,-3.2133,-3.2249,-3.2481,-3.2481,-3.2481,-3.2481,-3.2481,-3.2481,-3.2423,-3.1526,-3.0785,-3.0161,-2.9522,-2.8555,-2.7547,-2.709,-2.6775,-2.6556,-2.6773,-2.6588,-2.6187,-2.595,-2.5149,-2.4103,-2.3131,-2.2941,-2.3082,-2.3349,-2.3653,-2.4036,-2.4625,-2.4499,-2.4148,-2.4042,-2.3841,-2.3559,-2.3183,-2.2945,-2.259,-2.1802,-2.0975,-2.0053,-1.8992,-1.89,-1.8755,-1.8166,-1.8729,-1.9309,-1.9497,-1.9685,-1.9798,-1.9798,-1.9635,-1.9246,-1.8531,-1.8619,-1.8168,-1.6911,-1.7197,-1.7124,-1.6525,-1.627,-1.5799,-1.501,-1.3654,-1.232,0.0,0.0,0.0,0.0,0.0,0.0,0.0,0.0,0.0,0.0,0.0,0.0,0.0,0.0,0.0,0.0,0.0,0.0,0.0,0.0,0.0,0.0,0.0,0.0,0.0,0.0,-2.5569,-2.649,-2.7635,-2.784,-2.6562,-2.7229,-2.7737,-2.7737,-2.8332,-2.9058,-2.99,-3.0117,-3.0422,-3.0872,-3.1526,-3.1859,-3.1859,-3.2263,-3.2629,-3.2846,-3.2846,-3.2948,-3.3151,-3.3151,-3.3151,-3.3151,-3.3151,-3.3151,-3.3151,-3.3151,-3.2513,-3.1556,-3.1322,-3.0146,-2.8584,-2.8571,-2.7825,-2.6876,-2.71,-2.6884,-2.6354,-2.5434,-2.4868,-2.4431,-2.3847,-2.3948,-2.4318,-2.4481,-2.4808,-2.5134,-2.5322,-2.5096,-2.47,-2.4356,-2.3991,-2.3602,-2.3195,-2.3108,-2.2965,-2.2572,-2.1829,-2.0905,-1.9773,-1.9861,-1.9849,-1.9145,-1.9472,-1.9874,-2.0075,-1.9924,-1.9798,-1.9798,-1.9648,-1.9183,-1.8279,-1.8682,-1.8344,-1.6845,-1.727,-1.732,-1.6691,-1.6275,-1.5785,-1.5212,-1.3852,-1.281,-1.2095,0.0,0.0,0.0,0.0,0.0,0.0,0.0,0.0,0.0,0.0,0.0,0.0,0.0,0.0,0.0,0.0,0.0,0.0,0.0,0.0,0.0,0.0,0.0,-2.2989,-2.5226,-2.6878,-2.6907,-2.8536,-2.9175,-2.7942,-2.8942,-2.9682,-2.9682,-3.0277,-3.067,-3.067,-3.1221,-3.1524,-3.1524,-3.2162,-3.2542,-3.2542,-3.2571,-3.289,-3.3532,-3.3532,-3.3819,-3.4414,-3.4414,-3.4414,-3.4414,-3.4414,-3.4414,-3.4414,-3.4414,-3.4051,-3.346,-3.2803,-3.1707,-3.0534,-3.0534,-2.9291,-2.7477,-2.6807,-2.6533,-2.6433,-2.5799,-2.5624,-2.5523,-2.4988,-2.4838,-2.4938,-2.5485,-2.5624,-2.5749,-2.6348,-2.5674,-2.4838,-2.4813,-2.396,-2.3158,-2.3133,-2.312,-2.3047,-2.2939,-2.2593,-2.1995,-2.093,-2.0717,-2.0691,-2.0691,-2.0175,0.0,-2.0591,-2.015,-1.9811,-1.9823,-1.9359,-1.8832,-1.8304,-1.8744,-1.852,-1.7293,-1.7703,-1.7694,-1.7024,-1.5979,-1.5155,-1.4614,-1.2999,-1.2156,-1.2123,0.0,0.0,0.0,0.0,0.0,0.0,0.0,0.0,0.0,0.0,0.0,0.0,0.0,0.0,0.0,0.0,0.0,0.0,0.0,0.0,0.0,-2.3339,-2.4994,-2.4994,-2.6849,-2.8332,-2.8782,-3.0088,-3.0828,-3.048,-3.1205,-3.1698,-3.1698,-3.1888,-3.199,-3.199,-3.215,-3.2251,-3.2251,-3.2875,-3.3242,-3.3242,-3.3659,-3.3978,-3.4153,-3.4153,-3.424,-3.4414,-3.4414,-3.4414,-3.4414,-3.4414,-3.4414,-3.4414,-3.4414,-3.4312,-3.4095,-3.3456,-3.2399,-3.1242,-3.1242,-3.0264,-2.8839,-2.8132,-2.76,-2.7136,-2.6468,-2.626,-2.6235,-2.6084,-2.6047,-2.6072,-2.6223,-2.626,-2.6298,-2.6449,-2.6273,-2.59,-2.5485,-2.4825,-2.4224,-2.3853,-2.3348,-2.2939,-2.2909,-2.2737,-2.2342,-2.1638,-2.0859,-2.0368,-2.0463,-2.0017,0.0,-2.0012,-1.9899,-1.9962,-2.0415,-2.0327,-1.9987,-1.9409,-1.9821,-1.9257,-1.7329,-1.7597,-1.7612,-1.7024,-1.6247,-1.5539,-1.49,-1.4087,-1.3307,0.0,0.0,0.0,0.0,0.0,0.0,0.0,0.0,0.0,0.0,0.0,0.0,0.0,0.0,0.0,0.0,0.0,0.0,0.0,0.0,0.0,0.0,-2.5328,-2.7084,-2.736,-2.8361,-2.9406,-3.0277,-3.1045,-3.1596,-3.1872,-3.2249,-3.2481,-3.2481,-3.2481,-3.2481,-3.2481,-3.2774,-3.2919,-3.2919,-3.3529,-3.3862,-3.3862,-3.4225,-3.4414,-3.4414,-3.4414,-3.4414,-3.4414,-3.4414,-3.4414,0.0,-3.4414,-3.4414,-3.4414,-3.4414,-3.4414,0.0,0.0,0.0,0.0,0.0,-3.0793,-2.9686,-2.872,-2.7988,-2.7314,-2.67,-2.6499,-2.6499,-2.6499,-2.6499,-2.6499,-2.6499,-2.6499,-2.6499,-2.6499,-2.6311,-2.6047,-2.5674,-2.5197,-2.47,-2.4406,-2.3779,-2.3226,-2.3164,-2.2825,0.0,-2.2037,-2.1357,-2.0936,-2.1104,-2.062,-2.0327,-2.0487,-2.0313,-2.02,-2.0314,-2.0327,-2.0075,-1.9497,-1.9869,0.0,0.0,0.0,-1.7568,-1.6546,-1.6126,0.0,0.0,0.0,0.0,0.0,0.0,0.0,0.0,-1.3034,-1.3101,0.0,0.0,0.0,0.0,0.0,0.0,0.0,0.0,0.0,0.0,0.0,0.0,0.0,0.0,0.0,0.0,-2.7258,-2.9087,-2.9653,-2.9697,-3.0146,-3.135,-3.1553,-3.1872,-3.2556,-3.2655,-3.2698,-3.2698,-3.2698,-3.2698,-3.2698,0.0,0.0,0.0,0.0,-3.4414,-3.4414,-3.4414,-3.4414,-3.4414,-3.4414,-3.4414,-3.4414,-3.4414,-3.4414,-3.4414,-3.4414,-3.4414,-3.4414,-3.4414,-3.4414,-3.4414,-3.4414,-3.4066,-3.3467,-3.2264,-3.135,-3.0508,-2.9285,0.0,0.0,-2.7027,-2.6849,-2.6837,-2.6739,-2.6692,-2.6624,-2.6624,-2.6555,-2.6499,-2.6499,-2.6109,-2.5686,-2.5686,-2.5297,-2.4876,-2.4876,-2.4309,-2.3709,-2.3533,-2.294,-2.24,-2.2228,-2.1952,-2.1812,-2.2001,-2.1547,-2.1216,-2.1425,-2.1054,-2.0564,-2.0049,0.0,0.0,-1.9208,-1.9468,-1.9339,-1.8621,-1.8446,-1.7654,-1.6054,-1.6032,-1.6032,-1.5972,-1.5972,-1.6451,-1.7387,-1.7387,-1.7183,-1.6715,-1.4333,-1.4189,0.0,0.0,0.0,0.0,0.0,0.0,0.0,0.0,0.0,0.0,0.0,0.0,0.0,0.0,0.0,-2.6927,-2.8884,-3.0278,-3.0409,-3.0423,-3.0669,-3.1393,-3.1973,-3.2571,-3.3256,-3.3746,-3.4051,-3.4051,-3.4051,-3.4051,-3.4051,-3.4167,-3.424,-3.424,-3.4356,-3.4414,-3.4414,-3.4414,-3.4414,-3.4414,0.0,0.0,-3.4414,-3.4414,-3.4414,-3.4414,-3.4414,-3.4414,-3.4414,-3.4414,-3.4414,-3.4414,-3.4414,-3.4341,-3.4177,-3.3912,-3.3437,-3.2763,-3.1923,-3.1223,-3.0504,-2.9322,-2.8919,-2.8826,-2.8264,-2.7736,0.0,-2.7317,-2.6905,-2.6499,-2.6499,-2.6411,-2.6336,-2.6336,-2.585,-2.5448,-2.5448,-2.476,-2.4037,-2.3575,-2.3181,-2.2754,-2.227,-2.1813,-2.1541,-2.1677,-2.1226,-2.0986,-2.1216,-2.1185,-2.1101,-2.1179,-2.1056,-2.0789,-2.0254,-2.0025,-1.9497,-1.8507,-1.832,-1.7894,-1.7111,-1.752,-1.7519,-1.7087,-1.7087,-1.7183,-1.7387,-1.7387,-1.758,-1.7869,-1.6931,-1.6463,0.0,0.0,0.0,0.0,0.0,0.0,0.0,0.0,0.0,0.0,0.0,-2.2686,-2.4897,0.0,-2.7665,-2.8942,-2.9987,-3.0598,-3.0598,-3.0598,-3.093,-3.1903,-3.2292,-3.289,-3.3848,-3.4225,-3.4414,-3.4414,-3.4414,-3.4414,-3.4414,-3.4414,-3.4414,-3.4414,-3.4414,-3.4414,-3.4414,-3.4414,-3.4414,-3.4414,-3.4414,-3.4414,-3.4414,-3.4414,-3.4414,-3.4414,-3.4414,-3.4414,-3.4414,-3.4414,-3.4414,-3.4414,-3.4414,-3.4346,-3.4264,-3.4346,-3.3892,-3.3155,-3.2597,-3.1948,-3.1226,-3.0269,-2.9929,-2.9808,-2.9107,-2.8654,-2.826,-2.761,-2.7167,-2.6839,-2.6562,-2.6499,-2.6465,-2.6361,-2.6115,-2.5868,-2.5754,-2.513,-2.4475,-2.4206,-2.3535,-2.2927,-2.263,-2.2149,-2.1849,-2.1989,-2.177,-2.1579,-2.1519,-2.151,-2.144,-2.1265,-2.1184,-2.0934,-2.039,-1.9905,-1.9342,-1.8756,-1.8642,-1.8362,-1.7832,-1.8061,-1.8073,-1.782,-1.7808,-1.7941,-1.8205,-1.8205,-1.8338,-1.859,-1.8326,-1.8061,0.0,0.0,0.0,0.0,0.0,0.0,0.0,-2.0132,-2.0967,-2.3664,-2.4621,-2.5676,-2.7855,-2.8797,-2.9523,-3.0452,-3.0714,-3.0743,-3.0627,-3.0598,-3.1003,-3.2162,-3.2408,-3.2962,-3.4124,-3.4341,-3.4414,-3.4414,-3.4414,-3.4414,-3.4414,-3.4414,-3.4414,-3.4414,-3.4414,-3.4414,-3.4414,-3.4414,-3.4414,-3.4414,-3.4414,-3.4414,-3.4414,-3.4414,-3.4414,-3.4414,-3.4414,-3.4414,-3.4414,-3.4414,-3.4414,-3.4414,-3.4414,-3.4264,-3.4128,-3.4346,-3.3908,-3.3234,-3.2919,-3.2394,-3.1799,-3.1192,-3.0999,-3.0883,-3.0158,-2.9819,-2.9469,-2.8219,-2.7697,-2.7379,-2.6798,-2.654,-2.6396,-2.6236,-2.6166,-2.6097,-2.5945,-2.5416,-2.4937,-2.4828,-2.399,-2.3244,-2.318,-2.2702,-2.2368,-2.234,-2.2359,-2.2262,-2.1932,-2.1913,-2.1734,-2.1223,-2.1133,-2.0884,-2.033,-1.9685,-1.9274,-1.917,-1.9047,-1.8806,-1.8374,-1.835,-1.835,-1.835,-1.835,-1.8566,-1.8987,-1.8987,-1.8987,-1.8987,-1.8987,-1.8987,-2.1525,-2.018,-1.9432,-2.0273,-2.0175,-2.1075,0.0,-2.5361,-2.5056,-2.8203,-2.8899,-2.9247,-3.0118,-3.0771,-3.1061,-3.067,-3.1047,-3.1221,-3.0685,-3.0598,-3.0843,-3.154,-3.215,-3.2803,-3.3532,-3.4095,-3.4414,-3.4414,-3.4414,-3.4414,-3.4414,-3.4414,-3.4414,-3.4414,-3.4414,-3.4414,-3.4414,-3.4414,-3.4414,-3.4414,-3.4414,-3.4414,-3.4414,-3.4414,-3.4414,-3.4414,-3.4414,-3.4414,-3.4414,-3.4414,-3.4414,-3.4414,-3.4414,-3.4264,-3.4128,-3.4346,-3.4346,-3.423,-3.4192,-3.4129,-3.3946,-3.3359,-3.3143,-3.3042,-3.2349,-3.174,-3.1068,-3.0208,-2.9141,-2.8127,-2.7404,-2.6737,-2.6236,-2.6213,-2.6062,-2.5945,-2.591,-2.5674,-2.5375,-2.4901,-2.4536,-2.4206,-2.3794,-2.3276,-2.2758,-2.2289,-2.2216,-2.2254,-2.2335,-2.2323,-2.2177,-2.1746,-2.1609,-2.1255,-2.0619,-2.0037,-1.9724,-1.9724,-1.9251,-1.8963,-1.8903,-1.8903,-1.8903,-1.8903,-1.8903,-1.8939,-1.8987,-1.8987,-1.8987,-1.8987,-1.8987,-1.8987,-2.343,-2.2747,-2.2505,-2.2665,-2.3339,-2.4559,-2.6692,-2.6811,-2.7188,-2.9668,-3.0176,-3.0597,-3.2036,-3.1859,-3.1555,-3.1685,-3.1293,-3.0872,-3.0641,-3.0598,-3.0699,-3.0945,-3.154,-3.2338,-3.3402,-3.3736,-3.4008,-3.4385,-3.4414,-3.4414,-3.4414,-3.4414,-3.4414,-3.4414,-3.4414,-3.4414,-3.4414,-3.4414,-3.4414,-3.4414,-3.4414,-3.4414,-3.4414,-3.4414,-3.4414,-3.4414,-3.4414,-3.4414,-3.4414,-3.4414,-3.4414,-3.4414,-3.4414,-3.4346,-3.4264,-3.438,-3.4346,-3.423,-3.4346,-3.4312,-3.4187,-3.3927,-3.384,-3.3729,-3.3004,-3.2277,-3.1463,-3.0441,-2.9392,-2.8377,-2.7737,-2.7142,-2.6613,-2.6377,-2.6026,-2.5688,-2.5571,-2.55,-2.5357,-2.5128,-2.4769,-2.4458,-2.4242,-2.3785,-2.3396,-2.318,-2.2582,-2.2216,-2.2278,-2.2278,-2.2224,-2.2056,-2.1692,-2.1367,-2.1091,-2.0574,-2.0273,-2.0273,-2.0057,-1.9937,-1.9937,-1.9941,-1.9941,-1.9937,-1.9937,-1.9925,-1.9929,-1.9925,-1.9937,-1.9937,-1.9941,-1.9941,-2.4411,-2.4465,-2.4795,-2.4718,-2.5879,-2.7142,-2.749,-2.7898,-2.871,-3.048,-3.0843,-3.1295,-3.2704,-3.2309,-3.183,-3.1961,-3.1337,-3.0801,-3.0627,-3.0642,-3.0642,-3.0598,-3.1004,-3.1731,-3.285,-3.3285,-3.3692,-3.4124,-3.4312,-3.4414,-3.4414,-3.4414,-3.4414,-3.4414,-3.4414,-3.4414,-3.4414,-3.4414,-3.4414,-3.4414,-3.4588,-3.4588,-3.4414,-3.4414,-3.4414,-3.4414,-3.4414,-3.4414,-3.4414,-3.4414,-3.4414,-3.4414,-3.4414,-3.4414,-3.438,-3.4346,-3.4264,-3.4196,-3.4346,-3.4264,-3.4128,-3.4162,-3.4162,-3.4025,-3.3514,-3.2818,-3.1956,-3.0851,-2.9822,-2.885,-2.8176,-2.7593,-2.7063,-2.6773,-2.6214,-2.5718,-2.5564,-2.5408,-2.5312,-2.5312,-2.4999,-2.47,-2.47,-2.4314,-2.3977,-2.3977,-2.3207,-2.2602,-2.2426,-2.2282,-2.2197,-2.2197,-2.1849,-2.162,-2.162,-2.1139,-2.081,-2.081,-2.0665,-2.0581,-2.0581,-2.0586,-2.0586,-2.0581,-2.0581,-2.0598,-2.0591,-2.0586,-2.061,-2.0581,-2.0586,-2.067,-2.4153,-2.448,-2.5183,-2.6428,-2.72,-2.8,-2.9233,-2.9523,-2.99,-3.1221,-3.1451,-3.148,-3.1538,-3.2046,-3.2077,-3.0874,-3.1119,-3.1279,-3.0685,-3.0702,-3.0762,-3.0612,-3.0717,-3.1024,0.0,-3.273,-3.3518,-3.3532,-3.4066,-3.4414,-3.4414,-3.4414,-3.4414,-3.4414,-3.4414,-3.4414,-3.4414,-3.4414,-3.4414,-3.4428,-3.5072,-3.5043,-3.4414,-3.4414,-3.4414,-3.4414,-3.4414,-3.4414,-3.4414,-3.4414,-3.4414,-3.4414,-3.4414,-3.4414,-3.438,-3.4162,-3.423,-3.438,-3.4414,-3.4264,-3.4128,-3.4346,-3.4264,-3.4128,-3.4312,-3.3791,-3.2967,-3.2024,-3.093,-2.9829,-2.8838,-2.8039,-2.7496,-2.7459,-2.6773,-2.6069,-2.6069,-2.5673,-2.5312,-2.5312,-2.53,-2.5288,-2.5288,-2.4843,-2.446,-2.446,-2.4049,-2.3565,-2.3047,-2.251,-2.2197,-2.2197,-2.2173,-2.2173,-2.2173,-2.168,-2.138,-2.138,-2.0899,-2.0581,-2.0581,-2.0581,-2.0581,-2.0581,-2.0581,-2.0598,-2.0591,-2.0591,-2.0586,-2.0581,-2.0581,-2.0887,-2.4626,-2.5658,-2.6982,-2.7824,-2.8521,-2.9175,-3.006,-3.0248,-3.0409,-3.0935,-3.0947,-3.0932,-3.1023,-3.1137,-3.1121,-3.067,-3.0786,-3.0814,-3.0641,-3.0642,-3.0642,-3.0598,-3.0642,0.0,0.0,0.0,0.0,-3.3431,-3.3707,-3.3978,-3.4385,-3.4414,-3.4414,-3.4414,-3.4414,-3.4414,-3.4414,-3.4414,-3.4617,-3.5087,-3.5691,-3.588,-3.5662,-3.5241,-3.5072,-3.5058,-3.4588,-3.4414,-3.4414,-3.4414,-3.4414,-3.4414,-3.4414,-3.4414,-3.438,-3.4312,-3.4264,-3.421,-3.4088,-3.402,-3.3985,-3.4054,-3.4074,-3.4128,-3.4162,-3.35,-3.2541,-3.1978,-3.0839,-2.9656,-2.8913,-2.8289,-2.7822,-2.7669,-2.7119,-2.6609,-2.6609,-2.6226,-2.5829,-2.5829,-2.554,-2.5312,-2.5312,-2.5155,-2.4927,-2.4544,-2.3797,-2.3216,-2.3035,-2.2522,-2.2197,-2.2197,-2.2197,-2.2197,-2.2197,-2.2029,-2.1921,-2.1921,-2.1765,-2.1668,-2.1668,-2.1668,-2.1668,-2.1668,-2.1668,-2.1656,-2.1675,-2.1675,-2.1644,-2.1668,-2.1668,-2.1765,-2.5716,-2.6912,-2.8274,-2.9174,-2.9668,-3.0074,-3.051,-3.0453,-3.0338,-3.0441,-3.0003,-2.9653,-2.9754,-2.9638,-2.9624,-2.9886,-3.0118,-3.0321,-3.0569,-3.0642,-3.0642,-3.0598,-3.0831,-3.1007,0.0,0.0,0.0,-3.3064,-3.3543,-3.3978,-3.4385,-3.4414,-3.4414,-3.4414,-3.4414,-3.4414,-3.4414,-3.4646,-3.5067,-3.5741,-3.5894,-3.6083,-3.6272,-3.5415,-3.5174,-3.5363,-3.469,-3.4414,-3.4414,-3.4414,-3.4414,-3.4414,-3.4414,-3.4414,-3.438,-3.4312,-3.4196,-3.4094,-3.4005,-3.3951,-3.3896,-3.3951,-3.404,-3.4094,-3.4094,-3.3395,-3.2484,-3.1783,-3.0782,-2.9742,-2.8988,-2.8536,-2.8242,-2.811,-2.7635,-2.7186,-2.7186,-2.6741,-2.6334,-2.6142,-2.5817,-2.5528,-2.5336,-2.5312,-2.5192,-2.4855,-2.4073,-2.3472,-2.3324,-2.2999,-2.271,-2.2498,-2.2474,-2.2402,-2.2209,-2.2197,-2.2197,-2.2197,-2.2197,-2.2197,-2.2197,-2.2197,-2.2197,-2.2197,-2.2197,-2.2197,-2.2197,-2.2197,-2.2197,-2.2197,-2.2197,-2.2197,-2.7343,-2.8332,-2.9188,-3.0365,-3.0656,-3.0641,-3.0598,-3.0163,-2.9753,-2.968,-2.8686,-2.7793,-2.7735,-2.7673,-2.7855,-2.8505,-2.9174,-2.9827,-3.0569,-3.0746,-3.079,-3.0699,-3.1359,-3.1769,-3.1569,0.0,0.0,-3.2571,0.0,-3.4385,-3.4414,-3.4414,-3.4414,-3.4414,-3.4414,-3.4414,-3.4414,-3.5072,-3.5741,-3.6344,-3.5755,-3.577,-3.6315,-3.5038,-3.4791,-3.5363,-3.469,-3.4414,-3.4414,-3.4414,-3.4414,-3.4414,-3.4414,-3.4414,-3.438,-3.4196,-3.4128,-3.4094,-3.4094,-3.4005,-3.3917,-3.4059,-3.4094,-3.4128,-3.4094,-3.3597,-3.2797,-3.1549,-3.0782,-3.0088,-2.9067,-2.8803,-2.8803,-2.8803,-2.8231,-2.7726,-2.7726,-2.7306,-2.6777,-2.6286,-2.6142,-2.5937,-2.5432,-2.5324,-2.5312,-2.5312,-2.4879,-2.4374,-2.3914,-2.3818,-2.3613,-2.3107,-2.3047,-2.2811,-2.2318,-2.227,-2.2258,-2.2234,-2.2234,-2.2221,-2.2197,-2.2197,-2.2197,-2.2197,-2.2197,-2.2197,-2.2197,-2.2197,-2.2197,-2.2197,-2.2197,-2.2197,-2.8781,-3.0321,-3.1527,-3.1521,-3.1508,-3.1259,-3.0426,-2.975,-2.904,-2.8205,-2.7203,-2.6209,-2.5369,-2.6207,-2.7084,-2.727,-2.8594,-2.9972,-3.1119,-3.1309,-3.1498,-3.1961,-3.2196,-3.2297,-3.2234,-3.2846,0.0,0.0,-3.3561,-3.392,-3.4385,-3.4414,-3.4414,-3.4414,-3.4414,-3.4414,-3.4414,-3.5072,-3.5959,-3.7041,-3.6388,-3.6417,-3.7012,-3.572,-3.5247,-3.5363,-3.469,-3.4414,-3.4414,-3.4414,-3.4414,-3.4414,-3.4414,-3.4414,-3.438,-3.4346,-3.423,-3.4094,-3.4094,-3.4094,-3.404,-3.3985,-3.4108,-3.4312,-3.4162,-3.3874,-3.3255,-3.1659,-3.0957,-3.0418,-2.8949,-2.8578,-2.8578,-2.8578,-2.8442,-2.8318,-2.8318,-2.7858,-2.7438,-2.7332,-2.6659,-2.6057,-2.5913,-2.5564,-2.5312,-2.5312,-2.5192,-2.4915,-2.4398,-2.4001,-2.3746,-2.3613,-2.3601,-2.3553,-2.3408,-2.3396,-2.3228,-2.2811,-2.2787,-2.2606,-2.2209,-2.2197,-2.2197,-2.2197,-2.2197,-2.2197,-2.2197,-2.2197,-2.2197,-2.2197,-2.2197,-2.2197,-2.9828,-3.125,-3.2399,-3.1917,-3.1567,-3.1056,-2.991,-2.8963,-2.8009,-2.6782,-2.5599,-2.4532,-2.3577,-2.4347,-2.5371,-2.6213,-2.7723,-2.9305,-3.0887,-3.1337,-3.1625,-3.2034,-3.2585,-3.2933,-3.2933,-3.3514,-3.3877,0.0,-3.3877,-3.4037,-3.4385,-3.4414,-3.4414,-3.4414,-3.4414,-3.4675,-3.5241,-3.5348,-3.5901,-3.6867,-3.6199,-3.6228,-3.6823,-3.5532,-3.529,-3.572,0.0,-3.4414,-3.4414,-3.4414,-3.4574,-3.4835,-3.4835,-3.4994,-3.5212,-3.4936,-3.4752,-3.4605,-3.4229,-3.4349,-3.4605,-3.414,-3.4108,-3.423,-3.4128,-3.3736,-3.3009,-3.1586,-3.0807,-3.0075,-2.8843,-2.851,-2.851,-2.851,-2.851,-2.851,-2.851,-2.827,-2.7993,-2.7726,-2.7043,-2.6466,-2.6466,-2.6009,-2.5661,-2.5661,-2.5456,-2.5204,-2.4903,-2.4614,-2.4362,-2.4121,-2.4097,-2.4013,-2.383,-2.3806,-2.3673,-2.3372,-2.336,-2.3228,-2.2927,-2.2883,-2.2883,-2.2883,-2.2883,-2.2883,-2.2883,-2.2883,-2.2883,-2.2883,-2.2883,-2.2883,-3.0775,-3.1803,-3.2617,-3.2094,-3.1466,-3.0631,-2.9319,-2.805,-2.6788,-2.5432,-2.4029,-2.2891,-2.2287,-2.2593,-2.3572,-2.5498,-2.6881,-2.8391,-3.0422,-3.125,-3.1654,-3.1741,-3.2846,-3.3634,-3.3634,-3.4095,-3.4414,-3.4414,-3.4414,-3.4414,-3.4414,-3.4414,-3.4414,-3.4414,-3.4501,-3.5067,-3.617,-3.5668,-3.5712,-3.6301,-3.5784,-3.577,-3.6156,-3.5125,-3.5169,-3.5996,-3.498,0.0,-3.4414,-3.4414,-3.4791,-3.5392,-3.5392,-3.5784,-3.6243,-3.5726,-3.5523,-3.5401,-3.4577,-3.4813,-3.5352,-3.4493,-3.4257,-3.4257,-3.4257,-3.355,-3.2497,-3.1476,-3.0481,-2.9549,-2.8736,-2.851,-2.851,-2.851,-2.851,-2.851,-2.851,-2.851,-2.8378,-2.7921,-2.7366,-2.7006,-2.7006,-2.6574,-2.6178,-2.6105,-2.5709,-2.5384,-2.5312,-2.5312,-2.5131,-2.4675,-2.4626,-2.4446,-2.4047,-2.4011,-2.3974,-2.3914,-2.3902,-2.3866,-2.3806,-2.3806,-2.3806,-2.3806,-2.3806,-2.3806,-2.3806,-2.3806,-2.3806,-2.3806,-2.3806,-2.3806,-3.2194,-3.319,-3.3871,-3.301,-3.2294,-3.125,-2.9149,-2.7255,-2.5523,-2.4179,-2.2795,-2.1771,-2.16,-2.238,-2.3664,-2.5498,-2.6881,-2.8551,-3.1018,-3.1917,-3.2542,-3.3097,-3.379,-3.424,-3.424,-3.4356,0.0,0.0,-3.4414,-3.4414,-3.4414,-3.4414,-3.4414,-3.4414,-3.4922,-3.5334,-3.5552,-3.545,-3.5712,-3.6301,-3.6199,-3.5923,-3.5581,-3.5836,-3.5532,-3.4762,-3.5101,0.0,-3.4414,-3.4414,-3.4791,-3.5392,-3.5392,-3.5784,-3.6301,-3.6185,-3.6141,-3.6054,-3.5381,-3.5499,-3.5776,-3.5142,-3.5045,-3.5149,-3.4975,-3.398,-3.2613,-3.1513,-3.0581,-2.973,-2.8736,-2.851,-2.851,-2.851,-2.851,-2.851,-2.851,-2.851,-2.8486,-2.839,-2.7906,-2.7546,-2.7546,-2.7102,-2.6597,-2.6166,-2.6021,-2.5805,-2.536,-2.5312,-2.5276,-2.518,-2.5168,-2.5131,-2.5047,-2.5035,-2.4855,-2.4422,-2.4398,-2.4206,-2.3818,-2.3806,-2.3806,-2.3806,-2.3806,-2.3806,-2.3806,-2.3806,-2.3806,-2.3806,-2.3806,-2.3806,-3.279,-3.3753,-3.4427,-3.3376,-3.2358,-3.0923,-2.8181,-2.6273,-2.45,-2.2503,-2.1511,-2.0857,-2.045,-2.158,-2.2958,-2.4094,-2.5662,-2.749,-2.9726,-3.0887,-3.1874,-3.2861,-3.3819,-3.4414,-3.4414,-3.4414,-3.4414,-3.4414,-3.4414,-3.4414,-3.4414,-3.4414,-3.4414,-3.4414,-3.4704,-3.5058,-3.5392,-3.5058,-3.5183,-3.5807,-3.5488,-3.5328,-3.5392,-3.5328,-3.5169,-3.4907,-3.4878,0.0,-3.4414,-3.4414,-3.498,-3.5851,-3.5851,-3.6446,-3.7259,-3.6939,-3.6823,-3.6693,-3.5741,-3.5961,-3.6563,-3.5912,-3.571,-3.5695,-3.5731,-3.458,-3.3077,-3.2083,-3.083,-2.9596,-2.873,-2.851,-2.851,-2.851,-2.851,-2.851,-2.851,-2.851,-2.851,-2.851,-2.8306,-2.8138,-2.8138,-2.7654,-2.721,-2.6983,-2.6707,-2.6405,-2.619,-2.5901,-2.5612,-2.5336,-2.5312,-2.5312,-2.5312,-2.5312,-2.5204,-2.4939,-2.4927,-2.4831,-2.4578,-2.4566,-2.4566,-2.4566,-2.4566,-2.4566,-2.4566,-2.4566,-2.4566,-2.4566,-2.4566,-2.4566,-3.3022,-3.3876,-3.4481,-3.3458,-3.2124,-3.0311,-2.7295,-2.545,-2.3678,-2.1211,-2.0497,-2.0183,-1.9712,-2.0778,-2.2074,-2.3052,-2.4447,-2.6192,-2.8528,-2.974,-3.0932,-3.237,-3.3514,0.0,-3.4399,-3.4414,0.0,-3.4414,-3.4414,0.0,-3.4414,-3.4545,-3.4559,-3.4414,-3.4675,-3.4936,-3.5189,-3.4936,-3.4936,-3.5189,-3.4936,-3.4936,-3.5189,-3.4922,-3.4951,-3.5174,-3.4777,0.0,0.0,-3.4414,-3.5082,-3.6112,-3.6257,-3.7012,-3.797,-3.7622,-3.7491,-3.7331,-3.622,-3.6533,-3.7389,-3.6736,-3.6411,-3.6252,-3.6252,-3.4994,-3.3411,-3.2546,-3.0978,-2.9456,-2.8827,-2.8595,-2.851,-2.851,-2.851,-2.851,-2.851,-2.851,-2.851,-2.851,-2.851,-2.851,-2.851,-2.8162,-2.781,-2.7702,-2.733,-2.7018,-2.691,-2.655,-2.6117,-2.5709,-2.5444,-2.5312,-2.5312,-2.5312,-2.5312,-2.5312,-2.5312,-2.5312,-2.5312,-2.5312,-2.5312,-2.5312,-2.5312,-2.5312,-2.5312,-2.5312,-2.5312,-2.5312,-2.5312,-2.5312,-3.3029,-3.3632,-3.3952,-3.3339,-3.1768,-2.9731,-2.7176,-2.5091,-2.3131,-2.1107,-2.0213,-1.9889,-2.0233,-2.043,-2.1364,-2.3851,-2.4159,-2.5311,-2.883,-2.9547,-3.0438,-3.2455,0.0,0.0,-3.4356,-3.4414,-3.4414,-3.4414,0.0,0.0,-3.4414,-3.5,-3.5043,-3.4428,-3.5532,-3.5604,-3.4501,-3.559,-3.559,-3.4516,-3.5604,-3.5561,-3.4545,-3.5633,-3.5546,-3.453,-3.5087,0.0,0.0,-3.4414,-3.482,-3.5552,-3.6083,-3.6751,-3.7447,-3.7941,-3.813,-3.8028,-3.736,-3.7564,-3.8028,-3.7418,-3.7215,-3.7054,-3.6254,-3.4875,-3.3376,-3.2238,-3.0801,-2.9541,-2.9273,-2.8871,-2.851,-2.851,-2.851,-2.851,-2.851,-2.851,-2.851,-2.851,-2.851,-2.851,-2.851,-2.8474,-2.827,-2.775,-2.7642,-2.7438,-2.6958,-2.6849,-2.6801,-2.6753,-2.5901,-2.5312,-2.5312,-2.5312,-2.5312,-2.5312,-2.5312,-2.5312,-2.5312,-2.5312,-2.5312,-2.5312,-2.5312,-2.5312,-2.5312,-2.5312,-2.5312,-2.5312,-2.5312,-2.5312,-3.2443,-3.344,-3.4031,-3.347,-3.2133,-3.0091,-2.6765,-2.4747,-2.2936,-2.0572,-1.9902,-1.971,-1.979,-2.0159,-2.0902,-2.2258,-2.2731,-2.3862,-2.6505,-2.7265,-2.8567,-3.1366,-3.2121,-3.299,0.0,0.0,-3.4414,-3.4414,0.0,0.0,-3.4414,-3.4646,-3.4675,-3.4428,-3.4907,-3.4922,-3.4414,-3.4907,-3.4907,-3.4428,-3.4922,-3.4907,-3.4428,-3.4936,-3.4893,-3.4428,-3.4675,0.0,0.0,-3.4414,-3.4791,-3.5465,-3.6054,-3.6722,-3.7375,-3.7984,-3.8202,-3.8115,-3.752,-3.7709,-3.8101,-3.7506,-3.7549,-3.769,-3.6816,-3.5639,-3.4366,-3.306,-3.1646,-3.0481,-3.0082,-2.9728,-2.946,-2.946,-2.922,-2.8979,-2.8979,-2.8739,-2.855,-2.8657,-2.8685,-2.8685,-2.8685,-2.8685,-2.8585,-2.8222,-2.8198,-2.8086,-2.787,-2.757,-2.7366,-2.7366,-2.643,-2.5781,-2.5781,-2.5492,-2.5312,-2.5312,-2.5312,-2.5312,-2.5312,-2.5312,-2.5312,-2.5312,-2.5312,-2.5312,-2.5312,-2.5312,-2.5312,-2.5312,-2.5312,-2.5312,-3.1809,-3.2989,-3.366,-3.3367,-3.2137,-3.0021,-2.6357,-2.4489,-2.2787,-2.022,-1.9708,-1.9654,-1.9487,-1.989,-2.0487,-2.1277,-2.1748,-2.2832,-2.5091,-2.5682,-2.699,-2.9863,0.0,-3.1699,0.0,-3.418,-3.4414,0.0,0.0,0.0,-3.4414,-3.4414,-3.4414,-3.4414,-3.4588,-3.4603,-3.4414,-3.4603,-3.4603,-3.4414,-3.4414,-3.4414,-3.4414,-3.4414,-3.4414,-3.4414,-3.4414,0.0,0.0,-3.4414,-3.4675,-3.5203,-3.5981,-3.6591,-3.7114,-3.7912,-3.8202,-3.8144,-3.7723,-3.7839,-3.813,-3.7709,-3.7854,-3.8037,-3.7169,-3.6201,-3.513,-3.3781,-3.2374,-3.1065,-3.0458,-3.0199,-3.0086,-3.0086,-2.9797,-2.9484,-2.9328,-2.9003,-2.8731,-2.8788,-2.8791,-2.8791,-2.8791,-2.8791,-2.8724,-2.855,-2.851,-2.851,-2.851,-2.8186,-2.7957,-2.7957,-2.7128,-2.6514,-2.6358,-2.5997,-2.5721,-2.5552,-2.5697,-2.5709,-2.554,-2.5709,-2.5709,-2.554,-2.554,-2.5468,-2.5312,-2.5312,-2.5312,-2.5312,-2.5312,-2.5312,-3.1212,-3.2209,-3.2523,-3.3007,-3.1533,-2.9195,-2.6103,-2.4297,-2.2628,-2.0204,-1.9708,-1.9672,-1.9611,-1.9608,-2.0098,-2.1631,-2.1615,-2.2471,-2.5478,-2.5497,-2.5987,0.0,-2.8801,-2.9824,-3.1565,-3.3362,-3.4414,0.0,0.0,0.0,-3.4414,-3.4414,-3.4414,-3.4414,-3.5058,-3.5087,-3.4428,-3.5072,-3.5072,-3.4414,-3.4414,-3.4414,-3.4414,-3.4414,-3.4414,0.0,0.0,0.0,0.0,-3.4414,-3.4414,-3.4545,-3.5822,-3.6301,-3.6475,-3.7738,-3.8202,-3.8202,-3.8188,-3.8202,-3.8202,-3.8188,-3.8202,-3.8037,-3.7169,-3.6281,-3.5373,-3.4306,-3.2621,-3.1022,-3.0302,-3.0086,-3.0086,-3.0086,-3.0086,-2.9941,-2.9412,-2.9292,-2.9205,-2.8861,-2.8791,-2.8791,-2.8791,-2.8791,-2.8724,-2.855,-2.851,-2.851,-2.851,-2.851,-2.8498,-2.8498,-2.8029,-2.745,-2.6934,-2.6885,-2.6645,-2.6129,-2.661,-2.6633,-2.6105,-2.6585,-2.6609,-2.6093,-2.6093,-2.5829,-2.5312,-2.5312,-2.5312,-2.5312,-2.5312,-2.5312,-2.8241,-2.9222,-2.9611,-2.8787,-2.8276,-2.7193,-2.4225,-2.3201,-2.2284,-2.013,-1.9708,-1.9672,-1.9611,-1.9647,-2.0236,-2.2013,-2.2306,-2.2939,-2.4755,0.0,0.0,-2.8946,-3.1471,-3.3184,0.0,0.0,0.0,0.0,0.0,0.0,-3.4414,-3.4414,-3.4414,-3.4414,-3.4603,-3.4617,-3.4414,-3.4617,-3.4617,-3.4414,-3.4414,-3.4414,-3.4414,-3.4414,-3.4414,0.0,0.0,0.0,0.0,-3.4414,-3.4414,-3.4545,-3.5807,-3.6301,-3.646,-3.7738,-3.8202,-3.8202,-3.8202,-3.8202,-3.8202,-3.8202,-3.8202,-3.8165,-3.7886,-3.6674,-3.502,-3.3134,-3.2228,-3.1634,-3.1291,-3.1211,-3.1211,-3.1211,-3.0891,-3.0579,-3.041,-3.0211,-2.9942,-2.9621,-2.9684,-2.964,-2.9113,-2.9013,-2.8895,-2.855,-2.851,-2.851,-2.851,-2.851,-2.851,-2.851,-2.8366,-2.8041,-2.7474,-2.7102,-2.6825,-2.6645,-2.6801,-2.6813,-2.6633,-2.6801,-2.6813,-2.6633,-2.6633,-2.6549,-2.6381,-2.6381,-2.6381,-2.6381,-2.6381,-2.6381,-2.5984,-2.6867,-2.7296,-2.6725,-2.6425,-2.5663,-2.3306,-2.2467,-2.17,-2.0044,-1.9708,-1.969,-1.965,-1.9672,-2.0183,-2.158,-2.2103,-2.2757,-2.4036,0.0,0.0,-2.9229,0.0,0.0,0.0,-3.4157,0.0,0.0,0.0,0.0,-3.4414,-3.4414,-3.4414,-3.4414,-3.4414,-3.4414,-3.4414,-3.4414,-3.4414,-3.4414,-3.4414,-3.4414,-3.4414,-3.4414,-3.4414,0.0,0.0,0.0,0.0,-3.4414,-3.4414,-3.4545,-3.5807,-3.6301,-3.646,-3.7738,-3.8202,-3.8202,-3.8202,-3.8202,-3.8202,-3.8202,-3.8202,-3.8089,-3.7438,-3.6306,-3.4938,-3.3134,-3.232,-3.1937,-3.1761,-3.1705,-3.1705,-3.1705,-3.1452,-3.1163,-3.0958,-3.0731,-3.0512,-3.0278,-3.0384,-3.0251,-2.9548,-2.945,-2.923,-2.8574,-2.851,-2.851,-2.851,-2.851,-2.851,-2.851,-2.851,-2.8378,-2.8041,-2.7717,-2.7402,-2.7198,-2.7378,-2.7402,-2.7198,-2.739,-2.7402,-2.7198,-2.7198,-2.709,-2.6898,-2.6898,-2.6898,-2.6898,-2.6898,-2.6898,0.0,-2.4963,-2.5378,-2.6037,-2.5516,-2.4452,-2.3013,-2.1934,0.0,-1.9933,-1.9708,-1.9708,-1.9768,-1.9738,-1.9959,-2.0763,-2.1395,-2.2233,0.0,-2.4993,0.0,0.0,-3.1117,0.0,-3.2779,0.0,0.0,0.0,0.0,0.0,-3.4414,-3.4414,-3.4414,-3.4414,-3.4414,-3.4414,-3.4414,-3.4414,-3.4414,-3.4414,-3.4414,-3.4414,-3.4414,-3.4414,-3.4414,0.0,0.0,0.0,0.0,-3.4414,-3.4414,-3.453,-3.5764,-3.6243,-3.6388,-3.7607,-3.8101,-3.8144,-3.8144,-3.8159,-3.8202,-3.8202,-3.8202,-3.7886,-3.6188,-3.5507,-3.5061,-3.3956,-3.2846,-3.195,-3.1749,-3.1705,-3.1705,-3.1705,-3.1705,-3.1573,-3.1079,-3.097,-3.0955,-3.0854,-3.0839,-3.0708,-3.0126,-3.0028,-2.9735,-2.8743,-2.8595,-2.857,-2.857,-2.8534,-2.851,-2.851,-2.851,-2.851,-2.851,-2.851,-2.8294,-2.7774,-2.8234,-2.8294,-2.7762,-2.8246,-2.8282,-2.7789,-2.7777,-2.7498,-2.7006,-2.7006,-2.7006,-2.7006,-2.7006,-2.7006,-2.0837,0.0,-2.2462,-2.1568,-2.1744,-2.1812,0.0,-2.0664,-2.061,-1.9861,-1.9708,-1.9872,-2.0378,-2.0049,-2.0412,-2.2577,-2.2652,-2.3092,-2.4881,-2.7488,0.0,-3.19,-3.3292,-3.4036,-3.4016,0.0,0.0,0.0,0.0,-3.4414,-3.4414,-3.4414,-3.4414,-3.4414,-3.4414,-3.4414,-3.4414,-3.4414,-3.4414,-3.4414,-3.4414,-3.4414,-3.4414,-3.4414,-3.4414,0.0,0.0,0.0,-3.4414,-3.4414,-3.4414,-3.4486,-3.527,-3.5625,-3.5712,-3.646,-3.707,-3.752,-3.752,-3.7825,-3.8202,-3.8202,-3.8202,-3.8,-3.6922,-3.5989,-3.4979,-3.336,-3.2494,-3.1994,-3.1937,-3.1805,-3.1705,-3.1705,-3.1705,-3.1681,-3.1548,-3.1612,-3.1598,-3.1193,-3.1392,-3.1376,-3.0472,-3.0469,-3.042,-2.982,-2.9364,-2.9112,-2.9112,-2.8763,-2.851,-2.851,-2.851,-2.851,-2.851,-2.851,-2.8462,-2.833,-2.8438,-2.845,-2.833,-2.845,-2.845,-2.833,-2.8318,-2.827,-2.8138,-2.8138,-2.8138,-2.8138,-2.8138,-2.8138,-1.9708,-2.0482,-2.1162,-2.0545,-2.0688,-2.0871,-2.0473,-2.0312,-2.0139,-1.9783,-1.9708,-1.9884,-2.0569,-2.0408,-2.0722,-2.2443,-2.2936,0.0,0.0,0.0,-3.1827,-3.3286,-3.4233,-3.4683,0.0,0.0,0.0,0.0,0.0,-3.4414,-3.4414,-3.4414,-3.4414,-3.4414,-3.4414,-3.4414,-3.4414,-3.4414,-3.4414,-3.4414,-3.4414,-3.4414,-3.4414,-3.4414,-3.4414,0.0,0.0,0.0,-3.4414,-3.4414,-3.4414,-3.4472,-3.5145,-3.5392,-3.5508,-3.6417,-3.6997,-3.7346,-3.7622,-3.7941,-3.8202,-3.8202,-3.7924,-3.7529,-3.7053,-3.6201,-3.5142,-3.3716,-3.2655,-3.1994,-3.1994,-3.1937,-3.1805,-3.1705,-3.1749,-3.1805,-3.1705,-3.1805,-3.1809,-3.1617,-3.1773,-3.1675,-3.0925,-3.087,-3.0784,-3.0206,-2.9845,-2.9665,-2.9665,-2.9412,-2.9176,-2.9004,-2.8899,-2.8815,-2.8642,-2.855,-2.851,-2.851,-2.851,-2.851,-2.851,-2.851,-2.851,-2.851,-2.851,-2.851,-2.851,-2.851,-2.851,-2.851,-2.8776,-2.8922,-1.9648,-2.0183,-2.0734,-2.0935,-2.0827,-2.0753,-2.092,-2.03,-1.9708,-1.9708,-1.9783,-2.0049,-2.0737,-2.0946,-2.1291,-2.2158,-2.3424,0.0,-2.922,-3.1273,-3.2793,-3.3878,-3.4504,0.0,0.0,0.0,0.0,0.0,0.0,-3.4414,-3.4414,-3.4414,-3.4414,-3.4414,-3.4414,-3.4414,-3.4414,-3.4414,-3.4414,-3.4414,-3.4414,-3.4414,-3.4414,-3.4414,-3.4414,-3.4414,0.0,0.0,-3.4414,-3.4414,-3.4414,-3.4472,-3.5043,-3.5261,-3.5392,-3.6562,-3.707,-3.7259,-3.7955,-3.8202,-3.8202,-3.8202,-3.7682,-3.7053,-3.6936,-3.6399,-3.5548,-3.4402,-3.322,-3.232,-3.2276,-3.2157,-3.1994,-3.1805,-3.1893,-3.1994,-3.1849,-3.1749,-3.1805,-3.1994,-3.2038,-3.1879,-3.1405,-3.1363,-3.1174,-3.0483,-3.0308,-3.0206,-3.0206,-3.0134,-2.9989,-2.9694,-2.9535,-2.9313,-2.9003,-2.8787,-2.8631,-2.8631,-2.8558,-2.851,-2.851,-2.851,-2.851,-2.851,-2.851,-2.851,-2.851,-2.851,-2.851,-2.851,-2.904,-2.9302,-1.9393,-2.0183,-2.0572,-2.0065,-2.031,-2.0557,-2.005,-1.9804,-1.9708,-1.9708,-2.0154,-2.0752,-2.1425,-2.1994,-2.2972,-2.4717,-2.6435,-2.8211,0.0,0.0,-3.2348,-3.3814,0.0,0.0,0.0,0.0,0.0,0.0,0.0,-3.4414,-3.4414,-3.4414,-3.4414,-3.4414,-3.4414,-3.4414,-3.4414,-3.4414,-3.4414,-3.4414,-3.4414,-3.4414,-3.4414,-3.4414,-3.4414,-3.4414,0.0,-3.4414,-3.4414,-3.4414,-3.4414,-3.4428,-3.4516,-3.4559,-3.4646,-3.5421,-3.5996,-3.6635,-3.7796,-3.8202,-3.8202,-3.8202,-3.8127,-3.7848,-3.713,-3.6819,-3.6373,-3.4786,-3.4024,-3.3661,-3.3462,-3.2902,-3.2257,-3.2038,-3.2169,-3.2344,-3.23,-3.2125,-3.1937,-3.1981,-3.2169,-3.2232,-3.1916,-3.2091,-3.2098,-3.1751,-3.1177,-3.0802,-3.0802,-3.0362,-3.0091,-3.0007,-3.0007,-2.9971,-2.9887,-2.9477,-2.9184,-2.9184,-2.8751,-2.851,-2.851,-2.851,-2.851,-2.851,-2.851,-2.851,-2.851,-2.851,-2.851,-2.851,-2.859,-2.8922,-1.8986,-1.9645,-2.0258,-2.0681,-2.1276,-2.1695,-2.1385,-2.1041,-2.0767,-2.0767,-2.1021,-2.1455,-2.2119,-2.2694,-2.38,-2.6046,-2.8088,-2.9824,-3.1115,-3.2404,-3.3511,0.0,0.0,0.0,0.0,0.0,0.0,0.0,0.0,0.0,-3.4414,-3.4414,-3.4414,-3.4414,-3.4414,-3.4414,-3.4414,-3.4414,-3.4414,-3.4414,-3.4414,-3.4414,-3.4414,-3.4414,-3.4414,-3.4414,0.0,-3.4414,-3.4414,-3.4414,-3.4414,-3.4414,-3.4414,-3.4414,-3.453,-3.5517,-3.6489,-3.7418,-3.7999,-3.8202,-3.8202,-3.8202,-3.7886,-3.7414,-3.7014,-3.6557,-3.6042,-3.5291,-3.454,-3.3872,-3.3305,-3.2871,-3.2506,-3.2257,-3.2376,-3.2519,-3.2431,-3.23,-3.2169,-3.2038,-3.2081,-3.2125,-3.1893,-3.1937,-3.1981,-3.1849,-3.1544,-3.1344,-3.1344,-3.1139,-3.0917,-3.0725,-3.0604,-3.0441,-3.029,-2.9952,-2.9484,-2.8907,-2.8643,-2.851,-2.851,-2.851,-2.851,-2.851,-2.851,-2.851,-2.851,-2.851,-2.851,-2.851,-2.8843,-2.9118,-1.8852,-1.9196,-1.9779,-2.1126,-2.1844,-2.2358,-2.2808,-2.2403,-2.2009,-2.2323,-2.2482,-2.2715,-2.3244,-2.3956,-2.5224,-2.7424,-2.9418,-3.1087,-3.2311,-3.3532,-3.4456,0.0,0.0,0.0,0.0,0.0,0.0,0.0,0.0,0.0,-3.4481,-3.4414,-3.4414,-3.4414,-3.4414,-3.4414,-3.4414,-3.4414,-3.4414,-3.4414,-3.4414,-3.4414,-3.4414,-3.4414,-3.4414,-3.4414,-3.4414,-3.4414,-3.4414,-3.4414,-3.4414,-3.4414,-3.4414,-3.4588,-3.4965,-3.5952,-3.7114,-3.8202,-3.8202,-3.8202,-3.8202,-3.8202,-3.7606,-3.6897,-3.6897,-3.6281,-3.5574,-3.5386,-3.4746,-3.3927,-3.3189,-3.2914,-3.2723,-3.2519,-3.2649,-3.2766,-3.2605,-3.2475,-3.2356,-3.2125,-3.2038,-3.1937,-3.1805,-3.1749,-3.1749,-3.1749,-3.1705,-3.1705,-3.1705,-3.1705,-3.1592,-3.1336,-3.1189,-3.0929,-3.0537,-3.0435,-2.9911,-2.8943,-2.8763,-2.8691,-2.8691,-2.857,-2.851,-2.851,-2.851,-2.851,-2.851,-2.851,-2.851,-2.851,-2.9118,-2.9419,-1.9286,-1.9211,-1.9091,-2.0453,-2.0808,-2.1316,-2.3116,-2.3056,-2.2972,-2.4141,-2.4782,-2.5144,-2.5188,-2.6608,-2.8231,-2.9644,-3.0896,-3.2187,-3.3652,0.0,0.0,0.0,0.0,0.0,0.0,0.0,0.0,0.0,0.0,0.0,-3.4664,-3.4481,-3.4414,-3.4414,-3.4414,-3.4414,-3.4414,-3.4414,-3.4414,-3.4414,-3.4414,-3.4414,-3.4414,-3.4414,-3.4414,-3.4414,-3.4414,-3.4414,-3.4414,-3.4414,-3.4414,-3.4414,-3.4414,-3.514,-3.6185,-3.6272,-3.7114,-3.8202,-3.8202,-3.8202,-3.8202,-3.8202,-3.7606,-3.6897,-3.6897,-3.6281,-3.5427,-3.4703,-3.4439,-3.4301,-3.3998,-3.3488,-3.2982,-3.2766,-3.2896,-3.3081,-3.3038,-3.2692,-3.2388,-3.2344,-3.2169,-3.1994,-3.1981,-3.1981,-3.1981,-3.1981,-3.1805,-3.1705,-3.1705,-3.1705,-3.1693,-3.1657,-3.1645,-3.144,-3.091,-3.101,-3.081,-3.0043,-2.9508,-2.9244,-2.9244,-2.8775,-2.851,-2.851,-2.851,-2.851,-2.851,-2.851,-2.851,-2.851,-2.9118,-2.9419,-1.8311,-1.8882,-1.963,-2.0991,-2.1635,-2.2338,-2.3857,-2.4373,-2.4881,-2.6183,-2.6623,-2.6728,-2.6554,-2.7321,-2.8259,-2.9096,-3.1101,-3.272,-3.3201,0.0,0.0,0.0,0.0,0.0,0.0,0.0,0.0,0.0,0.0,0.0,-3.4515,-3.4448,-3.4414,-3.4414,-3.4414,-3.4414,-3.4414,-3.4414,-3.4414,-3.4414,-3.4414,-3.4414,-3.4414,-3.4414,-3.4414,-3.4414,-3.4414,-3.4414,-3.4414,-3.4414,-3.4414,-3.4414,-3.4414,-3.5198,-3.6301,-3.6301,-3.7114,-3.8202,-3.8202,-3.8202,-3.8202,-3.8202,-3.7606,-3.6805,-3.6281,-3.5869,-3.5427,-3.462,-3.4397,-3.4272,-3.3586,-3.327,-3.3068,-3.2982,-3.3038,-3.3124,-3.3124,-3.2952,-3.2736,-3.2487,-3.23,-3.2169,-3.1849,-3.1805,-3.1805,-3.1805,-3.1761,-3.1705,-3.1705,-3.1805,-3.1849,-3.1705,-3.1805,-3.1765,-3.1428,-3.1591,-3.1537,-3.1127,-3.0266,-2.9785,-2.9785,-2.9593,-2.934,-2.9003,-2.9003,-2.8835,-2.851,-2.851,-2.851,-2.851,-2.8736,-2.8855,-1.8386,-1.9001,-1.9977,-2.1096,-2.2059,-2.3152,-2.4829,-2.5749,-2.6662,-2.8214,-2.8286,-2.8007,-2.7838,-2.7993,-2.8487,0.0,-3.145,-3.2979,0.0,0.0,0.0,0.0,0.0,0.0,0.0,0.0,0.0,0.0,0.0,0.0,0.0,-3.4414,-3.4414,-3.4414,-3.4414,-3.4414,-3.4414,-3.4414,-3.4414,-3.4414,-3.4414,-3.4414,-3.4414,-3.4414,-3.4414,-3.4414,-3.4414,-3.4414,-3.4414,-3.4414,-3.4414,-3.4414,-3.4414,-3.5198,-3.6301,-3.6301,-3.7114,-3.8202,-3.8202,-3.8202,-3.8165,-3.7886,-3.7208,-3.6399,-3.5775,-3.5427,-3.5156,-3.4855,-3.4592,-3.4272,-3.3654,-3.3326,-3.3124,-3.3124,-3.3124,-3.3124,-3.3124,-3.3025,-3.2865,-3.2562,-3.2388,-3.2169,-3.1849,-3.1749,-3.1705,-3.1705,-3.1705,-3.1705,-3.1705,-3.1805,-3.1893,-3.1805,-3.1937,-3.1937,-3.1805,-3.1937,-3.1893,-3.1705,-3.1031,-3.0506,-3.0338,-3.017,-2.9833,-2.9304,-2.9304,-2.9039,-2.851,-2.8679,-2.8763,-2.8763,-2.9121,-2.9205,-1.9854,-1.9693,-1.9872,-2.0539,-2.1724,-2.3422,-2.6042,-2.7151,-2.8169,-3.0118,-2.9778,-2.9112,-2.9112,-2.8905,0.0,-3.1465,-3.2171,0.0,0.0,0.0,0.0,0.0,0.0,0.0,0.0,0.0,0.0,0.0,0.0,0.0,0.0,-3.4515,-3.4399,-3.4414,-3.4414,-3.4414,-3.4414,-3.4414,-3.4414,-3.4414,-3.4414,-3.4414,-3.4414,-3.4414,-3.4414,-3.4414,-3.4414,-3.4414,-3.4414,-3.4414,-3.4414,-3.4414,-3.4414,-3.5198,-3.6301,-3.6301,-3.7114,-3.8202,-3.8202,-3.8202,-3.8037,-3.7169,-3.632,-3.5615,-3.5615,-3.5047,-3.4592,-3.5386,-3.5047,-3.4397,-3.4397,-3.3738,-3.3124,-3.3124,-3.3124,-3.3124,-3.3124,-3.2896,-3.2711,-3.2711,-3.2332,-3.1994,-3.1994,-3.1849,-3.1705,-3.1705,-3.1705,-3.1705,-3.1705,-3.1717,-3.1761,-3.1981,-3.1994,-3.1994,-3.1994,-3.1994,-3.1893,-3.1705,-3.1705,-3.1476,-3.0946,-3.0386,-2.9845,-2.9328,-2.9316,-2.9051,-2.8522,-2.9051,-2.9304,-2.9316,-3.0483,-3.0687,-1.8476,-1.9328,-2.0572,-2.1246,-2.343,-2.5908,-2.7604,-2.8543,-2.9577,-3.1509,-3.0787,-2.9804,-2.9804,-2.9535,0.0,-3.0788,-3.1957,0.0,0.0,0.0,0.0,0.0,0.0,0.0,0.0,0.0,0.0,0.0,0.0,0.0,0.0,-3.4026,-3.3949,-3.4399,-3.4414,-3.4414,-3.4414,-3.4414,-3.4414,-3.4414,-3.4414,-3.4414,-3.4414,-3.4414,-3.4414,-3.4414,-3.4414,-3.4414,-3.4414,-3.4414,-3.4414,-3.4414,-3.4414,-3.5198,-3.6301,-3.6301,-3.7114,-3.8202,-3.8202,-3.8202,-3.8165,-3.7886,-3.683,-3.5695,-3.632,-3.5923,-3.5264,-3.5534,-3.5427,-3.5128,-3.4551,-3.3738,-3.3124,-3.3124,-3.3124,-3.3124,-3.3124,-3.3038,-3.2939,-3.2766,-3.2463,-3.2213,-3.2038,-3.1849,-3.1705,-3.1705,-3.1805,-3.2025,-3.2363,-3.2113,-3.2069,-3.2463,-3.2388,-3.2213,-3.2038,-3.1994,-3.1893,-3.1705,-3.1705,-3.1633,-3.1476,-3.132,-3.0995,-3.0422,-3.041,-3.0146,-2.9629,-2.9785,-2.9845,-2.9857,-3.021,-3.0283,-1.9253,-2.0378,-2.1784,-2.2951,-2.4941,-2.7141,-2.928,-3.0073,-3.0748,-3.2139,-3.116,-3.0173,-3.0453,-3.0002,0.0,-3.0905,0.0,0.0,0.0,0.0,0.0,0.0,0.0,0.0,0.0,0.0,0.0,0.0,0.0,0.0,0.0,-3.3296,-3.3267,-3.3645,-3.3659,-3.3659,-3.3659,-3.3659,-3.3659,-3.3659,-3.3659,-3.379,-3.4051,-3.4298,-3.4414,-3.4414,-3.4414,-3.4414,-3.4414,-3.4414,-3.4414,-3.4414,-3.4414,-3.5038,-3.5967,-3.6214,-3.6954,-3.7883,-3.813,-3.8202,-3.8127,-3.781,-3.6961,-3.6188,-3.6727,-3.6517,-3.6108,-3.6108,-3.5869,-3.5427,-3.462,-3.3738,-3.3124,-3.3124,-3.3124,-3.3124,-3.3124,-3.3124,-3.3038,-3.2896,-3.2605,-3.2356,-3.2169,-3.1893,-3.1705,-3.1805,-3.2025,-3.2257,-3.255,-3.2344,-3.23,-3.2667,-3.2419,-3.2257,-3.2288,-3.2025,-3.1849,-3.1805,-3.1805,-3.1793,-3.1705,-3.1705,-3.1452,-3.0922,-3.0996,-3.0731,-3.0086,-3.0375,-3.0483,-3.0398,-3.0657,-3.0754,-2.1205,-2.2104,-2.3182,-2.5196,-2.6333,-2.7754,-3.0808,-3.1511,-3.1632,-3.2199,-3.1161,-3.0379,-3.097,-3.0324,-3.0147,0.0,0.0,0.0,0.0,0.0,0.0,0.0,0.0,0.0,0.0,0.0,0.0,0.0,0.0,0.0,0.0,-3.2423,-3.2454,-3.2481,-3.2481,-3.2481,-3.2481,-3.2481,-3.2481,-3.2481,-3.2481,-3.2846,-3.3518,-3.4066,-3.4356,-3.4414,-3.4414,-3.4414,-3.4414,-3.4414,-3.4414,-3.4414,-3.4414,-3.4806,-3.5465,-3.6083,-3.6722,-3.7404,-3.7984,-3.8202,-3.8089,-3.7285,-3.6975,-3.6897,-3.6975,-3.6897,-3.6766,-3.6766,-3.6162,-3.5305,-3.4509,-3.3696,-3.3124,-3.3124,-3.3124,-3.3124,-3.3124,-3.3124,-3.3124,-3.3124,-3.2736,-3.2431,-3.24,-3.2025,-3.1793,-3.2113,-3.23,-3.2431,-3.2562,-3.2475,-3.2519,-3.2711,-3.2332,-3.2245,-3.2636,-3.2101,-3.1805,-3.1937,-3.1994,-3.1893,-3.1705,-3.1705,-3.1488,-3.0995,-3.1143,-3.0913,-3.023,-3.0913,-3.1143,-3.0963,-3.1488,-3.1705,-2.0052,-2.1385,-2.3287,-2.5764,-2.8038,-2.9983,-3.1212,-3.1511,-3.1632,-3.2199,-3.1545,-3.0867,-3.0866,-3.0585,-3.0656,0.0,0.0,0.0,0.0,0.0,0.0,0.0,0.0,0.0,0.0,0.0,0.0,0.0,0.0,0.0,-3.2483,-3.1988,-3.1944,-3.2466,-3.2481,-3.2481,-3.2481,-3.2481,-3.2481,0.0,-3.2481,-3.2846,-3.3503,-3.3634,-3.3935,-3.4414,-3.4414,-3.4414,-3.4414,-3.4414,-3.4414,-3.4414,-3.4414,-3.4806,-3.5465,-3.6083,-3.6722,-3.7404,-3.7984,-3.8202,-3.8165,-3.7962,-3.7453,-3.7014,-3.772,-3.6947,-3.5869,-3.5869,-3.5291,-3.4468,-3.3611,-3.324,-3.3124,-3.3124,-3.3124,-3.3124,-3.3124,-3.3124,-3.3124,-3.3124,-3.2853,-3.2593,-3.2431,-3.2125,-3.2232,-3.3177,-3.2785,-3.2766,-3.381,-3.3185,-3.2723,-3.2995,-3.2723,-3.2506,-3.2475,-3.2344,-3.2125,-3.1805,-3.1893,-3.1893,-3.1705,-3.1849,-3.1789,-3.1536,-3.158,-3.152,-3.1368,-3.152,-3.158,-3.1536,-3.1657,-3.1705,-2.0303,-2.1879,-2.3909,-2.72,-2.928,-3.0687,-3.1346,-3.1511,-3.1542,-3.1782,-3.1442,-3.1014,-3.0762,-3.0642,0.0,0.0,0.0,0.0,0.0,0.0,0.0,0.0,0.0,0.0,0.0,0.0,0.0,0.0,0.0,-3.1419,-3.1569,-3.125,-3.1221,-3.1584,-3.1584,-3.1584,-3.1584,-3.1584,-3.1584,-3.1584,-3.1584,-3.2092,-3.3035,-3.3645,-3.4095,-3.4414,-3.4414,-3.4414,-3.4414,-3.4414,-3.4414,-3.4414,-3.4414,-3.4617,-3.5024,-3.5967,-3.6533,-3.6954,-3.7883,-3.8202,-3.8202,-3.8202,-3.7886,-3.7606,-3.8037,-3.7553,-3.6752,-3.636,-3.5602,-3.4772,-3.3937,-3.3411,-3.3197,-3.3611,-3.3411,-3.3124,-3.3124,-3.3124,-3.3124,-3.3124,-3.2896,-3.268,-3.255,-3.2419,-3.2537,-3.3147,-3.2927,-3.3154,-3.4272,-3.3894,-3.3713,-3.4233,-3.4095,-3.3784,-3.3398,-3.333,-3.3061,-3.2525,-3.2624,-3.2537,-3.2189,-3.2201,-3.2025,-3.1717,-3.1805,-3.1805,-3.1705,-3.1805,-3.1805,-3.1705,-3.1705,-3.1705,-2.0557,-2.2532,-2.4852,-2.8663,-3.0043,-3.0687,-3.1346,-3.1511,-3.1467,-3.1322,-3.1176,-3.0984,-3.0702,0.0,0.0,0.0,0.0,0.0,0.0,0.0,0.0,0.0,0.0,0.0,0.0,0.0,0.0,0.0,0.0,-3.0732,-3.0598,-3.0612,-3.0642,-3.0642,-3.0598,-3.0642,-3.0702,-3.0642,-3.0642,-3.0702,-3.0774,-3.1397,-3.2524,-3.3717,-3.4312,-3.4414,-3.4414,-3.4414,-3.4414,-3.4414,-3.4414,-3.4414,-3.4414,-3.4414,-3.4559,-3.572,-3.6214,-3.6475,-3.7651,-3.8115,-3.8202,-3.8202,-3.8202,-3.8202,-3.8202,-3.8089,-3.7848,-3.7092,-3.6281,-3.5467,-3.4786,-3.405,-3.3725,-3.4426,-3.3937,-3.3326,-3.3326,-3.3197,-3.3124,-3.3124,-3.2896,-3.2711,-3.2711,-3.2711,-3.2754,-3.2914,-3.3013,-3.3411,-3.4272,-3.4272,-3.4413,-3.5102,-3.5142,-3.4924,-3.4384,-3.4457,-3.4277,-3.367,-3.3641,-3.3386,-3.284,-3.2754,-3.245,-3.1837,-3.1893,-3.1849,-3.1705,-3.1849,-3.1849,-3.1705,-3.1705,-3.1705,-1.8852,-2.2158,-2.6019,-2.8903,-3.0043,-3.0687,-3.1346,-3.1511,-3.1467,0.0,-3.1176,-3.1014,0.0,0.0,0.0,0.0,0.0,0.0,0.0,0.0,0.0,0.0,0.0,0.0,0.0,0.0,0.0,0.0,-3.0925,-3.0732,-3.0598,-3.0702,-3.0762,-3.0762,-3.0672,-3.0732,-3.1014,-3.0866,-3.0866,-3.1058,-3.1452,-3.1957,-3.2542,-3.3267,-3.3891,-3.4414,-3.4414,-3.4414,-3.4414,-3.4414,-3.4414,-3.4414,-3.4414,-3.4414,-3.4501,-3.5261,-3.5836,-3.6417,-3.7172,-3.7767,-3.8202,-3.8202,-3.8202,-3.8202,-3.8202,-3.7682,-3.7053,-3.6936,-3.6281,-3.5588,-3.5467,-3.5346,-3.5305,-3.5427,-3.4814,-3.423,-3.423,-3.3611,-3.3124,-3.3124,-3.2896,-3.2711,-3.2711,-3.2711,-3.2957,-3.3704,-3.3416,-3.3411,-3.4272,-3.3738,-3.3326,-3.3441,-3.4105,-3.4413,-3.4082,-3.4884,-3.5129,-3.4459,-3.4485,-3.415,-3.3356,-3.3759,-3.3505,-3.2344,-3.1937,-3.1705,-3.1705,-3.1705,-3.1705,-3.1705,-3.1705,-3.1705,-1.9705,-2.2143,-2.471,-2.7735,-2.8678,-2.922,-3.0627,-3.0928,-3.1032,-3.1363,-3.1249,0.0,0.0,0.0,0.0,0.0,0.0,0.0,0.0,0.0,0.0,0.0,0.0,0.0,0.0,0.0,0.0,0.0,-3.0955,-3.0866,-3.0598,-3.0732,-3.0791,-3.0791,-3.0732,-3.0821,-3.1117,-3.1014,-3.0955,-3.094,-3.151,-3.2045,-3.251,-3.318,-3.3819,-3.4414,-3.4414,-3.4414,-3.4414,-3.4414,-3.4414,-3.4414,-3.4414,-3.4414,-3.453,-3.5532,-3.6069,-3.6446,-3.7462,-3.7984,-3.8202,-3.8202,-3.8202,-3.8202,-3.8202,-3.7924,-3.7644,-3.7644,-3.7,-3.632,-3.632,-3.6249,-3.6293,-3.6778,-3.6525,-3.6079,-3.5703,-3.4283,-3.3124,-3.3124,-3.2982,-3.2939,-3.2939,-3.2939,-3.3056,-3.3458,-3.327,-3.3411,-3.4272,-3.4076,-3.4008,-3.447,-3.4841,-3.4841,-3.4275,-3.5318,-3.5642,-3.4869,-3.4841,-3.4855,-3.4855,-3.3927,-3.3305,-3.3116,-3.2932,-3.2513,-3.1849,-3.2025,-3.1937,-3.1705,-3.1805,-3.1805,-1.975,-2.141,-2.2942,-2.6072,-2.7225,-2.8019,-2.9639,0.0,-3.0657,0.0,-3.1188,0.0,0.0,0.0,0.0,0.0,0.0,0.0,0.0,0.0,0.0,0.0,0.0,0.0,0.0,0.0,0.0,0.0,-3.1014,-3.0984,-3.0732,-3.0851,-3.094,-3.094,-3.0881,-3.0984,-3.1205,-3.119,-3.1102,-3.0895,-3.1379,-3.1946,-3.2527,-3.3071,-3.3725,-3.4414,-3.4414,-3.4414,-3.4414,-3.4414,-3.4414,-3.4414,-3.4414,-3.4414,-3.4545,-3.5662,-3.617,-3.646,-3.7593,-3.8072,-3.8202,-3.8202,-3.8202,-3.8202,-3.8202,-3.8202,-3.8202,-3.8202,-3.772,-3.7289,-3.7459,-3.7354,-3.7408,-3.8062,-3.7959,-3.7414,-3.6466,-3.4608,-3.3124,-3.3124,-3.3124,-3.3124,-3.3124,-3.3124,-3.3124,-3.3124,-3.3124,-3.3326,-3.3992,-3.4063,-3.4301,-3.491,-3.5142,-3.5047,-3.4426,-3.5669,-3.6136,-3.5467,-3.5251,-3.5372,-3.5916,-3.4288,-3.3595,-3.3957,-3.4337,-3.3716,-3.2081,-3.2213,-3.2169,-3.1893,-3.1937,-3.1937,-1.7355,-1.9328,-2.1436,-2.4096,-2.6183,-2.7794,0.0,0.0,-3.0507,-3.0552,0.0,0.0,0.0,0.0,0.0,0.0,0.0,0.0,0.0,0.0,0.0,0.0,0.0,0.0,0.0,0.0,0.0,0.0,-3.1087,-3.1087,-3.1087,-3.1205,-3.1278,-3.1278,-3.1161,-3.122,-3.1482,-3.1482,-3.1336,-3.1087,-3.1117,-3.1613,-3.2513,-3.2715,-3.3416,-3.4414,-3.4414,-3.4414,-3.4414,-3.4414,-3.4414,-3.4414,-3.4414,-3.4414,-3.4501,-3.5203,-3.5793,-3.6402,-3.7114,-3.7723,-3.8202,-3.8202,-3.8202,-3.8202,-3.8202,-3.8202,-3.8202,-3.8202,-3.8165,-3.8272,-3.8909,-3.9059,-3.9074,-3.9112,-3.85,-3.7436,-3.5745,-3.4153,-3.3124,-3.3124,-3.3124,-3.3124,-3.3124,-3.3124,-3.3124,-3.3124,-3.3124,-3.3124,-3.3154,-3.3167,-3.3197,-3.324,-3.3979,-3.4439,-3.4397,-3.591,-3.678,-3.6531,-3.5848,-3.5568,-3.5722,-3.5477,-3.5128,-3.467,-3.6004,-3.5318,-3.24,-3.2125,-3.2125,-3.2344,-3.2125,-3.1981,-1.6637,-1.8222,-1.9941,-2.2188,-2.3595,-2.4844,-2.6333,-2.7694,-2.8888,-2.9729,0.0,0.0,0.0,0.0,0.0,0.0,0.0,0.0,0.0,0.0,0.0,0.0,0.0,0.0,0.0,0.0,0.0,0.0,0.0,-3.1278,-3.1117,-3.1234,-3.1307,-3.1307,-3.1263,-3.1336,-3.1511,-3.1511,-3.1366,-3.1117,-3.119,-3.153,-3.2076,-3.2214,-3.2903,-3.3941,-3.3941,-3.4122,-3.4414,-3.4414,-3.4414,-3.4414,-3.4414,-3.4414,-3.4545,-3.559,-3.6112,-3.646,-3.752,-3.8028,-3.8202,-3.8202,-3.8202,-3.8202,-3.8202,-3.8202,-3.8202,-3.8202,-3.8507,-3.8797,-3.8609,-3.916,-3.977,-3.977,-3.8385,-3.6866,-3.6247,-3.4536,-3.3124,-3.3124,-3.3124,-3.3124,-3.3124,-3.3124,-3.3124,-3.3124,-3.3124,-3.3124,-3.3124,-3.3124,-3.3124,-3.3124,-3.3368,-3.3569,-3.3569,-3.462,-3.5305,-3.5403,-3.4645,-3.4778,-3.6017,-3.4751,-3.4458,-3.5319,-3.5556,-3.4924,-3.3433,-3.3501,-3.3142,-3.24,-3.2419,-3.2288,-1.5547,-1.7175,-1.9076,-2.0632,-2.1699,-2.2862,-2.4814,0.0,-2.7585,-2.8708,0.0,0.0,0.0,0.0,0.0,0.0,0.0,0.0,0.0,0.0,0.0,0.0,0.0,0.0,0.0,0.0,0.0,0.0,0.0,0.0,-3.1249,-3.1336,-3.138,-3.138,-3.138,-3.1409,-3.1511,-3.1511,-3.1395,-3.1161,-3.1263,-3.1516,-3.1879,-3.2046,-3.2707,-3.38,-3.385,-3.4069,-3.4414,-3.4414,-3.4414,-3.4414,-3.4414,-3.4414,-3.4559,-3.5836,-3.6301,-3.6489,-3.7767,-3.8202,-3.8202,-3.8202,-3.8202,-3.8202,-3.8202,-3.8202,-3.8202,-3.8202,-3.8522,-3.8812,-3.8594,-3.916,-3.9799,-3.9799,-3.8204,-3.6619,-3.6321,-3.4591,-3.3124,-3.3124,-3.3124,-3.3124,-3.3124,-3.3124,-3.3124,-3.3124,-3.3124,-3.3124,-3.3124,-3.3124,-3.3124,-3.3124,-3.3124,-3.3124,-3.3124,-3.3907,-3.4476,-3.4594,-3.3993,-3.4169,-3.5455,-3.4297,-3.4227,-3.5525,-3.5737,-3.5413,-3.4555,-3.4288,-3.3641,-3.2649,-3.268,-3.2506,0.0,0.0,0.0,-1.9483,0.0,0.0,-2.4022,0.0,-2.6647,0.0,0.0,0.0,0.0,0.0,0.0,0.0,0.0,0.0,0.0,0.0,0.0,0.0,0.0,0.0,0.0,0.0,0.0,0.0,-3.1234,-3.1351,-3.1511,-3.1511,-3.1511,-3.1511,-3.1511,-3.1511,-3.1511,-3.1511,-3.1438,-3.1307,-3.1307,-3.1531,-3.1986,-3.2182,-3.2893,-3.3979,-3.411,-3.4268,-3.4414,-3.4414,-3.4414,-3.4414,-3.4414,-3.4414,-3.4559,-3.5836,-3.6301,-3.6489,-3.7767,-3.8202,-3.8202,-3.8202,-3.8202,-3.8202,-3.8202,-3.8202,-3.8202,-3.8202,-3.8217,-3.8376,-3.903,-3.9189,-3.9175,-3.9175,-3.8,-3.6688,-3.5829,-3.4345,-3.3154,-3.3154,-3.3124,-3.3124,-3.3111,-3.3124,-3.3124,-3.3124,-3.3124,-3.3124,-3.3124,-3.3124,-3.3124,-3.3124,-3.3124,-3.3124,-3.3124,-3.3865,-3.4343,-3.4371,-3.4046,-3.3892,-3.3903,-3.431,-3.4724,-3.5221,-3.6779,-3.695,-3.5628,-3.4345,-3.3513,-3.3068,-3.281,-3.2593,-1.5425,0.0,0.0,0.0,0.0,0.0,0.0,0.0,0.0,0.0,0.0,0.0,0.0,0.0,0.0,0.0,0.0,0.0,0.0,0.0,0.0,0.0,0.0,0.0,0.0,0.0,0.0,0.0,-3.1234,-3.1351,-3.1511,-3.1511,-3.1511,-3.1511,-3.1511,-3.1511,-3.1511,-3.1511,-3.1438,-3.1307,-3.1409,-3.1469,-3.1501,-3.1663,-3.2348,-3.3428,-3.3459,-3.3984,-3.4769,-3.4769,-3.4702,-3.4631,-3.4631,-3.4515,-3.4559,-3.5836,-3.6301,-3.6489,-3.7767,-3.8202,-3.8202,-3.8202,-3.8202,-3.8202,-3.8202,-3.8202,-3.8202,-3.8202,-3.8551,-3.8971,-3.916,-3.8841,-3.8478,-3.8478,-3.7658,-3.6844,-3.6596,-3.5669,-3.4759,-3.4134,-3.3526,-3.3283,-3.3937,-3.3526,-3.3124,-3.3124,-3.3124,-3.3124,-3.3124,-3.3124,-3.3124,-3.3124,-3.3124,-3.3124,-3.3124,-3.3326,-3.3517,-3.366,-3.3211,-3.3306,-3.4011,-3.4516,-3.5087,-3.5783,-3.6968,-3.7159,-3.632,-3.5467,-3.4387,-3.3068,-3.281,-3.268,-1.6428,-1.7116,-1.8177,-1.8446,0.0,0.0,0.0,-2.134,0.0,0.0,0.0,0.0,0.0,0.0,0.0,0.0,0.0,0.0,0.0,0.0,0.0,0.0,0.0,0.0,0.0,-3.0732,-3.0895,-3.1087,-3.1234,-3.1351,-3.1511,-3.1511,-3.1511,-3.1511,-3.1511,-3.1511,-3.1511,-3.1511,-3.1467,-3.138,-3.1467,-3.1467,-3.138,-3.1467,-3.2154,-3.3331,-3.3331,-3.3981,-3.5034,-3.5034,-3.4883,-3.4698,-3.4698,-3.4597,-3.4559,-3.5836,-3.6301,-3.6489,-3.7767,-3.8202,-3.8202,-3.8202,-3.8202,-3.8202,-3.8202,-3.8202,-3.8202,-3.8202,-3.8478,-3.8783,-3.8783,-3.8492,-3.8202,-3.8202,-3.781,-3.7323,-3.6975,-3.6478,-3.5923,-3.5047,-3.4217,-3.3823,-3.4314,-3.3696,-3.3124,-3.3124,-3.3124,-3.3124,-3.3124,-3.3124,-3.3124,-3.3124,-3.3124,-3.3124,-3.3124,-3.3124,-3.3144,-3.3293,-3.3042,-3.3199,-3.3819,-3.4382,-3.5125,-3.6008,-3.6802,-3.6866,-3.6162,-3.5709,-3.4664,-3.3068,-3.281,-3.2711,-1.7473,-1.8012,-1.9046,-1.9573,-1.8807,0.0,-2.1505,-2.1804,-2.1994,0.0,0.0,0.0,0.0,0.0,0.0,0.0,0.0,0.0,0.0,0.0,0.0,0.0,0.0,0.0,-3.0496,-3.0658,-3.0822,-3.0955,-3.1101,-3.1232,-3.1391,-3.1466,-3.1511,-3.1511,-3.1511,-3.1511,-3.1511,-3.1511,-3.1511,-3.1511,-3.1511,-3.1511,-3.1511,-3.1511,-3.2183,-3.338,-3.3469,-3.4109,-3.5142,-3.5184,-3.503,-3.4698,-3.4698,-3.4597,-3.4559,-3.5836,-3.6301,-3.6489,-3.7767,-3.8202,-3.8202,-3.8202,-3.8202,-3.8202,-3.8202,-3.8202,-3.8202,-3.8202,-3.8202,-3.8202,-3.8202,-3.8202,-3.8202,-3.8202,-3.8202,-3.8,-3.7208,-3.7053,-3.6805,-3.6029,-3.5087,-3.4439,-3.4509,-3.3738,-3.3124,-3.3124,-3.3124,-3.3124,-3.3124,-3.3124,-3.3124,-3.3124,-3.3124,-3.3124,-3.3124,-3.3124,-3.3124,-3.3124,-3.3382,-3.3551,-3.3512,-3.424,-3.5101,-3.6099,-3.6509,-3.6364,-3.5615,-3.5224,-3.4387,-3.3068,-3.2853,-3.2766,-1.9986,-2.0105,-2.0195,-1.9794,0.0,0.0,-1.876,-1.9405,-2.0348,0.0,0.0,0.0,0.0,0.0,0.0,0.0,0.0,0.0,0.0,0.0,0.0,0.0,0.0,0.0,-2.9813,-3.0307,-3.0483,-3.0162,-3.0363,-3.0547,-3.0673,-3.1212,-3.1511,-3.1511,-3.1511,-3.1511,-3.1511,-3.1511,-3.1511,-3.1511,-3.1511,-3.1511,-3.1511,-3.1511,-3.1929,-3.2736,-3.326,-3.3933,-3.468,-3.5215,-3.5129,-3.4698,-3.4698,-3.4597,-3.4559,-3.5836,-3.6301,-3.6489,-3.7767,-3.8202,-3.8202,-3.8202,-3.8202,-3.8202,-3.8202,-3.8202,-3.8202,-3.8202,-3.8202,-3.8202,-3.8202,-3.8202,-3.8202,-3.8202,-3.8202,-3.8165,-3.7962,-3.7962,-3.7886,-3.772,-3.5896,-3.4592,-3.5237,-3.4121,-3.3124,-3.3124,-3.3124,-3.3124,-3.3124,-3.3124,-3.3124,-3.3124,-3.3124,-3.3124,-3.3124,-3.3124,-3.3124,-3.3124,-3.3958,-3.4203,-3.3668,-3.5115,-3.6021,-3.6259,-3.6656,-3.6445,-3.5615,-3.4191,-3.3398,-3.3124,-3.3038,-3.3025,-2.1291,-2.1201,-2.1126,-2.0767,0.0,0.0,0.0,0.0,-2.0082,0.0,0.0,0.0,0.0,0.0,0.0,0.0,0.0,0.0,0.0,0.0,0.0,0.0,0.0,0.0,-2.9145,-2.9464,-2.9609,-2.9516,-2.9781,-2.9975,-3.0043,-3.0672,-3.0987,-3.0987,-3.1331,-3.1511,-3.1511,-3.1511,-3.1511,-3.1511,-3.1511,-3.1511,-3.1511,-3.1511,-3.1869,-3.2557,-3.3215,-3.3827,-3.439,-3.4978,-3.4997,-3.4731,-3.4898,-3.4716,-3.4574,-3.5956,-3.6387,-3.6489,-3.7767,-3.8202,-3.8202,-3.8202,-3.8202,-3.8202,-3.8202,-3.8202,-3.8202,-3.8202,-3.8202,-3.8202,-3.8202,-3.8202,-3.8202,-3.8202,-3.8202,-3.8202,-3.8202,-3.8202,-3.8202,-3.8202,-3.6492,-3.5128,-3.5548,-3.4191,-3.3124,-3.3124,-3.3124,-3.3124,-3.3124,-3.3124,-3.3124,-3.3124,-3.3124,-3.3124,-3.3124,-3.3124,-3.3124,-3.3124,-3.3986,-3.4286,-3.3635,-3.4924,-3.5877,-3.6301,-3.6252,-3.6029,-3.5615,-3.4371,-3.3526,-3.3124,-3.3124,-3.3124,0.0,0.0,0.0,0.0,0.0,-2.0576,0.0,0.0,0.0,0.0,0.0,0.0,0.0,0.0,0.0,0.0,0.0,0.0,0.0,0.0,0.0,0.0,0.0,0.0,0.0,-2.8229,-2.8354,-2.8864,-2.8943,-2.9089,-2.9385,-2.9983,-3.0328,-3.0328,-3.0957,-3.1316,-3.1316,-3.1436,-3.1511,-3.1511,-3.1511,-3.1511,-3.1511,-3.1511,-3.1795,-3.2333,-3.3155,-3.3691,-3.407,-3.4709,-3.485,-3.4731,-3.4964,-3.4783,-3.4574,-3.6026,-3.6422,-3.6489,-3.7767,-3.8202,-3.8202,-3.8202,-3.8202,-3.8202,-3.8202,-3.8202,-3.8202,-3.8202,-3.8202,-3.8202,-3.8202,-3.8202,-3.8202,-3.8202,-3.8202,-3.8202,-3.8202,-3.8202,-3.8202,-3.8202,-3.6777,-3.5615,-3.5615,-3.4191,-3.3124,-3.3124,-3.3124,-3.3124,-3.3124,-3.3124,-3.3124,-3.3124,-3.3124,-3.3124,-3.3124,-3.3124,-3.3124,-3.3124,-3.405,-3.4275,-3.3522,-3.447,-3.5399,-3.6265,-3.5728,-3.5466,-3.5615,-3.4607,-3.3781,-3.3124,-3.3124,-3.3124,0.0,0.0,0.0,0.0,-2.2428,0.0,0.0,0.0,0.0,0.0,0.0,0.0,0.0,0.0,0.0,0.0,0.0,0.0,0.0,0.0,0.0,0.0,0.0,0.0,0.0,-2.6486,-2.6721,-2.8115,-2.7203,-2.7198,-2.8652,-2.9325,-2.9711,-2.9711,-3.0298,-3.0612,-3.0612,-3.1197,-3.1511,-3.1511,-3.1511,-3.1511,-3.1511,-3.1511,-3.154,-3.169,-3.2961,-3.3437,-3.34,-3.4661,-3.4983,-3.4698,-3.4563,-3.4448,-3.4574,-3.5872,-3.6315,-3.6489,-3.7767,-3.8202,-3.8202,-3.8202,-3.8202,-3.8202,-3.8202,-3.8202,-3.8202,-3.8202,-3.8202,-3.8202,-3.8202,-3.8202,-3.8202,-3.8202,-3.8202,-3.8202,-3.8202,-3.8202,-3.8202,-3.8202,-3.6777,-3.5615,-3.5615,-3.4191,-3.3124,-3.3124,-3.3124,-3.3124,-3.3124,-3.3124,-3.3124,-3.3124,-3.3124,-3.3124,-3.3124,-3.3124,-3.3124,-3.3124,-3.4594,-3.4848,-3.3481,-3.4432,-3.5399,-3.6265,-3.5315,-3.5087,-3.5615,-3.4037,-3.3197,-3.3124,-3.3124,-3.3124,0.0,0.0,0.0,0.0,0.0,0.0,-2.0363,0.0,-2.0064,0.0,0.0,0.0,0.0,0.0,0.0,0.0,0.0,0.0,0.0,0.0,0.0,0.0,0.0,0.0,0.0,0.0,0.0,0.0,-2.6075,-2.6325,-2.738,-2.8427,-2.9011,-2.9011,-2.9983,-3.0507,-3.0507,-3.1152,-3.1511,-3.1511,-3.1511,-3.1511,-3.1511,-3.1511,-3.1511,-3.157,-3.2916,-3.3392,-3.3296,-3.4534,-3.4883,-3.4664,-3.4481,-3.4414,-3.4574,-3.5956,-3.6387,-3.6489,-3.7767,-3.8202,-3.8202,-3.8202,-3.8202,-3.8202,-3.8202,-3.8202,-3.8202,-3.8202,-3.8202,-3.8202,-3.8202,-3.8202,-3.8202,-3.8202,-3.8202,-3.8202,-3.8202,-3.8202,-3.8202,-3.8202,-3.6777,-3.5615,-3.5615,-3.4191,-3.3124,-3.3124,-3.3124,-3.3124,-3.3124,-3.3124,-3.3124,-3.3124,-3.3124,-3.3124,-3.3124,-3.3124,-3.3124,-3.3124,-3.3434,-3.4245,-3.5617,-3.3892,-3.399,-3.6265,-3.481,-3.438,-3.51,-3.4256,-3.3611,-3.3124,-3.3124,-3.3124,-2.3612,0.0,0.0,0.0,0.0,0.0,0.0,0.0,0.0,0.0,0.0,0.0,0.0,0.0,0.0,0.0,0.0,0.0,0.0,0.0,0.0,0.0,0.0,0.0,0.0,0.0,0.0,0.0,0.0,-2.5307,-2.6527,-2.7515,-2.8128,-2.8308,-2.9579,-3.0253,-3.0253,-3.1077,-3.1511,-3.1511,-3.1511,-3.1511,-3.1511,-3.1511,-3.1511,-3.157,-3.2856,-3.33,-3.3234,-3.4371,-3.475,-3.4597,-3.4448,-3.4414,-3.4574,-3.5991,-3.6422,-3.6489,-3.7767,-3.8202,-3.8202,-3.8202,-3.8202,-3.8202,-3.8202,-3.8202,-3.8202,-3.8202,-3.8202,-3.8202,-3.8202,-3.8202,-3.8202,-3.8202,-3.8202,-3.8202,-3.8202,-3.8202,-3.8202,-3.8202,-3.6777,-3.5615,-3.5615,-3.4191,-3.3124,-3.3124,-3.3124,-3.3124,-3.3124,-3.3124,-3.3124,-3.3124,-3.3124,-3.3124,-3.3124,-3.3124,-3.3313,-3.3755,-3.2963,-3.3815,-3.6831,-3.3714,-3.3093,-3.5587,-3.4065,-3.3621,-3.4379,-3.3981,-3.3542,-3.3124,-3.3124,-3.3124,0.0,0.0,0.0,-2.2331,0.0,0.0,0.0,0.0,-2.1455,0.0,0.0,0.0,0.0,0.0,0.0,0.0,0.0,0.0,0.0,0.0,0.0,0.0,0.0,0.0,0.0,0.0,0.0,0.0,0.0,0.0,-2.6452,-2.6632,-2.6971,-2.76,-2.8933,-2.9636,-2.9636,-3.0853,-3.1511,-3.1511,-3.1511,-3.1511,-3.1511,-3.1511,-3.1511,-3.157,-3.272,-3.3145,-3.3107,-3.4237,-3.4597,-3.4414,-3.4414,-3.4414,-3.4574,-3.5836,-3.6315,-3.6489,-3.7767,-3.8202,-3.8202,-3.8202,-3.8202,-3.8202,-3.8202,-3.8202,-3.8202,-3.8202,-3.8202,-3.8202,-3.8202,-3.8202,-3.8202,-3.8202,-3.8202,-3.8202,-3.8202,-3.8202,-3.8202,-3.8202,-3.6777,-3.5615,-3.5615,-3.4191,-3.3124,-3.3124,-3.3124,-3.3124,-3.3124,-3.3124,-3.3124,-3.3124,-3.3124,-3.3124,-3.3124,-3.3124,-3.3797,-3.5413,-3.3969,-3.3973,-3.5961,-3.4312,-3.3529,-3.3982,-3.3092,-3.2947,-3.3536,-3.2673,-3.2571,-3.3124,-3.3124,-3.3124,0.0,0.0,-2.5697,-2.329,0.0,0.0,0.0,0.0,0.0,0.0,0.0,0.0,0.0,0.0,0.0,0.0,0.0,0.0,0.0,0.0,0.0,0.0,0.0,0.0,0.0,0.0,0.0,0.0,-2.3069,0.0,0.0,-2.6123,-2.6692,-2.6941,-2.8678,-2.9606,-2.9606,-3.0853,-3.1511,-3.1511,-3.1511,-3.1511,-3.1511,-3.1511,-3.1438,-3.1454,-3.2659,-3.3037,-3.2903,-3.4189,-3.4597,-3.4414,-3.4414,-3.4414,-3.4559,-3.5836,-3.6301,-3.6489,-3.7767,-3.8202,-3.8202,-3.8202,-3.8202,-3.8202,-3.8202,-3.8202,-3.8202,-3.8202,-3.8202,-3.8202,-3.8202,-3.8202,-3.8202,-3.8202,-3.8202,-3.8202,-3.8202,-3.8202,-3.8202,-3.8202,-3.6777,-3.5615,-3.5615,-3.4191,-3.3124,-3.3124,-3.3124,-3.3124,-3.3124,-3.3124,-3.3124,-3.3124,-3.3124,-3.3124,-3.3124,-3.3124,-3.3611,-3.4731,-3.3725,-3.3904,-3.5661,-3.3719,-3.3161,-3.4411,-3.2683,-3.2331,-3.3414,-3.2619,-3.2503,-3.3124,-3.3124,-3.3124,-2.5165,-2.5776,0.0,-2.4038,-2.3761,0.0,-2.1521,0.0,0.0,0.0,0.0,0.0,0.0,0.0,0.0,0.0,0.0,0.0,0.0,0.0,0.0,0.0,0.0,0.0,0.0,0.0,-2.1535,-2.2159,-2.2217,0.0,0.0,0.0,-2.6348,-2.6572,-2.8532,-2.9606,-2.9606,-3.0853,-3.1511,-3.1511,-3.1511,-3.1511,-3.1511,-3.1511,-3.1438,-3.1352,-3.2613,-3.2989,-3.2808,-3.4057,-3.4515,-3.4414,-3.4414,-3.4414,-3.4559,-3.5836,-3.6591,-3.7099,-3.7926,-3.8202,-3.8202,-3.8202,-3.8202,-3.8202,-3.8202,-3.8202,-3.8202,-3.8202,-3.8202,-3.8202,-3.8202,-3.8202,-3.8202,-3.8202,-3.8202,-3.8202,-3.8202,-3.8202,-3.8127,-3.781,-3.6596,-3.5507,-3.5237,-3.4008,-3.3124,-3.3124,-3.3124,-3.3124,-3.3124,-3.3124,-3.3124,-3.3124,-3.3124,-3.3124,-3.3124,-3.3124,-3.3454,-3.4356,-3.3569,-3.3725,-3.5128,-3.3479,-3.2906,-3.3779,-3.2426,-3.1997,-3.2682,-3.2351,-3.2403,-3.278,-3.298,-3.3124]},{"header":{"parameterUnit":"m.s-1","parameterCategory":1,"la1":30.6,"la2":29.2853,"lo1":-89.7004,"lo2":-87.6739,"dy":0.0162,"dx":0.0183,"nx":112,"ny":82,"refTime":"2026-03-06T12:00:00:Z","depth":0,"parameterNumber":3,"parameterNumberName":"V-component_of_WINDS"},"data":[0.0,0.0,0.0,0.0,0.0,0.0,0.0,0.0,0.0,0.0,0.0,0.0,0.0,0.0,0.0,0.0,0.0,0.0,0.0,0.0,0.0,0.0,0.0,0.0,0.0,0.0,0.0,0.0,0.0,0.0,0.0,0.0,0.0,0.0,0.0,0.0,0.0,0.0,0.0,0.0,0.0,0.0,0.0,0.0,0.0,0.0,0.0,0.0,0.0,0.0,0.0,0.0,0.0,0.0,0.0,0.0,0.0,0.0,0.0,0.0,0.0,0.0,0.0,0.0,0.0,0.0,0.0,0.0,0.0,0.0,0.0,0.0,0.0,0.0,0.0,0.0,0.0,0.0,0.0,0.0,0.0,0.0,0.0,0.0,0.0,0.0,0.0,0.0,0.0,0.0,1.6037,1.6888,1.938,2.0754,2.0223,1.9869,1.8566,1.596,0.0,0.0,0.0,0.0,0.0,0.0,0.0,0.0,0.0,0.0,0.0,0.0,0.0,0.0,0.0,0.0,0.0,0.0,0.0,0.0,0.0,0.0,0.0,0.0,0.0,0.0,0.0,0.0,0.0,0.0,0.0,0.0,0.0,0.0,0.0,0.0,0.0,0.0,0.0,0.0,0.0,0.0,0.0,0.0,0.0,0.0,0.0,0.0,0.0,0.0,0.0,0.0,0.0,0.0,0.0,0.0,0.0,0.0,0.0,0.0,0.0,0.0,0.0,0.0,0.0,0.0,0.0,0.0,0.0,0.0,0.0,0.0,0.0,0.0,0.0,0.0,0.0,0.0,0.0,0.0,0.0,0.0,0.0,0.0,0.0,0.0,0.0,0.0,0.0,0.0,0.0,0.0,0.0,0.0,0.0,0.0,0.0,0.0,0.0,0.0,0.0,0.0,0.0,0.0,1.6848,1.9638,2.0777,2.1123,2.0572,1.9657,1.8169,1.5936,0.0,0.0,0.0,0.0,0.0,0.0,0.0,0.0,0.0,0.0,0.0,0.0,0.0,0.0,0.0,0.0,0.0,0.0,0.0,0.0,0.0,0.0,0.0,0.0,0.0,0.0,0.0,0.0,0.0,0.0,0.0,0.0,0.0,0.0,0.0,0.0,0.0,0.0,0.0,0.0,0.0,0.0,0.0,0.0,0.0,0.0,0.0,0.0,0.0,0.0,0.0,0.0,0.0,0.0,0.0,0.0,0.0,0.0,0.0,0.0,0.0,0.0,0.0,0.0,0.0,0.0,0.0,0.0,0.0,0.0,0.0,0.0,0.0,0.0,0.0,0.0,0.0,0.0,0.0,0.0,0.0,0.0,0.0,0.0,0.0,0.0,0.0,0.0,0.0,0.0,0.0,0.0,0.0,0.0,0.0,0.0,0.0,0.0,0.0,0.0,0.0,0.0,0.0,1.6139,1.7893,1.9953,2.0899,2.1067,2.0237,1.951,1.8173,1.6025,1.4995,0.0,0.0,0.0,0.0,0.0,0.0,0.0,0.0,0.0,0.0,0.0,0.0,0.0,0.0,0.0,0.0,0.0,0.0,0.0,0.0,0.0,0.0,0.0,0.0,0.0,0.0,0.0,0.0,0.0,0.0,0.0,0.0,0.0,0.0,0.0,0.0,0.0,0.0,0.0,0.0,0.0,0.0,0.0,0.0,0.0,0.0,0.0,0.0,0.0,0.0,0.0,0.0,0.0,0.0,0.0,0.0,0.0,0.0,0.0,0.0,0.0,0.0,0.0,0.0,0.0,0.0,0.0,0.0,0.0,0.0,0.0,0.0,0.0,0.0,0.0,0.0,0.0,0.0,0.0,0.0,0.0,0.0,0.0,0.0,0.0,0.0,0.0,0.0,0.0,0.0,0.0,0.0,0.0,0.0,0.0,0.0,0.0,0.0,0.0,0.0,0.0,0.0,1.7545,1.8692,1.9727,2.0612,2.0769,1.992,1.9243,1.8068,1.6181,1.4886,0.0,0.0,0.0,0.0,0.0,0.0,0.0,0.0,0.0,0.0,0.0,0.0,0.0,0.0,0.0,0.0,0.0,0.0,0.0,0.0,0.0,0.0,0.0,0.0,0.0,0.0,0.0,0.0,0.0,0.0,0.0,0.0,0.0,0.0,0.0,0.0,0.0,0.0,0.0,0.0,0.0,0.0,0.0,0.0,0.0,0.0,0.0,0.0,0.0,0.0,0.0,0.0,0.0,0.0,0.0,0.0,0.0,0.0,0.0,0.0,0.0,0.0,0.0,0.0,0.0,0.0,0.0,0.0,0.0,0.0,0.0,0.0,0.0,0.0,0.0,0.0,0.0,0.0,0.0,0.0,0.0,0.0,0.0,0.0,0.0,0.0,0.0,0.0,0.0,0.0,0.0,0.0,0.0,0.0,0.0,0.0,0.0,0.0,0.0,0.0,0.0,0.0,1.7531,1.8937,1.9876,2.0168,2.0208,1.9998,1.8691,1.7406,1.6274,1.4202,0.0,0.0,0.0,0.0,0.0,0.0,0.0,0.0,0.0,0.0,0.0,0.0,0.0,0.0,0.0,0.0,0.0,0.0,0.0,0.0,0.0,0.0,0.0,0.0,0.0,0.0,0.0,0.0,0.0,0.0,0.0,0.0,0.0,0.0,0.0,0.0,0.0,0.0,0.0,0.0,0.0,0.0,0.0,0.0,0.0,0.0,0.0,0.0,0.0,0.0,0.0,0.0,0.0,0.0,0.0,0.0,0.0,0.0,0.0,0.0,0.0,0.0,0.0,0.0,0.0,0.0,0.0,0.0,0.0,0.0,0.0,0.0,0.0,0.0,0.0,0.0,0.0,0.0,0.0,0.0,0.0,0.0,0.0,0.0,0.0,0.0,0.0,0.0,0.0,0.0,0.0,0.0,0.0,0.0,0.0,0.0,0.0,0.0,0.0,0.0,0.0,0.0,1.7087,1.8473,0.0,1.9969,2.003,1.9658,1.888,1.767,1.5892,0.0,0.0,0.0,0.0,0.0,0.0,0.0,0.0,0.0,0.0,0.0,0.0,0.0,0.0,0.0,0.0,0.0,0.0,0.0,0.0,0.0,0.0,0.0,0.0,0.0,0.0,0.0,0.0,0.0,0.0,0.0,0.0,0.0,0.0,0.0,0.0,0.0,0.0,0.0,0.0,0.0,0.0,0.0,0.0,0.0,0.0,0.0,0.0,0.0,0.0,0.0,0.0,0.0,0.0,0.0,0.0,0.0,0.0,0.0,0.0,0.0,0.0,0.0,0.0,0.0,0.0,0.0,0.0,0.0,0.0,0.0,0.0,0.0,0.0,0.0,0.0,0.0,0.0,0.0,0.0,0.0,0.0,0.0,0.0,0.0,0.0,0.0,0.0,0.0,0.0,0.0,0.0,0.0,0.0,0.0,0.0,0.0,0.0,0.0,0.0,0.0,0.0,1.5447,1.7004,1.8326,0.0,1.982,1.992,1.9497,1.8784,1.7551,1.5687,0.0,0.0,0.0,0.0,0.0,0.0,0.0,0.0,0.0,0.0,0.0,0.0,0.0,0.0,0.0,0.0,0.0,0.0,0.0,0.0,0.0,0.0,0.0,0.0,0.0,0.0,0.0,0.0,0.0,0.0,0.0,0.0,0.0,0.0,0.0,0.0,0.0,0.0,0.0,0.0,0.0,0.0,0.0,0.0,0.0,0.0,0.0,0.0,0.0,0.0,0.0,0.0,0.0,0.0,0.0,0.0,0.0,0.0,0.0,0.0,0.0,0.0,0.0,0.0,0.0,0.0,0.0,0.0,0.0,0.0,0.0,0.0,0.0,0.0,0.0,0.0,0.0,0.0,0.0,0.0,0.0,0.0,0.0,0.0,0.0,0.0,0.0,0.0,0.0,0.0,0.0,0.0,0.0,0.0,0.0,0.0,0.0,0.0,0.0,0.0,0.0,0.0,1.6106,1.7455,1.857,1.9492,1.9734,1.9759,1.9617,1.8258,1.692,0.0,0.0,0.0,0.0,0.0,0.0,0.0,0.0,0.0,0.0,0.0,0.0,0.0,0.0,0.0,0.0,0.0,0.0,0.0,0.0,0.0,0.0,0.0,0.0,0.0,0.0,0.0,0.0,0.0,0.0,0.0,0.0,0.0,0.0,0.0,0.0,0.0,0.0,0.0,0.0,0.0,0.0,0.0,0.0,0.0,0.0,0.0,0.0,0.0,0.0,0.0,0.0,0.0,0.0,0.0,0.0,0.0,0.0,0.0,0.0,0.0,0.0,0.0,0.0,0.0,0.0,0.0,0.0,0.0,0.0,0.0,0.0,0.0,0.0,0.0,0.0,0.0,0.0,0.0,0.0,0.0,0.0,0.0,0.0,0.0,0.0,0.0,0.0,0.0,0.0,0.0,0.0,0.0,0.0,0.0,0.0,0.0,0.0,0.0,0.0,0.0,0.0,0.0,1.6141,1.7478,1.8594,1.9647,1.9773,1.9773,1.9734,1.8644,1.7149,1.5261,0.0,0.0,0.0,0.0,0.0,0.0,0.0,0.0,0.0,0.0,0.0,0.0,0.0,0.0,0.0,0.0,0.0,0.0,0.0,0.0,0.0,0.0,0.0,0.0,0.0,0.0,0.0,0.0,0.0,0.0,0.0,0.0,0.0,0.0,0.0,0.0,0.0,0.0,0.0,0.0,0.0,0.0,0.0,0.0,0.0,0.0,0.0,0.0,0.0,0.0,0.0,0.0,0.0,0.0,0.0,0.0,0.0,0.0,0.0,0.0,0.0,0.0,0.0,0.0,0.0,0.0,0.0,0.0,0.0,0.0,0.0,0.0,0.0,0.0,0.0,0.0,0.0,0.0,0.0,0.0,0.0,0.0,0.0,0.0,0.0,0.0,0.0,0.0,0.0,0.0,0.0,0.0,0.0,0.0,0.0,0.0,0.0,0.0,0.0,0.0,0.0,0.0,1.6149,1.7501,1.8618,1.9685,1.9798,1.9798,1.9798,1.8819,1.735,1.5349,0.0,0.0,0.0,0.0,0.0,0.0,0.0,0.0,0.0,0.0,0.0,0.0,0.0,0.0,0.0,0.0,0.0,0.0,0.0,0.0,0.0,0.0,0.0,0.0,0.0,0.0,0.0,0.0,0.0,0.0,0.0,0.0,0.0,0.0,0.0,0.0,0.0,0.0,0.0,0.0,0.0,0.0,0.0,0.0,0.0,0.0,0.0,0.0,0.0,0.0,0.0,0.0,0.0,0.0,0.0,0.0,0.0,0.0,0.0,0.0,0.0,0.0,0.0,0.0,0.0,0.0,0.0,0.0,0.0,0.0,0.0,0.0,0.0,0.0,0.0,0.0,0.0,0.0,0.0,0.0,0.0,0.0,0.0,0.0,0.0,0.0,0.0,0.0,0.0,0.0,0.0,0.0,0.0,0.0,0.0,0.0,0.0,0.0,0.0,0.0,0.0,0.0,1.6191,1.7619,1.8765,1.9788,1.994,1.9965,1.9978,1.8977,1.766,1.6033,0.0,0.0,0.0,0.0,0.0,0.0,0.0,0.0,0.0,0.0,0.0,0.0,0.0,0.0,0.0,0.0,0.0,0.0,0.0,0.0,0.0,0.0,0.0,0.0,0.0,0.0,0.0,0.0,0.0,0.0,0.0,0.0,0.0,0.0,0.0,0.0,0.0,0.0,0.0,0.0,0.0,0.0,0.0,0.0,0.0,0.0,0.0,0.0,0.0,0.0,0.0,0.0,0.0,0.0,0.0,0.0,0.0,0.0,0.0,0.0,1.6211,0.0,0.0,0.0,0.0,0.0,0.0,0.0,0.0,0.0,0.0,0.0,0.0,0.0,0.0,0.0,0.0,0.0,0.0,0.0,0.0,0.0,0.0,0.0,0.0,0.0,0.0,0.0,0.0,0.0,0.0,0.0,0.0,0.0,0.0,0.0,0.0,0.0,0.0,0.0,0.0,0.0,1.6506,1.8539,1.9969,2.0531,2.1002,2.1256,2.121,2.0188,1.8987,1.7658,1.4836,0.0,0.0,0.0,0.0,0.0,0.0,0.0,0.0,0.0,0.0,0.0,0.0,0.0,0.0,0.0,0.0,0.0,0.0,0.0,0.0,0.0,0.0,0.0,0.0,0.0,0.0,0.0,0.0,0.0,0.0,0.0,0.0,0.0,0.0,0.0,0.0,0.0,0.0,0.0,0.0,0.0,0.0,0.0,0.0,0.0,0.0,0.0,0.0,0.0,0.0,0.0,0.0,0.0,0.0,0.0,0.0,0.0,0.0,0.0,0.0,1.82,0.0,0.0,0.0,0.0,0.0,0.0,0.0,0.0,0.0,0.0,0.0,0.0,0.0,0.0,0.0,0.0,0.0,0.0,0.0,0.0,0.0,0.0,0.0,0.0,0.0,0.0,0.0,0.0,0.0,0.0,0.0,0.0,0.0,0.0,0.0,0.0,0.0,0.0,0.0,0.0,1.6933,1.9154,2.0727,2.1191,2.152,2.1687,2.1653,2.0583,1.9514,1.863,1.6138,0.0,0.0,0.0,0.0,0.0,0.0,0.0,0.0,0.0,0.0,0.0,0.0,0.0,0.0,0.0,0.0,0.0,0.0,0.0,0.0,0.0,0.0,0.0,0.0,0.0,0.0,0.0,0.0,0.0,0.0,0.0,0.0,0.0,0.0,0.0,0.0,0.0,0.0,0.0,0.0,0.0,0.0,0.0,0.0,0.0,0.0,0.0,0.0,0.0,0.0,0.0,0.0,0.0,2.1729,2.2299,2.2596,2.2862,2.3302,2.3704,2.1833,2.1508,2.2227,2.0617,0.0,0.0,0.0,0.0,0.0,0.0,0.0,0.0,0.0,0.0,0.0,0.0,0.0,0.0,0.0,0.0,0.0,0.0,0.0,0.0,0.0,0.0,0.0,0.0,2.0354,2.0118,0.0,0.0,0.0,0.0,0.0,0.0,0.0,0.0,0.0,0.0,0.0,0.0,1.7645,1.9874,2.1415,2.182,2.1969,2.2039,2.2016,2.0918,2.0014,1.9549,1.743,1.5886,0.0,0.0,0.0,0.0,0.0,0.0,0.0,0.0,0.0,0.0,0.0,0.0,0.0,0.0,0.0,0.0,0.0,0.0,0.0,0.0,0.0,0.0,0.0,0.0,0.0,0.0,0.0,0.0,0.0,0.0,0.0,0.0,1.2613,1.3733,0.0,0.0,0.0,0.0,0.0,0.0,0.0,0.0,0.0,0.0,0.0,0.0,0.0,2.0526,2.1719,2.2919,2.3532,2.3595,2.4679,2.5227,2.5274,2.5349,2.568,2.6203,2.5905,0.0,2.3557,2.2339,0.0,0.0,0.0,0.0,0.0,0.0,0.0,0.0,0.0,0.0,0.0,0.0,0.0,0.0,0.0,0.0,0.0,0.0,0.0,0.0,0.0,0.0,2.2489,2.2673,2.3176,2.3322,0.0,1.9586,1.6927,1.5693,1.4985,0.0,0.0,0.0,0.0,0.0,0.0,0.0,1.8979,2.1205,2.263,2.2566,2.3054,2.3334,2.326,2.2159,2.1395,2.1191,1.8782,1.7307,1.715,1.477,0.0,0.0,0.0,0.0,0.0,0.0,0.0,0.0,0.0,0.0,0.0,0.0,0.0,0.0,0.0,0.0,0.0,0.0,0.0,0.0,0.0,0.0,0.0,0.0,0.0,0.0,0.0,0.0,0.0,1.2455,1.4172,1.4892,1.5751,1.6049,0.0,0.0,0.0,0.0,0.0,0.0,0.0,0.0,0.0,2.1699,2.225,2.2946,2.3838,2.4988,2.555,2.5563,2.6059,2.6465,2.6746,2.6452,2.6608,2.7157,2.7157,2.6681,2.5834,2.4688,2.3475,2.2185,0.0,0.0,0.0,0.0,2.0903,2.1427,2.2162,2.2215,0.0,2.1657,0.0,0.0,0.0,0.0,0.0,0.0,0.0,0.0,0.0,0.0,0.0,2.4677,2.5139,2.5453,2.5214,2.3553,2.1291,0.0,1.7824,1.6757,1.4101,0.0,0.0,0.0,0.0,1.9407,2.0289,2.2103,2.3268,2.3209,2.3443,2.3439,2.3088,2.2213,2.151,2.1078,1.9621,1.8589,1.818,1.6709,1.5399,0.0,0.0,0.0,0.0,0.0,0.0,0.0,0.0,0.0,0.0,0.0,0.0,0.0,0.0,0.0,0.0,0.0,0.0,0.0,0.0,0.0,0.0,0.0,0.0,0.0,0.0,0.0,0.0,1.4154,1.5962,1.6442,1.7922,1.8456,0.0,0.0,0.0,0.0,0.0,0.0,2.1485,2.1734,2.2506,2.406,2.4543,2.504,2.5615,2.6465,2.6994,2.7138,2.7138,2.7419,2.7968,2.7536,2.7575,2.7947,2.7947,2.7947,2.7863,2.6393,2.5145,2.4021,2.3184,2.2587,2.2392,2.3458,2.4119,2.4693,2.5838,2.5962,2.5494,2.4819,0.0,2.2376,2.1295,0.0,0.0,0.0,0.0,2.3123,2.4548,2.5296,2.5806,2.6432,2.6713,2.6866,2.6866,2.6318,2.4787,0.0,2.0592,1.9685,1.6698,0.0,0.0,0.0,0.0,2.0868,2.1506,2.2759,2.3595,2.3595,2.346,2.3197,2.2733,2.2104,2.141,2.0733,2.0228,1.9645,1.8986,1.8311,1.7116,1.5321,0.0,0.0,0.0,0.0,0.0,0.0,0.0,0.0,0.0,0.0,0.0,0.0,0.0,0.0,0.0,0.0,0.0,0.0,0.0,0.0,0.0,0.0,0.0,0.0,0.0,0.0,0.0,0.0,0.0,1.8882,2.0353,0.0,0.0,0.0,0.0,2.0543,2.2021,2.3221,2.3903,2.4452,2.5319,2.6497,2.6562,2.6817,2.7359,2.7425,2.7758,2.8328,2.8328,2.8643,2.9231,2.9192,2.9192,2.9231,2.9231,2.9231,2.9013,2.6752,2.6086,2.6366,2.4674,2.5037,2.6351,2.5377,2.609,2.7511,2.7089,2.6933,2.706,2.8072,2.7215,2.5602,2.4714,2.4147,0.0,0.0,2.6314,2.6792,2.8764,2.8371,2.7649,2.8312,2.8008,2.754,2.754,2.7031,2.581,0.0,2.3142,2.2535,1.9818,0.0,2.0391,2.0045,2.0927,2.1874,2.2547,2.3191,2.3595,2.3595,2.3092,2.2733,2.2703,2.2104,2.141,2.0733,2.0658,2.0363,1.9678,1.9001,1.7997,1.6622,1.4724,0.0,0.0,0.0,0.0,0.0,0.0,0.0,0.0,0.0,0.0,0.0,0.0,0.0,0.0,0.0,0.0,0.0,0.0,0.0,0.0,0.0,0.0,0.0,0.0,0.0,0.0,0.0,0.0,2.1111,2.2731,0.0,2.2112,2.2699,2.3106,2.2897,2.3785,2.4753,2.5707,2.5986,2.6457,2.7196,2.7575,2.791,2.8072,2.8464,2.8765,2.8996,2.8996,2.91,2.931,2.931,2.931,2.931,2.931,2.931,2.9258,2.8386,2.7719,2.7157,2.6524,2.6512,2.6835,2.7268,2.8092,2.9045,2.9217,2.9016,2.8641,2.8196,2.7869,2.7545,2.6785,2.6742,2.7085,2.7703,2.8188,2.8708,2.9412,2.9262,2.8843,2.8652,2.8412,2.8139,2.769,2.7405,2.6862,2.5583,2.4723,2.3687,2.1895,2.2129,2.2252,2.1317,2.2172,2.3011,2.3236,2.346,2.3595,2.3595,2.34,2.2936,2.2134,2.2239,2.1699,2.0154,2.0449,2.0408,1.9738,1.9519,1.8996,1.8128,1.6638,1.5079,0.0,0.0,0.0,0.0,0.0,0.0,0.0,0.0,0.0,0.0,0.0,0.0,0.0,0.0,0.0,0.0,0.0,0.0,0.0,0.0,0.0,0.0,0.0,0.0,0.0,0.0,2.2178,2.2875,2.4503,2.5123,2.3916,2.4517,2.4975,2.4975,2.5511,2.6164,2.6922,2.7177,2.7452,2.7798,2.8386,2.8686,2.8686,2.9114,2.9379,2.9575,2.9575,2.9666,2.9849,2.9849,2.9849,2.9849,2.9849,2.9849,2.9849,2.9849,2.9274,2.8351,2.8203,2.7927,2.7785,2.8633,2.9385,3.0046,3.0631,3.0588,3.0117,2.9002,2.8924,2.9116,2.8483,2.8603,2.8981,2.9175,2.9564,2.9953,3.0178,2.9909,2.9502,2.9026,2.8592,2.8128,2.7705,2.76,2.749,2.708,2.6072,2.4859,2.3565,2.367,2.3655,2.2817,2.3206,2.3684,2.3924,2.3744,2.3595,2.3595,2.3415,2.2862,2.1784,2.2313,2.1959,2.0209,2.0719,2.0779,2.0158,1.9743,1.9235,1.8619,1.7106,1.589,1.5036,0.0,0.0,0.0,0.0,0.0,0.0,0.0,0.0,0.0,0.0,0.0,0.0,0.0,0.0,0.0,0.0,0.0,0.0,0.0,0.0,0.0,0.0,0.0,2.0791,2.2714,2.4148,2.4174,2.5694,2.6327,2.5214,2.6117,2.6784,2.6784,2.7262,2.7555,2.7555,2.8111,2.8446,2.8446,2.9022,2.9301,2.9301,2.9327,2.9614,3.0127,3.0127,3.0451,3.0986,3.0986,3.0986,3.0986,3.0986,3.0986,3.0986,3.0986,3.066,3.0061,2.9536,2.9374,2.9422,2.9422,2.9871,3.0583,3.1249,3.1482,3.1362,3.0746,3.0537,3.0417,2.9846,2.9666,2.9786,3.0372,3.0537,3.0687,3.1331,3.0597,2.9666,2.9636,2.8618,2.766,2.763,2.7615,2.765,2.7765,2.7165,2.6213,2.4889,2.4634,2.4605,2.4605,2.4044,0.0,2.4485,2.4014,2.361,2.3625,2.3122,2.2493,2.1814,2.2388,2.2219,2.0978,2.1476,2.156,2.1022,1.9732,1.8715,1.8047,1.6088,1.5112,1.5139,0.0,0.0,0.0,0.0,0.0,0.0,0.0,0.0,0.0,0.0,0.0,0.0,0.0,0.0,0.0,0.0,0.0,0.0,0.0,0.0,0.0,2.1015,2.2505,2.2505,2.4122,2.5511,2.5916,2.7151,2.7818,2.7504,2.8158,2.8603,2.8603,2.8712,2.8804,2.8804,2.8948,2.9039,2.9039,2.9601,2.9865,2.9865,3.0307,3.0594,3.0751,3.0751,3.083,3.0986,3.0986,3.0986,3.0986,3.0986,3.0986,3.0986,3.0986,3.0895,3.0699,3.0124,2.9949,3.0038,3.0038,3.0199,3.0523,3.1176,3.1128,3.0807,3.1127,3.1227,3.1197,3.1017,3.0972,3.1002,3.1182,3.1227,3.1271,3.1451,3.1241,3.0866,3.0372,2.9651,2.8933,2.8427,2.801,2.7765,2.779,2.7705,2.7346,2.6484,2.5531,2.4873,2.4769,2.4175,0.0,2.3849,2.3714,2.3789,2.4276,2.4171,2.3819,2.3131,2.3779,2.3257,2.0975,2.1538,2.1652,2.1022,2.0243,1.9535,1.8944,1.7869,1.6842,0.0,0.0,0.0,0.0,0.0,0.0,0.0,0.0,0.0,0.0,0.0,0.0,0.0,0.0,0.0,0.0,0.0,0.0,0.0,0.0,0.0,0.0,2.2805,2.4387,2.4635,2.5537,2.6478,2.7321,2.8014,2.8512,2.876,2.91,2.931,2.931,2.931,2.931,2.931,2.951,2.964,2.964,3.0189,3.049,3.049,3.0817,3.0986,3.0986,3.0986,3.0986,3.0986,3.0986,3.0986,0.0,3.0986,3.0986,3.0986,3.0986,3.0986,0.0,0.0,0.0,0.0,0.0,3.0526,3.0876,3.1274,3.1358,3.1353,3.1469,3.1511,3.1511,3.1511,3.1511,3.1511,3.1511,3.1511,3.1511,3.1511,3.1286,3.0972,3.0597,3.0028,2.9502,2.9086,2.8591,2.8238,2.8288,2.8187,0.0,2.7642,2.661,2.5796,2.5658,2.507,2.4603,2.447,2.4208,2.4073,2.4156,2.4171,2.3924,2.3287,2.3943,0.0,0.0,0.0,2.1938,2.0755,2.0365,0.0,0.0,0.0,0.0,0.0,0.0,0.0,0.0,1.6386,1.6507,0.0,0.0,0.0,0.0,0.0,0.0,0.0,0.0,0.0,0.0,0.0,0.0,0.0,0.0,0.0,0.0,2.4543,2.619,2.67,2.6798,2.7203,2.8289,2.8472,2.876,2.9314,2.9467,2.9506,2.9506,2.9506,2.9506,2.9506,0.0,0.0,0.0,0.0,3.0986,3.0986,3.0986,3.0986,3.0986,3.0986,3.0986,3.0986,3.0986,3.0986,3.0986,3.0986,3.0986,3.0986,3.0986,3.0986,3.0986,3.0986,3.0673,3.02,3.0351,3.074,3.1249,3.1336,0.0,0.0,3.1575,3.1367,3.1352,3.1307,3.1322,3.138,3.138,3.1438,3.1511,3.1511,3.1047,3.0612,3.0612,3.0148,2.9711,2.9711,2.9294,2.8953,2.8996,2.8646,2.8351,2.8387,2.766,2.6996,2.6868,2.6255,2.5794,2.5646,2.5091,2.4507,2.3894,0.0,0.0,2.2993,2.3565,2.367,2.3046,2.3086,2.2344,2.0595,2.0613,2.0613,2.0535,2.0535,2.1103,2.2305,2.2305,2.2043,2.1442,1.8346,1.8161,0.0,0.0,0.0,0.0,0.0,0.0,0.0,0.0,0.0,0.0,0.0,0.0,0.0,0.0,0.0,2.4298,2.6007,2.7203,2.732,2.7333,2.7615,2.8328,2.8852,2.9327,2.9879,3.0385,3.066,3.066,3.066,3.066,3.066,3.0764,3.083,3.083,3.0934,3.0986,3.0986,3.0986,3.0986,3.0986,0.0,0.0,3.0986,3.0986,3.0986,3.0986,3.0986,3.0986,3.0986,3.0986,3.0986,3.0986,3.0986,3.0921,3.0841,3.0871,3.0639,3.0419,3.0963,3.0952,3.0704,3.063,3.0608,3.0509,3.0045,3.0269,0.0,3.0673,3.1087,3.1511,3.1511,3.1406,3.1316,3.1316,3.0806,3.0328,3.0328,3.0036,2.9618,2.9113,2.9078,2.8993,2.8504,2.7794,2.7263,2.713,2.6565,2.6032,2.5794,2.5642,2.5484,2.5241,2.5318,2.5108,2.4461,2.4674,2.4347,2.3163,2.3187,2.2851,2.1951,2.2424,2.2474,2.192,2.192,2.2043,2.2305,2.2305,2.2501,2.2871,2.167,2.1119,0.0,0.0,0.0,0.0,0.0,0.0,0.0,0.0,0.0,0.0,0.0,2.0427,2.2467,0.0,2.4909,2.6059,2.6942,2.749,2.749,2.749,2.785,2.8726,2.914,2.9614,3.0477,3.0817,3.0986,3.0986,3.0986,3.0986,3.0986,3.0986,3.0986,3.0986,3.0986,3.0986,3.0986,3.0986,3.0986,3.0986,3.0986,3.0986,3.0986,3.0986,3.0986,3.0986,3.0986,3.0986,3.0986,3.0986,3.0986,3.0986,3.0986,3.1061,3.1123,3.1061,3.1125,3.1257,3.1137,3.119,3.1226,3.0936,3.0858,3.0867,3.0941,3.1202,3.1455,3.1483,3.1738,3.1914,3.1585,3.1511,3.1539,3.1626,3.1399,3.1172,3.1242,3.0894,3.0495,3.016,2.972,2.9279,2.8965,2.835,2.7841,2.7706,2.743,2.7008,2.6455,2.6386,2.6242,2.5854,2.5871,2.5621,2.4956,2.4746,2.4371,2.3738,2.3754,2.3502,2.2825,2.3117,2.3132,2.2809,2.2794,2.2963,2.3302,2.3302,2.3471,2.3794,2.3456,2.3117,0.0,0.0,0.0,0.0,0.0,0.0,0.0,1.8127,1.8921,2.1354,2.2218,2.3119,2.5136,2.5929,2.6582,2.7359,2.7594,2.762,2.7516,2.749,2.7915,2.9022,2.9244,2.968,3.0725,3.0921,3.0986,3.0986,3.0986,3.0986,3.0986,3.0986,3.0986,3.0986,3.0986,3.0986,3.0986,3.0986,3.0986,3.0986,3.0986,3.0986,3.0986,3.0986,3.0986,3.0986,3.0986,3.0986,3.0986,3.0986,3.0986,3.0986,3.0986,3.1123,3.1272,3.1061,3.1482,3.2024,3.1308,3.1488,3.1868,3.126,3.1066,3.1154,3.1641,3.1907,3.2019,3.2248,3.2287,3.2199,3.1795,3.1629,3.1597,3.1756,3.1813,3.187,3.1968,3.1668,3.135,3.1213,3.0431,2.975,2.9602,2.9058,2.8501,2.8275,2.8235,2.7987,2.7326,2.7242,2.6959,2.6267,2.6214,2.5963,2.5331,2.4747,2.4449,2.4481,2.4379,2.4071,2.3517,2.3486,2.3486,2.3486,2.3486,2.3763,2.4302,2.4302,2.4302,2.4302,2.4302,2.4302,1.8344,1.7542,1.7268,1.8174,1.8166,1.8976,0.0,2.2885,2.261,2.545,2.6078,2.6334,2.7059,2.7706,2.7968,2.7555,2.7954,2.8111,2.7568,2.749,2.7771,2.8399,2.8948,2.9536,3.0127,3.0699,3.0986,3.0986,3.0986,3.0986,3.0986,3.0986,3.0986,3.0986,3.0986,3.0986,3.0986,3.0986,3.0986,3.0986,3.0986,3.0986,3.0986,3.0986,3.0986,3.0986,3.0986,3.0986,3.0986,3.0986,3.0986,3.0986,3.0986,3.1123,3.1272,3.1061,3.1061,3.1161,3.1057,3.1068,3.1037,3.0434,3.0237,3.0145,2.9773,3.0054,3.0664,3.1349,3.1524,3.1652,3.2229,3.2076,3.1756,3.1799,3.1898,3.1968,3.1996,3.2061,3.19,3.1304,3.1194,3.0982,3.0386,2.9725,2.9064,2.8464,2.8372,2.8293,2.8079,2.8064,2.7756,2.6974,2.6984,2.6842,2.6273,2.5588,2.5189,2.5189,2.4641,2.4271,2.4194,2.4194,2.4194,2.4194,2.4194,2.4241,2.4302,2.4302,2.4302,2.4302,2.4302,2.4302,2.0322,2.0124,2.0219,2.0363,2.1015,2.2113,2.4034,2.4194,2.4534,2.6713,2.717,2.7549,2.8782,2.8686,2.8412,2.8529,2.8177,2.7798,2.7529,2.749,2.7581,2.7863,2.8399,2.9118,3.0009,3.0309,3.062,3.096,3.0986,3.0986,3.0986,3.0986,3.0986,3.0986,3.0986,3.0986,3.0986,3.0986,3.0986,3.0986,3.0986,3.0986,3.0986,3.0986,3.0986,3.0986,3.0986,3.0986,3.0986,3.0986,3.0986,3.0986,3.0986,3.1061,3.1123,3.1024,3.1061,3.1161,3.1061,3.1099,3.1121,3.0884,3.0806,3.084,3.1047,3.158,3.2227,3.2502,3.2931,3.3299,3.3276,3.278,3.2356,3.2573,3.2355,3.215,3.2219,3.2274,3.2238,3.1946,3.1632,3.1305,3.1028,3.0443,2.9879,2.9602,2.8904,2.8372,2.8323,2.8323,2.8192,2.7852,2.7517,2.7226,2.6995,2.6334,2.5949,2.5949,2.5672,2.5518,2.5518,2.5465,2.5465,2.5518,2.5518,2.5503,2.545,2.5503,2.5518,2.5518,2.5465,2.5465,2.1455,2.1836,2.2375,2.2256,2.3302,2.4439,2.4753,2.5175,2.5908,2.7445,2.7771,2.8116,2.9382,2.9091,2.866,2.8778,2.8216,2.7673,2.7516,2.7469,2.7469,2.749,2.7855,2.8508,2.9513,2.9905,3.027,3.0725,3.0895,3.0986,3.0986,3.0986,3.0986,3.0986,3.0986,3.0986,3.0986,3.0986,3.0986,3.0986,3.1143,3.1143,3.0986,3.0986,3.0986,3.0986,3.0986,3.0986,3.0986,3.0986,3.0986,3.0986,3.0986,3.0986,3.1024,3.1061,3.1123,3.1198,3.1061,3.1123,3.1272,3.1235,3.1235,3.1384,3.1873,3.2533,3.3164,3.3374,3.3856,3.4306,3.4105,3.3547,3.3123,3.3358,3.2955,3.255,3.2647,3.2521,3.2398,3.2398,3.1997,3.1686,3.1686,3.112,3.0689,3.0689,2.9704,2.8864,2.8704,2.8519,2.8411,2.8411,2.7965,2.7673,2.7673,2.7057,2.6695,2.6695,2.651,2.6402,2.6402,2.6349,2.6349,2.6402,2.6402,2.6364,2.6296,2.6349,2.638,2.6402,2.6349,2.6457,2.1275,2.1849,2.2675,2.3744,2.4491,2.5267,2.6379,2.6641,2.6981,2.8111,2.8381,2.8407,2.8459,2.8917,2.8882,2.7738,2.802,2.8164,2.7568,2.7403,2.7335,2.7503,2.7416,2.7629,0.0,2.947,3.0113,3.0127,3.0673,3.0986,3.0986,3.0986,3.0986,3.0986,3.0986,3.0986,3.0986,3.0986,3.0986,3.0999,3.151,3.1484,3.0986,3.0986,3.0986,3.0986,3.0986,3.0986,3.0986,3.0986,3.0986,3.0986,3.0986,3.0986,3.1024,3.1235,3.1161,3.1024,3.0986,3.1123,3.1272,3.1061,3.1123,3.1272,3.1099,3.1579,3.2326,3.3234,3.346,3.3641,3.4444,3.4318,3.3955,3.3984,3.3658,3.3367,3.3367,3.2859,3.2398,3.2398,3.2382,3.2367,3.2367,3.1797,3.1378,3.1378,3.0782,3.0094,2.9433,2.8812,2.8411,2.8411,2.8381,2.8381,2.8381,2.775,2.7365,2.7365,2.6749,2.6402,2.6402,2.6402,2.6402,2.6402,2.6402,2.6364,2.6296,2.6296,2.6349,2.6402,2.6402,2.6734,2.1979,2.3052,2.4295,2.5053,2.568,2.6327,2.7066,2.7236,2.732,2.7611,2.7743,2.779,2.7689,2.7913,2.796,2.7555,2.7659,2.7745,2.7529,2.7469,2.7469,2.749,2.7469,0.0,0.0,0.0,0.0,3.0035,3.0283,3.0594,3.096,3.0986,3.0986,3.0986,3.0986,3.0986,3.0986,3.0986,3.1169,3.1523,3.2136,3.2306,3.211,3.1731,3.151,3.1497,3.1143,3.0986,3.0986,3.0986,3.0986,3.0986,3.0986,3.0986,3.1024,3.1099,3.1123,3.1211,3.1373,3.1447,3.1485,3.141,3.136,3.1272,3.1235,3.1859,3.2755,3.3332,3.41,3.4877,3.5546,3.5247,3.482,3.4941,3.4555,3.4135,3.4135,3.3567,3.3059,3.3059,3.269,3.2398,3.2398,3.2198,3.1905,3.1486,3.0458,2.9648,2.9417,2.8827,2.8411,2.8411,2.8411,2.8411,2.8411,2.8196,2.8057,2.8057,2.7857,2.7734,2.7734,2.7734,2.7734,2.7734,2.7734,2.7719,2.768,2.768,2.7703,2.7734,2.7734,2.7857,2.3104,2.4285,2.5458,2.6211,2.6713,2.7079,2.7411,2.73,2.7077,2.6991,2.672,2.6466,2.6382,2.6511,2.6674,2.685,2.7059,2.7301,2.7464,2.7469,2.7469,2.749,2.7639,2.7735,0.0,0.0,0.0,2.9771,3.0202,3.0594,3.096,3.0986,3.0986,3.0986,3.0986,3.0986,3.0986,3.1196,3.1575,3.2111,3.2319,3.2489,3.2659,3.1888,3.1602,3.1771,3.1235,3.0986,3.0986,3.0986,3.0986,3.0986,3.0986,3.0986,3.1024,3.1099,3.1198,3.131,3.1434,3.1522,3.1609,3.1522,3.1397,3.131,3.131,3.1969,3.284,3.3492,3.4413,3.5367,3.6038,3.5875,3.5584,3.5738,3.5292,3.4874,3.4874,3.4305,3.3706,3.346,3.3044,3.2675,3.2428,3.2398,3.2244,3.1813,3.0812,3.0043,2.9787,2.9371,2.9002,2.8796,2.8765,2.8673,2.8427,2.8411,2.8411,2.8411,2.8411,2.8411,2.8411,2.8411,2.8411,2.8411,2.8411,2.8411,2.8411,2.8411,2.8411,2.8411,2.8411,2.8411,2.4566,2.5511,2.6224,2.7281,2.7542,2.7529,2.743,2.6862,2.6324,2.6259,2.5379,2.4589,2.4538,2.4754,2.5136,2.561,2.6269,2.6915,2.7464,2.7442,2.7421,2.7581,2.7928,2.8231,2.8425,0.0,0.0,2.9327,0.0,3.096,3.0986,3.0986,3.0986,3.0986,3.0986,3.0986,3.0986,3.151,3.2111,3.2725,3.2124,3.2137,3.2698,3.1548,3.1326,3.1771,3.1235,3.0986,3.0986,3.0986,3.0986,3.0986,3.0986,3.0986,3.1024,3.1198,3.1272,3.131,3.131,3.1434,3.1559,3.1347,3.131,3.1272,3.131,3.1813,3.2583,3.3685,3.4413,3.5073,3.5975,3.6211,3.6211,3.6211,3.5891,3.5568,3.5568,3.5028,3.4351,3.3644,3.346,3.3198,3.2552,3.2413,3.2398,3.2398,3.1844,3.1197,3.054,3.0417,3.0156,2.951,2.9433,2.9196,2.8565,2.8504,2.8488,2.8458,2.8458,2.8442,2.8411,2.8411,2.8411,2.8411,2.8411,2.8411,2.8411,2.8411,2.8411,2.8411,2.8411,2.8411,2.5858,2.7301,2.8325,2.801,2.7937,2.7717,2.6742,2.6032,2.53,2.4356,2.3752,2.3137,2.2199,2.3288,2.4387,2.4501,2.5746,2.7046,2.802,2.8129,2.8299,2.8778,2.8926,2.9017,2.9087,2.9575,0.0,0.0,3.0153,3.0542,3.096,3.0986,3.0986,3.0986,3.0986,3.0986,3.0986,3.151,3.2306,3.3352,3.2764,3.279,3.3326,3.2163,3.1667,3.1771,3.1235,3.0986,3.0986,3.0986,3.0986,3.0986,3.0986,3.0986,3.1024,3.1061,3.1161,3.131,3.131,3.131,3.1397,3.1485,3.1323,3.1099,3.1235,3.1519,3.2114,3.3581,3.423,3.4762,3.607,3.6414,3.6414,3.6414,3.6322,3.6245,3.6245,3.5737,3.5198,3.4983,3.4121,3.3352,3.3167,3.2721,3.2398,3.2398,3.2244,3.189,3.1228,3.072,3.0325,3.0156,3.014,3.0079,2.9894,2.9879,2.9664,2.9196,2.9166,2.8935,2.8427,2.8411,2.8411,2.8411,2.8411,2.8411,2.8411,2.8411,2.8411,2.8411,2.8411,2.8411,2.6739,2.8137,2.9108,2.83,2.7928,2.7416,2.6115,2.5122,2.4134,2.2925,2.2204,2.1466,2.054,2.1588,2.2844,2.3602,2.4962,2.6444,2.7811,2.8216,2.8538,2.8843,2.934,2.9653,2.9653,3.0176,3.0503,0.0,3.0503,3.0647,3.096,3.0986,3.0986,3.0986,3.0986,3.1222,3.1731,3.1758,3.2254,3.3195,3.2594,3.262,3.3156,3.1993,3.1706,3.2163,0.0,3.0986,3.0986,3.0986,3.113,3.1365,3.1365,3.1509,3.1705,3.1457,3.1428,3.1502,3.1365,3.1406,3.1502,3.149,3.1323,3.1161,3.1272,3.1666,3.2367,3.365,3.4365,3.5059,3.6179,3.6492,3.6492,3.6492,3.6492,3.6492,3.6492,3.6184,3.583,3.5568,3.4614,3.3875,3.3875,3.329,3.2844,3.2844,3.2582,3.2259,3.1874,3.1505,3.1182,3.0874,3.0843,3.0735,3.0432,3.0402,3.0233,2.9848,2.9833,2.9664,2.9279,2.9289,2.9289,2.9289,2.9289,2.9289,2.9289,2.9289,2.9289,2.9289,2.9289,2.9289,2.7468,2.8573,2.9304,2.8394,2.7778,2.6982,2.5486,2.4116,2.2828,2.1769,2.0705,1.9811,1.9374,2.0033,2.1224,2.2908,2.4204,2.562,2.7392,2.8137,2.8564,2.8643,2.9575,3.0218,3.0218,3.0699,3.0986,3.0986,3.0986,3.0986,3.0986,3.0986,3.0986,3.0986,3.1065,3.1575,3.2568,3.2045,3.2084,3.2685,3.215,3.2137,3.2555,3.1627,3.1666,3.2411,3.1496,0.0,3.0986,3.0986,3.1326,3.1797,3.1797,3.215,3.2633,3.2098,3.1915,3.1875,3.1476,3.1622,3.1901,3.1538,3.1391,3.1391,3.1391,3.1977,3.2854,3.3754,3.4681,3.5529,3.6289,3.6492,3.6492,3.6492,3.6492,3.6492,3.6492,3.6492,3.6322,3.5737,3.5106,3.4643,3.4643,3.4014,3.3506,3.3413,3.2906,3.249,3.2398,3.2398,3.2167,3.1582,3.152,3.1289,3.0709,3.0663,3.0617,3.054,3.0525,3.0479,3.0402,3.0402,3.0402,3.0402,3.0402,3.0402,3.0402,3.0402,3.0402,3.0402,3.0402,3.0402,2.8546,2.9689,3.0364,2.8949,2.8196,2.7165,2.4785,2.2971,2.1511,2.0378,1.9383,1.8718,1.8736,1.9713,2.1121,2.2908,2.4204,2.5764,2.7928,2.8739,2.9301,2.9735,3.0424,3.083,3.083,3.0934,0.0,0.0,3.0986,3.0986,3.0986,3.0986,3.0986,3.0986,3.1444,3.1745,3.1941,3.185,3.2084,3.2685,3.2594,3.2346,3.1967,3.2267,3.1993,3.13,3.1536,0.0,3.0986,3.0986,3.1326,3.1797,3.1797,3.215,3.2685,3.2581,3.2542,3.2463,3.1927,3.2174,3.2711,3.2131,3.1832,3.1717,3.1909,3.2176,3.2684,3.3719,3.4566,3.5352,3.6289,3.6492,3.6492,3.6492,3.6492,3.6492,3.6492,3.6492,3.6461,3.6338,3.5799,3.5337,3.5337,3.4767,3.412,3.349,3.3306,3.3029,3.2459,3.2398,3.2351,3.2228,3.2213,3.2167,3.2059,3.2044,3.1813,3.1259,3.1228,3.0982,3.0417,3.0402,3.0402,3.0402,3.0402,3.0402,3.0402,3.0402,3.0402,3.0402,3.0402,3.0402,2.8756,2.9731,3.0325,2.8886,2.7943,2.6587,2.3752,2.2046,2.0603,1.8882,1.821,1.7893,1.7737,1.8967,2.0446,2.1694,2.3106,2.4753,2.6765,2.7811,2.8699,2.9588,3.0451,3.0986,3.0986,3.0986,3.0986,3.0986,3.0986,3.0986,3.0986,3.0986,3.0986,3.0986,3.1248,3.1497,3.1797,3.1497,3.1679,3.2241,3.1954,3.181,3.1797,3.181,3.1666,3.1431,3.1405,0.0,3.0986,3.0986,3.1496,3.228,3.228,3.2816,3.3548,3.326,3.3156,3.3038,3.2111,3.245,3.3211,3.262,3.2436,3.2423,3.2384,3.3103,3.3954,3.4255,3.5232,3.6224,3.6444,3.6492,3.6492,3.6492,3.6492,3.6492,3.6492,3.6492,3.6492,3.6492,3.623,3.6014,3.6014,3.5475,3.4905,3.4537,3.4183,3.3873,3.3521,3.3152,3.2782,3.2428,3.2398,3.2398,3.2398,3.2398,3.2259,3.1921,3.1905,3.1782,3.1459,3.1443,3.1443,3.1443,3.1443,3.1443,3.1443,3.1443,3.1443,3.1443,3.1443,3.1443,2.8579,2.9383,2.9908,2.8702,2.7497,2.5831,2.2954,2.1355,1.9912,1.7838,1.7352,1.7238,1.7098,1.8222,1.9529,2.0575,2.1916,2.348,2.5351,2.6603,2.779,2.9082,3.0176,0.0,3.0973,3.0986,0.0,3.0986,3.0986,0.0,3.0986,3.1104,3.1117,3.0986,3.1222,3.1457,3.1615,3.1457,3.1457,3.1615,3.1457,3.1457,3.1615,3.1444,3.147,3.1602,3.1313,0.0,0.0,3.0986,3.1588,3.2515,3.2646,3.3326,3.4188,3.3875,3.3757,3.3613,3.2541,3.2894,3.3666,3.3077,3.3001,3.3146,3.3146,3.4164,3.5285,3.5132,3.6111,3.7114,3.6814,3.6599,3.6492,3.6492,3.6492,3.6492,3.6492,3.6492,3.6492,3.6492,3.6492,3.6492,3.6492,3.6045,3.5675,3.5537,3.5059,3.4659,3.452,3.3983,3.3429,3.2906,3.2567,3.2398,3.2398,3.2398,3.2398,3.2398,3.2398,3.2398,3.2398,3.2398,3.2398,3.2398,3.2398,3.2398,3.2398,3.2398,3.2398,3.2398,3.2398,3.2398,2.8272,2.8979,2.9385,2.86,2.7192,2.5337,2.2854,2.1054,1.9409,1.775,1.6961,1.68,1.7511,1.776,1.8531,2.0552,2.1328,2.2443,2.4677,2.6026,2.7346,2.884,0.0,0.0,3.0934,3.0986,3.0986,3.0986,0.0,0.0,3.0986,3.1445,3.1484,3.0999,3.1993,3.2058,3.1065,3.2045,3.2045,3.1078,3.2058,3.2019,3.1104,3.2084,3.2006,3.1091,3.1523,0.0,0.0,3.0986,3.1352,3.1941,3.2489,3.3091,3.3718,3.4162,3.4332,3.4241,3.3639,3.3822,3.4241,3.3692,3.3509,3.3658,3.4404,3.4951,3.548,3.6438,3.6952,3.7221,3.7383,3.6953,3.6492,3.6492,3.6492,3.6492,3.6492,3.6492,3.6492,3.6492,3.6492,3.6492,3.6492,3.6445,3.6184,3.5598,3.546,3.5198,3.4582,3.4443,3.4382,3.432,3.3152,3.2398,3.2398,3.2398,3.2398,3.2398,3.2398,3.2398,3.2398,3.2398,3.2398,3.2398,3.2398,3.2398,3.2398,3.2398,3.2398,3.2398,3.2398,3.2398,2.6507,2.72,2.7804,2.7164,2.6021,2.4476,2.231,2.0765,1.9246,1.7262,1.6663,1.6649,1.7127,1.7447,1.805,1.9349,1.9935,2.0926,2.2888,2.3859,2.5218,2.7507,2.8481,2.9444,0.0,0.0,3.0986,3.0986,0.0,0.0,3.0986,3.1196,3.1222,3.0999,3.1431,3.1444,3.0986,3.1431,3.1431,3.0999,3.1444,3.1431,3.0999,3.1457,3.1418,3.0999,3.1222,0.0,0.0,3.0986,3.1326,3.1863,3.2463,3.3064,3.3652,3.4201,3.4397,3.4319,3.3783,3.3953,3.4306,3.377,3.3809,3.4235,3.509,3.5873,3.6532,3.704,3.7798,3.832,3.7988,3.7795,3.7707,3.7707,3.74,3.7092,3.7092,3.6784,3.646,3.6352,3.6305,3.6305,3.6305,3.6305,3.6259,3.6122,3.6091,3.603,3.5752,3.5367,3.5106,3.5106,3.3829,3.2998,3.2998,3.2628,3.2398,3.2398,3.2398,3.2398,3.2398,3.2398,3.2398,3.2398,3.2398,3.2398,3.2398,3.2398,3.2398,3.2398,3.2398,3.2398,2.4796,2.5601,2.6298,2.5719,2.466,2.3245,2.1391,2.0097,1.8784,1.6892,1.65,1.6565,1.6791,1.71,1.7575,1.8333,1.8864,1.976,2.1477,2.2227,2.3462,2.5902,0.0,2.8045,0.0,3.0574,3.0986,0.0,0.0,0.0,3.0986,3.0986,3.0986,3.0986,3.1143,3.1156,3.0986,3.1156,3.1156,3.0986,3.0986,3.0986,3.0986,3.0986,3.0986,3.0986,3.0986,0.0,0.0,3.0986,3.1222,3.1628,3.2398,3.2947,3.3417,3.4136,3.4397,3.4345,3.3966,3.4071,3.4332,3.3953,3.4084,3.4551,3.5426,3.636,3.7181,3.76,3.8411,3.9054,3.8463,3.8394,3.8508,3.8508,3.8138,3.7738,3.7538,3.7123,3.6691,3.6273,3.6196,3.6196,3.6196,3.6196,3.6274,3.646,3.6492,3.6492,3.6492,3.6076,3.5784,3.5784,3.4722,3.3937,3.3737,3.3275,3.2921,3.2705,3.289,3.2906,3.269,3.2906,3.2906,3.269,3.269,3.2598,3.2398,3.2398,3.2398,3.2398,3.2398,3.2398,2.352,2.4437,2.5182,2.4479,2.3121,2.1554,2.0075,1.8898,1.7798,1.6729,1.65,1.6543,1.6675,1.6709,1.6977,1.7792,1.8298,1.9192,2.0863,2.1633,2.259,0.0,2.4981,2.6155,2.8049,2.9907,3.0986,0.0,0.0,0.0,3.0986,3.0986,3.0986,3.0986,3.1497,3.1523,3.0999,3.151,3.151,3.0986,3.0986,3.0986,3.0986,3.0986,3.0986,0.0,0.0,0.0,0.0,3.0986,3.0986,3.1104,3.2254,3.2685,3.2842,3.3979,3.4397,3.4397,3.4384,3.4397,3.4397,3.4384,3.4397,3.4551,3.5426,3.6281,3.7112,3.8101,3.879,3.9088,3.8611,3.8508,3.8508,3.8508,3.8508,3.8323,3.7646,3.7492,3.7213,3.6365,3.6196,3.6196,3.6196,3.6196,3.6274,3.646,3.6492,3.6492,3.6492,3.6492,3.6476,3.6476,3.5876,3.5213,3.4551,3.4489,3.4181,3.3444,3.406,3.4166,3.3413,3.4104,3.4135,3.3398,3.3398,3.3059,3.2398,3.2398,3.2398,3.2398,3.2398,3.2398,2.0707,2.1085,2.1415,2.1545,2.0923,2.0122,1.9399,1.8956,1.8288,1.6817,1.65,1.6543,1.6675,1.6633,1.7055,1.8553,1.8842,1.9334,2.0634,0.0,0.0,2.445,2.7118,2.9166,0.0,0.0,0.0,0.0,0.0,0.0,3.0986,3.0986,3.0986,3.0986,3.1156,3.1169,3.0986,3.1169,3.1169,3.0986,3.0986,3.0986,3.0986,3.0986,3.0986,0.0,0.0,0.0,0.0,3.0986,3.0986,3.1104,3.2241,3.2685,3.2829,3.3979,3.4397,3.4397,3.4397,3.4397,3.4397,3.4397,3.4397,3.4439,3.4716,3.5883,3.7472,3.9226,3.9798,3.9948,3.9871,3.9859,3.9859,3.9859,3.9539,3.9139,3.8923,3.8409,3.7726,3.6907,3.6656,3.644,3.6113,3.6068,3.6163,3.646,3.6492,3.6492,3.6492,3.6492,3.6492,3.6492,3.6307,3.5891,3.5244,3.4767,3.4412,3.4181,3.4382,3.4397,3.4166,3.4382,3.4397,3.4166,3.4166,3.4058,3.3842,3.3842,3.3842,3.3842,3.3842,3.3842,1.8663,1.9208,1.9515,1.9372,1.9155,1.8774,1.8168,1.8032,1.7769,1.6707,1.65,1.6522,1.6599,1.6543,1.6936,1.8309,1.8629,1.9095,2.0214,0.0,0.0,2.469,0.0,0.0,0.0,3.0688,0.0,0.0,0.0,0.0,3.0986,3.0986,3.0986,3.0986,3.0986,3.0986,3.0986,3.0986,3.0986,3.0986,3.0986,3.0986,3.0986,3.0986,3.0986,0.0,0.0,0.0,0.0,3.0986,3.0986,3.1104,3.2241,3.2685,3.2829,3.3979,3.4397,3.4397,3.4397,3.4397,3.4397,3.4397,3.4397,3.4522,3.5142,3.6227,3.7548,3.9226,4.0001,4.0331,4.047,4.0489,4.0489,4.0489,4.0166,3.9797,3.9536,3.9069,3.8445,3.7557,3.727,3.7026,3.6489,3.6368,3.642,3.6491,3.6492,3.6492,3.6492,3.6492,3.6492,3.6492,3.6492,3.6322,3.5891,3.5476,3.5152,3.489,3.5121,3.5152,3.489,3.5136,3.5152,3.489,3.489,3.4751,3.4505,3.4505,3.4505,3.4505,3.4505,3.4505,0.0,1.8472,1.8994,1.7978,1.7701,1.7482,1.6605,1.6491,0.0,1.6504,1.65,1.65,1.655,1.6525,1.6748,1.7461,1.7953,1.8656,0.0,2.1018,0.0,0.0,2.699,0.0,2.9064,0.0,0.0,0.0,0.0,0.0,3.0986,3.0986,3.0986,3.0986,3.0986,3.0986,3.0986,3.0986,3.0986,3.0986,3.0986,3.0986,3.0986,3.0986,3.0986,0.0,0.0,0.0,0.0,3.0986,3.0986,3.1091,3.2202,3.2633,3.2764,3.3862,3.4306,3.4345,3.4345,3.4358,3.4397,3.4397,3.4397,3.4716,3.6346,3.7011,3.7434,3.8465,3.9493,4.0347,4.0455,4.0489,4.0489,4.0489,4.0489,4.032,3.969,3.9551,3.9266,3.8272,3.8083,3.7837,3.7203,3.7081,3.6966,3.6707,3.6599,3.6569,3.6569,3.6522,3.6492,3.6492,3.6492,3.6492,3.6492,3.6492,3.6215,3.5629,3.6138,3.6215,3.5614,3.6153,3.6199,3.5568,3.5553,3.5275,3.4643,3.4643,3.4643,3.4643,3.4643,3.4643,1.6724,0.0,1.6697,1.6775,1.6836,1.6812,0.0,1.6845,1.7065,1.6591,1.65,1.6638,1.7099,1.6823,1.7089,1.8945,1.9007,1.9334,2.0878,2.3271,0.0,2.7608,2.9132,3.0179,3.0494,0.0,0.0,0.0,0.0,3.0986,3.0986,3.0986,3.0986,3.0986,3.0986,3.0986,3.0986,3.0986,3.0986,3.0986,3.0986,3.0986,3.0986,3.0986,3.0986,0.0,0.0,0.0,3.0986,3.0986,3.0986,3.1052,3.1757,3.2006,3.2084,3.2829,3.3378,3.3783,3.3783,3.4058,3.4397,3.4397,3.4397,3.4592,3.5655,3.6543,3.751,3.906,3.9859,4.0312,4.0331,4.0436,4.0489,4.0489,4.0489,4.0459,4.029,4.019,3.9902,3.9127,3.8766,3.8402,3.8053,3.7879,3.7819,3.7996,3.7584,3.7261,3.7261,3.6815,3.6492,3.6492,3.6492,3.6492,3.6492,3.6492,3.643,3.6261,3.6399,3.6415,3.6261,3.6415,3.6415,3.6261,3.6245,3.6184,3.6014,3.6014,3.6014,3.6014,3.6014,3.6014,1.65,1.6512,1.6534,1.6526,1.6753,1.6901,1.6616,1.6781,1.6898,1.6563,1.65,1.6685,1.7297,1.7124,1.7388,1.8832,1.9246,0.0,0.0,0.0,2.7183,2.8871,2.9955,3.0685,0.0,0.0,0.0,0.0,0.0,3.0986,3.0986,3.0986,3.0986,3.0986,3.0986,3.0986,3.0986,3.0986,3.0986,3.0986,3.0986,3.0986,3.0986,3.0986,3.0986,0.0,0.0,0.0,3.0986,3.0986,3.0986,3.1039,3.1575,3.1797,3.1902,3.279,3.3313,3.3626,3.3875,3.4162,3.4397,3.4397,3.4675,3.5073,3.5548,3.636,3.7357,3.8701,3.9702,4.0312,4.0312,4.0331,4.0436,4.0489,4.0455,4.0436,4.0489,4.0436,4.0259,3.9837,3.9588,3.9291,3.8791,3.8635,3.8528,3.8488,3.82,3.7969,3.7969,3.7646,3.726,3.6874,3.6906,3.6799,3.6413,3.646,3.6492,3.6492,3.6492,3.6492,3.6492,3.6492,3.6492,3.6492,3.6492,3.6492,3.6492,3.6492,3.6492,3.6492,3.6258,3.6116,1.645,1.6936,1.7282,1.6727,1.7016,1.726,1.6715,1.6549,1.65,1.65,1.6563,1.6823,1.74,1.7576,1.7865,1.8593,1.9698,0.0,2.4519,2.6357,2.7946,2.9321,3.006,0.0,0.0,0.0,0.0,0.0,0.0,3.0986,3.0986,3.0986,3.0986,3.0986,3.0986,3.0986,3.0986,3.0986,3.0986,3.0986,3.0986,3.0986,3.0986,3.0986,3.0986,3.0986,0.0,0.0,3.0986,3.0986,3.0986,3.1039,3.1484,3.168,3.1797,3.2921,3.3378,3.3548,3.4175,3.4397,3.4397,3.4397,3.4909,3.5548,3.5669,3.6162,3.6972,3.804,3.9154,4.0001,4.0036,4.0156,4.0312,4.0436,4.0366,4.0312,4.0401,4.0455,4.0436,4.0312,4.0277,4.0078,3.9482,3.9341,3.9191,3.8842,3.8706,3.8662,3.8662,3.8569,3.8212,3.7499,3.7549,3.7351,3.6626,3.6598,3.6645,3.6645,3.6553,3.6492,3.6492,3.6492,3.6492,3.6492,3.6492,3.6492,3.6492,3.6492,3.6492,3.6492,3.6022,3.5784,1.6237,1.6936,1.7262,1.6651,1.6967,1.725,1.6638,1.6507,1.65,1.65,1.6911,1.7413,1.7978,1.8455,1.9233,2.074,2.2429,2.3988,0.0,0.0,2.8431,2.9394,0.0,0.0,0.0,0.0,0.0,0.0,0.0,3.0986,3.0986,3.0986,3.0986,3.0986,3.0986,3.0986,3.0986,3.0986,3.0986,3.0986,3.0986,3.0986,3.0986,3.0986,3.0986,3.0986,0.0,3.0986,3.0986,3.0986,3.0986,3.0999,3.1078,3.1117,3.1196,3.1823,3.2411,3.2986,3.4031,3.4397,3.4397,3.4397,3.4481,3.4758,3.5467,3.579,3.6215,3.7796,3.8457,3.8723,3.8921,3.9472,4.0101,4.0277,4.0172,4.0031,4.0066,4.0207,4.0331,4.0296,4.0172,4.0071,4.0124,3.9984,3.9904,4.0006,3.9637,3.9336,3.9336,3.8862,3.8429,3.8321,3.8321,3.8275,3.8167,3.7645,3.7353,3.7353,3.6799,3.6492,3.6492,3.6492,3.6492,3.6492,3.6492,3.6492,3.6492,3.6492,3.6492,3.6492,3.6429,3.6116,1.5932,1.6484,1.6999,1.7315,1.7852,1.8204,1.7904,1.7616,1.7426,1.7426,1.7639,1.8003,1.8519,1.917,2.0282,2.2344,2.4042,2.5528,2.6693,2.786,2.8939,0.0,0.0,0.0,0.0,0.0,0.0,0.0,0.0,0.0,3.0986,3.0986,3.0986,3.0986,3.0986,3.0986,3.0986,3.0986,3.0986,3.0986,3.0986,3.0986,3.0986,3.0986,3.0986,3.0986,0.0,3.0986,3.0986,3.0986,3.0986,3.0986,3.0986,3.0986,3.1091,3.198,3.2855,3.3692,3.4214,3.4397,3.4397,3.4397,3.4716,3.5196,3.5588,3.6002,3.6517,3.7271,3.7942,3.8539,3.9081,3.9523,3.9874,4.0101,3.998,3.9889,3.996,4.0066,4.0172,4.0277,4.0242,4.0207,4.0366,4.0331,4.0296,4.0401,4.0194,4.0028,4.0028,3.9767,3.9395,3.8974,3.8995,3.8875,3.8422,3.8165,3.7738,3.6999,3.6661,3.6492,3.6492,3.6492,3.6492,3.6492,3.6492,3.6492,3.6492,3.6492,3.6492,3.6492,3.6179,3.5958,1.5819,1.6107,1.6597,1.7727,1.8329,1.8719,1.9096,1.8757,1.8468,1.8731,1.8906,1.9145,1.9547,2.046,2.1831,2.3944,2.5461,2.6845,2.8087,2.8766,2.9428,0.0,0.0,0.0,0.0,0.0,0.0,0.0,0.0,0.0,3.0911,3.0986,3.0986,3.0986,3.0986,3.0986,3.0986,3.0986,3.0986,3.0986,3.0986,3.0986,3.0986,3.0986,3.0986,3.0986,3.0986,3.0986,3.0986,3.0986,3.0986,3.0986,3.0986,3.1143,3.1483,3.2372,3.3417,3.4397,3.4397,3.4397,3.4397,3.4397,3.4991,3.5709,3.5709,3.6281,3.6919,3.7127,3.7753,3.8517,3.9205,3.9487,3.9696,3.9889,3.9783,3.9661,3.9818,3.9925,4.0046,4.0207,4.0277,4.0331,4.0436,4.0455,4.0455,4.0455,4.0489,4.0489,4.0489,4.0489,4.0255,3.9661,3.9653,3.941,3.865,3.8606,3.8198,3.7046,3.6815,3.6722,3.6722,3.6569,3.6492,3.6492,3.6492,3.6492,3.6492,3.6492,3.6492,3.6492,3.5958,3.5688,1.6183,1.612,1.6019,1.7162,1.7498,1.7926,1.9397,1.9346,1.9233,2.0302,2.1026,2.1475,2.1513,2.2978,2.4595,2.5826,2.7095,2.8289,2.9254,0.0,0.0,0.0,0.0,0.0,0.0,0.0,0.0,0.0,0.0,0.0,3.0736,3.0911,3.0986,3.0986,3.0986,3.0986,3.0986,3.0986,3.0986,3.0986,3.0986,3.0986,3.0986,3.0986,3.0986,3.0986,3.0986,3.0986,3.0986,3.0986,3.0986,3.0986,3.0986,3.164,3.2581,3.2659,3.3417,3.4397,3.4397,3.4397,3.4397,3.4397,3.4991,3.5709,3.5709,3.6281,3.7088,3.7872,3.8165,3.8263,3.8428,3.895,3.9481,3.9661,3.9553,3.9424,3.946,3.9747,3.9996,4.0031,4.0172,4.0312,4.0296,4.0296,4.0296,4.0296,4.0436,4.0489,4.0489,4.0489,4.0474,4.0428,4.0413,4.0151,3.9474,3.9247,3.8907,3.8367,3.7769,3.743,3.743,3.683,3.6492,3.6492,3.6492,3.6492,3.6492,3.6492,3.6492,3.6492,3.5958,3.5688,1.5399,1.5844,1.6471,1.7614,1.8154,1.8744,2.0063,2.0451,2.0878,2.197,2.2388,2.2627,2.283,2.3855,2.4947,2.5799,2.7335,2.8569,2.9117,0.0,0.0,0.0,0.0,0.0,0.0,0.0,0.0,0.0,0.0,0.0,3.0874,3.0949,3.0986,3.0986,3.0986,3.0986,3.0986,3.0986,3.0986,3.0986,3.0986,3.0986,3.0986,3.0986,3.0986,3.0986,3.0986,3.0986,3.0986,3.0986,3.0986,3.0986,3.0986,3.1692,3.2685,3.2685,3.3417,3.4397,3.4397,3.4397,3.4397,3.4397,3.4991,3.5776,3.6281,3.666,3.7088,3.7947,3.8202,3.8315,3.8892,3.9213,3.9409,3.9481,3.946,3.9388,3.9388,3.9532,3.9711,3.994,4.0066,4.0172,4.0401,4.0436,4.0436,4.0436,4.047,4.0489,4.0489,4.0436,4.0401,4.0489,4.0436,4.0293,4.0136,3.9983,3.9826,3.9751,3.8739,3.8123,3.8123,3.7877,3.7554,3.7123,3.7123,3.6907,3.6492,3.6492,3.6492,3.6492,3.6289,3.6195,1.5462,1.5944,1.6726,1.7702,1.8469,1.9384,2.088,2.1606,2.2372,2.3622,2.384,2.3867,2.4093,2.4658,2.5426,0.0,2.7825,2.8985,0.0,0.0,0.0,0.0,0.0,0.0,0.0,0.0,0.0,0.0,0.0,0.0,0.0,3.0986,3.0986,3.0986,3.0986,3.0986,3.0986,3.0986,3.0986,3.0986,3.0986,3.0986,3.0986,3.0986,3.0986,3.0986,3.0986,3.0986,3.0986,3.0986,3.0986,3.0986,3.0986,3.1692,3.2685,3.2685,3.3417,3.4397,3.4397,3.4397,3.4439,3.4716,3.5386,3.6162,3.6724,3.7088,3.7372,3.7706,3.8,3.8315,3.8885,3.9192,3.9388,3.9388,3.9388,3.9388,3.9388,3.9445,3.9604,3.9854,3.9996,4.0172,4.0401,4.0455,4.0489,4.0489,4.0489,4.0489,4.0489,4.0436,4.0366,4.0436,4.0331,4.0331,4.0436,4.0331,4.0366,4.0489,3.9628,3.9046,3.8831,3.8616,3.8185,3.7507,3.7507,3.7169,3.6492,3.6707,3.6815,3.6815,3.6857,3.6964,1.666,1.6488,1.6638,1.7272,1.8229,1.961,2.1804,2.2732,2.3584,2.5272,2.5432,2.5307,2.5307,2.5573,0.0,2.7838,2.8777,0.0,0.0,0.0,0.0,0.0,0.0,0.0,0.0,0.0,0.0,0.0,0.0,0.0,0.0,3.0874,3.0973,3.0986,3.0986,3.0986,3.0986,3.0986,3.0986,3.0986,3.0986,3.0986,3.0986,3.0986,3.0986,3.0986,3.0986,3.0986,3.0986,3.0986,3.0986,3.0986,3.0986,3.1692,3.2685,3.2685,3.3417,3.4397,3.4397,3.4397,3.4551,3.5426,3.6241,3.688,3.688,3.7501,3.8,3.7127,3.7501,3.8202,3.8202,3.8811,3.9388,3.9388,3.9388,3.9388,3.9388,3.9553,3.9681,3.9681,4.0016,4.0312,4.0312,4.0401,4.0489,4.0489,4.0489,4.0489,4.0489,4.0505,4.047,4.0296,4.0312,4.0312,4.0312,4.0312,4.0366,4.0489,4.0489,4.0197,3.9521,3.8893,3.82,3.7538,3.7523,3.7184,3.6507,3.7184,3.7507,3.7523,3.7643,3.798,1.5537,1.6254,1.7262,1.7827,1.966,2.1691,2.3163,2.3898,2.4763,2.644,2.6295,2.5851,2.5851,2.6188,0.0,2.754,2.846,0.0,0.0,0.0,0.0,0.0,0.0,0.0,0.0,0.0,0.0,0.0,0.0,0.0,0.0,3.057,3.0568,3.0973,3.0986,3.0986,3.0986,3.0986,3.0986,3.0986,3.0986,3.0986,3.0986,3.0986,3.0986,3.0986,3.0986,3.0986,3.0986,3.0986,3.0986,3.0986,3.0986,3.1692,3.2685,3.2685,3.3417,3.4397,3.4397,3.4397,3.4439,3.4716,3.5722,3.6802,3.6241,3.6635,3.7242,3.6958,3.7088,3.7424,3.8037,3.8811,3.9388,3.9388,3.9388,3.9388,3.9388,3.946,3.9517,3.9661,3.991,4.0137,4.0277,4.0401,4.0489,4.0489,4.0436,4.0261,3.9965,4.0191,4.0226,3.991,3.9996,4.0137,4.0277,4.0312,4.0366,4.0489,4.0489,4.0397,4.0197,3.9997,3.9582,3.8939,3.8923,3.8585,3.7923,3.8123,3.82,3.8215,3.8236,3.8328,1.6191,1.7099,1.8279,1.9258,2.0928,2.2774,2.4569,2.5234,2.5858,2.7148,2.6731,2.6171,2.6414,2.6602,0.0,2.7644,0.0,0.0,0.0,0.0,0.0,0.0,0.0,0.0,0.0,0.0,0.0,0.0,0.0,0.0,0.0,2.998,2.9954,3.0294,3.0307,3.0307,3.0307,3.0307,3.0307,3.0307,3.0307,3.0424,3.066,3.0882,3.0986,3.0986,3.0986,3.0986,3.0986,3.0986,3.0986,3.0986,3.0986,3.1548,3.2385,3.2607,3.3273,3.411,3.4332,3.4397,3.4481,3.4799,3.5615,3.6346,3.5856,3.6042,3.6425,3.6425,3.666,3.7088,3.7947,3.8811,3.9388,3.9388,3.9388,3.9388,3.9388,3.9388,3.946,3.9553,3.9818,4.0046,4.0172,4.0366,4.0489,4.0436,4.0261,4.0101,3.9839,4.0031,4.0066,3.9717,3.9945,4.0101,4.0051,4.0261,4.0401,4.0436,4.0436,4.042,4.0489,4.0489,4.0166,3.949,3.9407,3.9069,3.8508,3.8703,3.8842,3.8908,3.9152,3.9275,1.7754,1.8506,1.9409,2.1142,2.2096,2.3288,2.5908,2.6499,2.6719,2.744,2.685,2.635,2.6921,2.6887,2.7085,0.0,0.0,0.0,0.0,0.0,0.0,0.0,0.0,0.0,0.0,0.0,0.0,0.0,0.0,0.0,0.0,2.9258,2.9222,2.931,2.931,2.931,2.931,2.931,2.931,2.931,2.931,2.9575,3.0113,3.0673,3.0934,3.0986,3.0986,3.0986,3.0986,3.0986,3.0986,3.0986,3.0986,3.1339,3.1863,3.2489,3.3064,3.3679,3.4201,3.4397,3.4522,3.5305,3.5629,3.5709,3.5629,3.5709,3.5816,3.5816,3.6399,3.7204,3.8075,3.8848,3.9388,3.9388,3.9388,3.9388,3.9388,3.9388,3.9388,3.9388,3.9711,3.996,4.0011,4.0261,4.042,4.0191,4.0066,3.996,3.9854,3.9925,3.9889,3.9681,4.0016,4.0086,3.9768,4.0176,4.0436,4.0331,4.0312,4.0366,4.0489,4.0489,4.0213,3.9582,3.9416,3.9125,3.8692,3.9125,3.9416,3.9631,4.0213,4.0489,1.6789,1.7904,1.9497,2.1619,2.3527,2.5159,2.6248,2.6499,2.6719,2.744,2.7181,2.6891,2.7188,2.7298,2.7542,0.0,0.0,0.0,0.0,0.0,0.0,0.0,0.0,0.0,0.0,0.0,0.0,0.0,0.0,0.0,2.9248,2.8865,2.8826,2.9297,2.931,2.931,2.931,2.931,2.931,0.0,2.931,2.9575,3.01,3.0218,3.0555,3.0986,3.0986,3.0986,3.0986,3.0986,3.0986,3.0986,3.0986,3.1339,3.1863,3.2489,3.3064,3.3679,3.4201,3.4397,3.4439,3.4634,3.5155,3.5588,3.4868,3.5602,3.666,3.666,3.7271,3.8113,3.8922,3.9265,3.9388,3.9388,3.9388,3.9388,3.9388,3.9388,3.9388,3.9388,3.9589,3.9803,3.996,4.0207,4.0071,3.919,3.9595,3.9661,3.8723,3.9286,3.9696,3.9496,3.9696,3.9874,3.9925,4.0031,4.0207,4.0436,4.0366,4.0366,4.0489,4.0401,4.0324,4.0274,4.024,4.0163,4.0059,4.0163,4.024,4.0274,4.0428,4.0489,1.7036,1.8318,2.0062,2.2824,2.4569,2.5749,2.6361,2.6499,2.6643,2.7085,2.7092,2.7079,2.7335,2.7469,0.0,0.0,0.0,0.0,0.0,0.0,0.0,0.0,0.0,0.0,0.0,0.0,0.0,0.0,0.0,2.7919,2.8425,2.8137,2.8111,2.8438,2.8438,2.8438,2.8438,2.8438,2.8438,2.8438,2.8438,2.8895,2.9745,3.0294,3.0699,3.0986,3.0986,3.0986,3.0986,3.0986,3.0986,3.0986,3.0986,3.1169,3.1535,3.2385,3.2894,3.3273,3.411,3.4397,3.4397,3.4397,3.4716,3.4991,3.4551,3.5019,3.5803,3.6201,3.6947,3.7782,3.8612,3.9119,3.9301,3.8922,3.9119,3.9388,3.9388,3.9388,3.9388,3.9388,3.9553,3.9732,3.9839,3.9945,3.9824,3.9241,3.9502,3.9337,3.8315,3.8649,3.8782,3.8271,3.8368,3.8694,3.9104,3.9111,3.9313,3.9809,3.9753,3.9824,4.0106,4.0121,4.0261,4.0505,4.0436,4.0436,4.0489,4.0436,4.0436,4.0489,4.0489,4.0489,1.725,1.8907,2.0853,2.3998,2.5209,2.5749,2.6361,2.6499,2.6521,2.6692,2.6863,2.7113,2.7403,0.0,0.0,0.0,0.0,0.0,0.0,0.0,0.0,0.0,0.0,0.0,0.0,0.0,0.0,0.0,0.0,2.7369,2.749,2.7503,2.7469,2.7469,2.749,2.7469,2.7403,2.7469,2.7469,2.7403,2.7527,2.8208,2.9349,3.0359,3.0895,3.0986,3.0986,3.0986,3.0986,3.0986,3.0986,3.0986,3.0986,3.0986,3.1117,3.2163,3.2607,3.2842,3.3901,3.4319,3.4397,3.4397,3.4397,3.4397,3.4397,3.4522,3.4758,3.5507,3.6281,3.7049,3.7796,3.8486,3.8797,3.815,3.8612,3.9192,3.9192,3.9301,3.9388,3.9388,3.9553,3.9681,3.9681,3.9681,3.9646,3.9487,3.943,3.9119,3.8315,3.8315,3.8136,3.7396,3.7357,3.7615,3.8188,3.8017,3.8153,3.8819,3.887,3.909,3.9574,3.9646,3.9895,4.0385,4.0366,4.0401,4.0489,4.0401,4.0401,4.0489,4.0489,4.0489,1.5819,1.8593,2.1832,2.4199,2.5209,2.5749,2.6361,2.6499,2.6521,0.0,2.6863,2.7079,0.0,0.0,0.0,0.0,0.0,0.0,0.0,0.0,0.0,0.0,0.0,0.0,0.0,0.0,0.0,0.0,2.718,2.7369,2.749,2.7403,2.7335,2.7335,2.7436,2.7369,2.7079,2.7248,2.7248,2.7058,2.7704,2.846,2.9301,2.9954,3.0516,3.0986,3.0986,3.0986,3.0986,3.0986,3.0986,3.0986,3.0986,3.0986,3.1065,3.168,3.2267,3.279,3.347,3.4005,3.4397,3.4397,3.4397,3.4397,3.4397,3.4909,3.5548,3.5669,3.6281,3.6933,3.7049,3.7165,3.7204,3.7088,3.7744,3.8352,3.8352,3.8922,3.9388,3.9388,3.9553,3.9681,3.9681,3.9681,3.9451,3.8686,3.9038,3.9119,3.8315,3.8811,3.9192,3.9068,3.8464,3.8136,3.8354,3.7572,3.7343,3.7936,3.7965,3.8345,3.9141,3.8664,3.8884,4.0031,4.0331,4.0489,4.0489,4.0489,4.0489,4.0489,4.0489,4.0489,1.6534,1.8581,2.0688,2.3221,2.401,2.4519,2.5699,2.6009,2.6097,2.6492,2.6807,0.0,0.0,0.0,0.0,0.0,0.0,0.0,0.0,0.0,0.0,0.0,0.0,0.0,0.0,0.0,0.0,0.0,2.7146,2.7248,2.749,2.7369,2.7302,2.7302,2.7369,2.7268,2.699,2.7079,2.7146,2.7193,2.7816,2.8538,2.9336,2.9876,3.0451,3.0986,3.0986,3.0986,3.0986,3.0986,3.0986,3.0986,3.0986,3.0986,3.1091,3.1993,3.2476,3.2816,3.3731,3.4201,3.4397,3.4397,3.4397,3.4397,3.4397,3.4675,3.495,3.495,3.5575,3.6241,3.6241,3.6807,3.7256,3.6778,3.7576,3.8353,3.8037,3.875,3.9388,3.9388,3.9481,3.9517,3.9517,3.9517,3.9394,3.9002,3.9213,3.9119,3.8315,3.8516,3.8523,3.8032,3.7691,3.7691,3.8234,3.7218,3.6908,3.7639,3.7691,3.7706,3.7706,3.8517,3.9081,3.9292,3.9421,3.9793,4.0401,4.0261,4.0331,4.0489,4.0436,4.0436,1.6572,1.7965,1.9208,2.1829,2.2794,2.3459,2.487,0.0,2.5724,0.0,2.6637,0.0,0.0,0.0,0.0,0.0,0.0,0.0,0.0,0.0,0.0,0.0,0.0,0.0,0.0,0.0,0.0,0.0,2.7079,2.7113,2.7369,2.7235,2.7134,2.7134,2.7201,2.7113,2.6888,2.6875,2.6977,2.7214,2.764,2.8326,2.9287,2.9647,3.0233,3.0986,3.0986,3.0986,3.0986,3.0986,3.0986,3.0986,3.0986,3.0986,3.1104,3.211,3.2568,3.2829,3.3849,3.428,3.4397,3.4397,3.4397,3.4397,3.4397,3.4397,3.4397,3.4397,3.4868,3.5386,3.5547,3.6389,3.7002,3.6357,3.7139,3.8072,3.8093,3.8774,3.9388,3.9388,3.9388,3.9388,3.9388,3.9388,3.9388,3.9388,3.9388,3.9192,3.859,3.8501,3.8263,3.7601,3.7357,3.7501,3.815,3.6936,3.6452,3.713,3.7066,3.6789,3.623,3.7748,3.8392,3.8046,3.7968,3.8701,4.0242,4.0137,4.0172,4.0366,4.0331,4.0331,1.4595,1.6254,1.8026,2.0264,2.197,2.3271,0.0,0.0,2.5598,2.5636,0.0,0.0,0.0,0.0,0.0,0.0,0.0,0.0,0.0,0.0,0.0,0.0,0.0,0.0,0.0,0.0,0.0,0.0,2.7024,2.7024,2.7024,2.6829,2.6714,2.6714,2.6909,2.6841,2.6533,2.6533,2.6705,2.7024,2.705,2.7846,2.9274,2.9136,2.9759,3.0986,3.0986,3.0986,3.0986,3.0986,3.0986,3.0986,3.0986,3.0986,3.1065,3.1628,3.2228,3.2777,3.3417,3.3966,3.4397,3.4397,3.4397,3.4397,3.4397,3.4397,3.4397,3.4397,3.4439,3.4612,3.5188,3.5401,3.5414,3.5372,3.598,3.703,3.8585,3.9202,3.9388,3.9388,3.9388,3.9388,3.9388,3.9388,3.9388,3.9388,3.9388,3.9388,3.9337,3.9352,3.9301,3.9265,3.8575,3.8165,3.8202,3.6702,3.583,3.6056,3.5691,3.5336,3.518,3.5399,3.5746,3.6217,3.6004,3.7218,4.0011,4.0207,4.0207,4.0031,4.0207,4.0296,1.4022,1.5324,1.6769,1.8618,1.9798,2.0801,2.2096,2.3238,2.4186,2.4946,0.0,0.0,0.0,0.0,0.0,0.0,0.0,0.0,0.0,0.0,0.0,0.0,0.0,0.0,0.0,0.0,0.0,0.0,0.0,2.6773,2.699,2.6794,2.6679,2.6679,2.676,2.6705,2.6499,2.6499,2.6671,2.699,2.6875,2.7408,2.8503,2.8376,2.8983,3.0227,3.0227,3.0522,3.0986,3.0986,3.0986,3.0986,3.0986,3.0986,3.1104,3.2045,3.2515,3.2829,3.3783,3.4241,3.4397,3.4397,3.4397,3.4397,3.4397,3.4397,3.4397,3.4397,3.4672,3.4933,3.4763,3.526,3.5809,3.5809,3.6585,3.7515,3.8113,3.8865,3.9388,3.9388,3.9388,3.9388,3.9388,3.9388,3.9388,3.9388,3.9388,3.9388,3.9388,3.9388,3.9388,3.9388,3.9156,3.8958,3.8958,3.7947,3.6961,3.6105,3.6349,3.5623,3.366,3.5595,3.6311,3.5474,3.642,3.7615,3.8972,3.8965,3.9322,4.0011,3.9945,4.0051,1.3103,1.4444,1.6007,1.7313,1.8168,1.9183,2.0867,0.0,2.3095,2.4036,0.0,0.0,0.0,0.0,0.0,0.0,0.0,0.0,0.0,0.0,0.0,0.0,0.0,0.0,0.0,0.0,0.0,0.0,0.0,0.0,2.6807,2.6705,2.6624,2.6624,2.6624,2.6589,2.6499,2.6499,2.6636,2.6909,2.676,2.7156,2.8018,2.7857,2.8495,2.9707,2.9621,3.0141,3.0986,3.0986,3.0986,3.0986,3.0986,3.0986,3.1117,3.2267,3.2685,3.2855,3.4005,3.4397,3.4397,3.4397,3.4397,3.4397,3.4397,3.4397,3.4397,3.4397,3.4685,3.4946,3.475,3.526,3.5835,3.5835,3.6492,3.7183,3.7447,3.8501,3.9388,3.9388,3.9388,3.9388,3.9388,3.9388,3.9388,3.9388,3.9388,3.9388,3.9388,3.9388,3.9388,3.9388,3.9388,3.9388,3.9388,3.8664,3.7789,3.6855,3.6613,3.5615,3.3572,3.5438,3.5911,3.4683,3.605,3.7155,3.7875,3.8248,3.887,3.9783,3.9732,3.9874,0.0,0.0,0.0,1.6312,0.0,0.0,2.0201,0.0,2.2359,0.0,0.0,0.0,0.0,0.0,0.0,0.0,0.0,0.0,0.0,0.0,0.0,0.0,0.0,0.0,0.0,0.0,0.0,0.0,2.6794,2.6658,2.6499,2.6499,2.6499,2.6499,2.6499,2.6499,2.6499,2.6499,2.6555,2.6679,2.6679,2.7109,2.7866,2.7669,2.828,2.9473,2.9262,2.9855,3.0986,3.0986,3.0986,3.0986,3.0986,3.0986,3.1117,3.2267,3.2685,3.2855,3.4005,3.4397,3.4397,3.4397,3.4397,3.4397,3.4397,3.4397,3.4397,3.4397,3.441,3.4554,3.5142,3.5286,3.5273,3.5273,3.5513,3.5896,3.6699,3.8144,3.9337,3.9337,3.9388,3.9388,3.9373,3.9388,3.9388,3.9388,3.9388,3.9388,3.9388,3.9388,3.9388,3.9388,3.9388,3.9388,3.9388,3.8701,3.8225,3.8173,3.6271,3.5096,3.5031,3.4687,3.4272,3.379,3.4674,3.5683,3.6894,3.8144,3.898,3.9409,3.9625,3.9803,1.2914,0.0,0.0,0.0,0.0,0.0,0.0,0.0,0.0,0.0,0.0,0.0,0.0,0.0,0.0,0.0,0.0,0.0,0.0,0.0,0.0,0.0,0.0,0.0,0.0,0.0,0.0,0.0,2.6794,2.6658,2.6499,2.6499,2.6499,2.6499,2.6499,2.6499,2.6499,2.6499,2.6555,2.6679,2.6589,2.67,2.7023,2.6864,2.7506,2.8677,2.864,2.9347,3.0558,3.0558,3.0634,3.0773,3.0773,3.0874,3.1117,3.2267,3.2685,3.2855,3.4005,3.4397,3.4397,3.4397,3.4397,3.4397,3.4397,3.4397,3.4397,3.4397,3.4711,3.509,3.526,3.4972,3.4646,3.4646,3.5193,3.5736,3.5963,3.6855,3.7767,3.8412,3.8995,3.9228,3.8612,3.8995,3.9388,3.9388,3.9388,3.9388,3.9388,3.9388,3.9388,3.9388,3.9388,3.9388,3.9388,3.9192,3.8642,3.763,3.6563,3.525,3.3716,3.4067,3.3957,3.3223,3.4473,3.5494,3.6241,3.7049,3.8107,3.9409,3.9625,3.9732,1.3785,1.4393,1.5286,1.5512,0.0,0.0,0.0,1.7867,0.0,0.0,0.0,0.0,0.0,0.0,0.0,0.0,0.0,0.0,0.0,0.0,0.0,0.0,0.0,0.0,0.0,2.7369,2.7214,2.7024,2.6794,2.6658,2.6499,2.6499,2.6499,2.6499,2.6499,2.6499,2.6499,2.6499,2.6521,2.6624,2.6521,2.6521,2.6624,2.6521,2.716,2.8279,2.8279,2.9022,3.0254,3.0254,3.0457,3.0698,3.0698,3.0811,3.1117,3.2267,3.2685,3.2855,3.4005,3.4397,3.4397,3.4397,3.4397,3.4397,3.4397,3.4397,3.4397,3.4397,3.4646,3.492,3.492,3.4659,3.4397,3.4397,3.4799,3.5264,3.5629,3.6082,3.6635,3.7501,3.8337,3.8738,3.8277,3.8848,3.9388,3.9388,3.9388,3.9388,3.9388,3.9388,3.9388,3.9388,3.9388,3.9388,3.9388,3.9388,3.9065,3.8215,3.7265,3.6151,3.4868,3.4533,3.4142,3.3726,3.4393,3.5291,3.6399,3.6816,3.7829,3.9409,3.9625,3.9681,1.4727,1.5148,1.5982,1.6387,1.5781,0.0,1.8005,1.8255,1.8455,0.0,0.0,0.0,0.0,0.0,0.0,0.0,0.0,0.0,0.0,0.0,0.0,0.0,0.0,0.0,2.7398,2.7364,2.7209,2.6968,2.6739,2.6557,2.6399,2.6461,2.6499,2.6499,2.6499,2.6499,2.6499,2.6499,2.6499,2.6499,2.6499,2.6499,2.6499,2.6499,2.7065,2.8009,2.8084,2.8811,2.9948,3.005,3.0318,3.0698,3.0698,3.0811,3.1117,3.2267,3.2685,3.2855,3.4005,3.4397,3.4397,3.4397,3.4397,3.4397,3.4397,3.4397,3.4397,3.4397,3.4397,3.4397,3.4397,3.4397,3.4397,3.4397,3.4397,3.4592,3.5386,3.5548,3.5776,3.6503,3.7462,3.8165,3.8075,3.8811,3.9388,3.9388,3.9388,3.9388,3.9388,3.9388,3.9388,3.9388,3.9388,3.9388,3.9388,3.9388,3.9388,3.9388,3.7981,3.7099,3.6975,3.5302,3.4418,3.4482,3.4419,3.5193,3.688,3.7281,3.8107,3.9409,3.9589,3.9661,1.6807,1.6908,1.6983,1.6609,0.0,0.0,1.5776,1.6283,1.7074,0.0,0.0,0.0,0.0,0.0,0.0,0.0,0.0,0.0,0.0,0.0,0.0,0.0,0.0,0.0,2.6844,2.7229,2.7207,2.6568,2.622,2.5975,2.5795,2.6248,2.6499,2.6499,2.6499,2.6499,2.6499,2.6499,2.6499,2.6499,2.6499,2.6499,2.6499,2.6499,2.6851,2.7469,2.7908,2.8473,2.9164,2.968,3.0203,3.0698,3.0698,3.0811,3.1117,3.2267,3.2685,3.2855,3.4005,3.4397,3.4397,3.4397,3.4397,3.4397,3.4397,3.4397,3.4397,3.4397,3.4397,3.4397,3.4397,3.4397,3.4397,3.4397,3.4397,3.4439,3.4634,3.4634,3.4716,3.4868,3.6688,3.8,3.7295,3.8397,3.9388,3.9388,3.9388,3.9388,3.9388,3.9388,3.9388,3.9388,3.9388,3.9388,3.9388,3.9388,3.9388,3.9388,3.7467,3.6122,3.5634,3.3984,3.308,3.308,3.4634,3.5893,3.688,3.8308,3.9104,3.9388,3.946,3.9445,1.7865,1.779,1.7727,1.7426,0.0,0.0,0.0,0.0,1.6814,0.0,0.0,0.0,0.0,0.0,0.0,0.0,0.0,0.0,0.0,0.0,0.0,0.0,0.0,0.0,2.6242,2.6472,2.6427,2.5884,2.5548,2.532,2.5209,2.5737,2.6059,2.6059,2.6348,2.6499,2.6499,2.6499,2.6499,2.6499,2.6499,2.6499,2.6499,2.6499,2.6801,2.7318,2.7871,2.8448,2.9113,2.9808,3.0356,3.066,3.047,3.0647,3.113,3.2163,3.2619,3.2855,3.4005,3.4397,3.4397,3.4397,3.4397,3.4397,3.4397,3.4397,3.4397,3.4397,3.4397,3.4397,3.4397,3.4397,3.4397,3.4397,3.4397,3.4397,3.4397,3.4397,3.4397,3.4397,3.6096,3.7424,3.6972,3.8308,3.9388,3.9388,3.9388,3.9388,3.9388,3.9388,3.9388,3.9388,3.9388,3.9388,3.9388,3.9388,3.9388,3.9388,3.7994,3.6848,3.6227,3.432,3.3092,3.2685,3.5084,3.6503,3.688,3.8173,3.8995,3.9388,3.9388,3.9388,0.0,0.0,0.0,0.0,0.0,1.7227,0.0,0.0,0.0,0.0,0.0,0.0,0.0,0.0,0.0,0.0,0.0,0.0,0.0,0.0,0.0,0.0,0.0,0.0,0.0,2.5362,2.5252,2.5146,2.4665,2.4463,2.4657,2.5159,2.5448,2.5448,2.6034,2.6336,2.6336,2.6436,2.6499,2.6499,2.6499,2.6499,2.6499,2.6499,2.6738,2.719,2.7821,2.8458,2.9098,2.9973,3.0495,3.066,3.0394,3.0571,3.113,3.2084,3.2579,3.2855,3.4005,3.4397,3.4397,3.4397,3.4397,3.4397,3.4397,3.4397,3.4397,3.4397,3.4397,3.4397,3.4397,3.4397,3.4397,3.4397,3.4397,3.4397,3.4397,3.4397,3.4397,3.4397,3.5749,3.688,3.688,3.8308,3.9388,3.9388,3.9388,3.9388,3.9388,3.9388,3.9388,3.9388,3.9388,3.9388,3.9388,3.9388,3.9388,3.9388,3.8486,3.7734,3.723,3.5077,3.3519,3.2725,3.534,3.6806,3.688,3.7933,3.8775,3.9388,3.9388,3.9388,0.0,0.0,0.0,0.0,1.8819,0.0,0.0,0.0,0.0,0.0,0.0,0.0,0.0,0.0,0.0,0.0,0.0,0.0,0.0,0.0,0.0,0.0,0.0,0.0,0.0,2.3796,2.3797,2.4548,2.3543,2.328,2.4042,2.4607,2.4876,2.4876,2.5423,2.5686,2.5686,2.6235,2.6499,2.6499,2.6499,2.6499,2.6499,2.6499,2.6524,2.665,2.7657,2.8244,2.8589,2.9669,3.0343,3.0698,3.0849,3.0949,3.113,3.2228,3.2698,3.2855,3.4005,3.4397,3.4397,3.4397,3.4397,3.4397,3.4397,3.4397,3.4397,3.4397,3.4397,3.4397,3.4397,3.4397,3.4397,3.4397,3.4397,3.4397,3.4397,3.4397,3.4397,3.4397,3.5749,3.688,3.688,3.8308,3.9388,3.9388,3.9388,3.9388,3.9388,3.9388,3.9388,3.9388,3.9388,3.9388,3.9388,3.9388,3.9388,3.9388,3.7919,3.7125,3.7266,3.5115,3.3519,3.2725,3.5008,3.6413,3.688,3.8472,3.9301,3.9388,3.9388,3.9388,0.0,0.0,0.0,0.0,0.0,0.0,1.7087,0.0,1.6835,0.0,0.0,0.0,0.0,0.0,0.0,0.0,0.0,0.0,0.0,0.0,0.0,0.0,0.0,0.0,0.0,0.0,0.0,0.0,2.2369,2.2286,2.2975,2.3853,2.4343,2.4343,2.5159,2.5598,2.5598,2.6197,2.6499,2.6499,2.6499,2.6499,2.6499,2.6499,2.6499,2.6549,2.762,2.8206,2.85,2.9757,3.0457,3.0736,3.0911,3.0986,3.113,3.2163,3.2619,3.2855,3.4005,3.4397,3.4397,3.4397,3.4397,3.4397,3.4397,3.4397,3.4397,3.4397,3.4397,3.4397,3.4397,3.4397,3.4397,3.4397,3.4397,3.4397,3.4397,3.4397,3.4397,3.4397,3.5749,3.688,3.688,3.8308,3.9388,3.9388,3.9388,3.9388,3.9388,3.9388,3.9388,3.9388,3.9388,3.9388,3.9388,3.9388,3.9388,3.9388,3.8377,3.6966,3.5231,3.5637,3.4892,3.2725,3.5346,3.6627,3.6427,3.7962,3.8922,3.9388,3.9388,3.9388,1.9989,0.0,0.0,0.0,0.0,0.0,0.0,0.0,0.0,0.0,0.0,0.0,0.0,0.0,0.0,0.0,0.0,0.0,0.0,0.0,0.0,0.0,0.0,0.0,0.0,0.0,0.0,0.0,0.0,2.1282,2.2259,2.3088,2.3602,2.3753,2.482,2.5385,2.5385,2.6135,2.6499,2.6499,2.6499,2.6499,2.6499,2.6499,2.6499,2.6549,2.7691,2.8315,2.8573,2.9945,3.0609,3.0811,3.0949,3.0986,3.113,3.2124,3.2579,3.2855,3.4005,3.4397,3.4397,3.4397,3.4397,3.4397,3.4397,3.4397,3.4397,3.4397,3.4397,3.4397,3.4397,3.4397,3.4397,3.4397,3.4397,3.4397,3.4397,3.4397,3.4397,3.4397,3.5749,3.688,3.688,3.8308,3.9388,3.9388,3.9388,3.9388,3.9388,3.9388,3.9388,3.9388,3.9388,3.9388,3.9388,3.9388,3.9177,3.8745,3.868,3.7228,3.4046,3.6153,3.6115,3.3404,3.5741,3.6771,3.6386,3.7657,3.8671,3.9388,3.9388,3.9388,0.0,0.0,0.0,1.9115,0.0,0.0,0.0,0.0,1.8003,0.0,0.0,0.0,0.0,0.0,0.0,0.0,0.0,0.0,0.0,0.0,0.0,0.0,0.0,0.0,0.0,0.0,0.0,0.0,0.0,0.0,2.2196,2.2347,2.2581,2.3108,2.4224,2.4813,2.4813,2.5946,2.6499,2.6499,2.6499,2.6499,2.6499,2.6499,2.6499,2.6549,2.7822,2.8497,2.8779,3.0157,3.0811,3.0986,3.0986,3.0986,3.113,3.2267,3.2698,3.2855,3.4005,3.4397,3.4397,3.4397,3.4397,3.4397,3.4397,3.4397,3.4397,3.4397,3.4397,3.4397,3.4397,3.4397,3.4397,3.4397,3.4397,3.4397,3.4397,3.4397,3.4397,3.4397,3.5749,3.688,3.688,3.8308,3.9388,3.9388,3.9388,3.9388,3.9388,3.9388,3.9388,3.9388,3.9388,3.9388,3.9388,3.9388,3.8708,3.7074,3.8479,3.798,3.4879,3.6395,3.659,3.5036,3.5877,3.6591,3.7164,3.8003,3.873,3.9388,3.9388,3.9388,0.0,0.0,2.224,2.0156,0.0,0.0,0.0,0.0,0.0,0.0,0.0,0.0,0.0,0.0,0.0,0.0,0.0,0.0,0.0,0.0,0.0,0.0,0.0,0.0,0.0,0.0,0.0,0.0,1.9573,0.0,0.0,2.192,2.2397,2.2556,2.401,2.4788,2.4788,2.5946,2.6499,2.6499,2.6499,2.6499,2.6499,2.6499,2.6555,2.6687,2.7893,2.8592,2.8983,3.0182,3.0811,3.0986,3.0986,3.0986,3.1117,3.2267,3.2685,3.2855,3.4005,3.4397,3.4397,3.4397,3.4397,3.4397,3.4397,3.4397,3.4397,3.4397,3.4397,3.4397,3.4397,3.4397,3.4397,3.4397,3.4397,3.4397,3.4397,3.4397,3.4397,3.4397,3.5749,3.688,3.688,3.8308,3.9388,3.9388,3.9388,3.9388,3.9388,3.9388,3.9388,3.9388,3.9388,3.9388,3.9388,3.9388,3.8922,3.782,3.8797,3.8406,3.6289,3.7367,3.7317,3.5789,3.6618,3.7111,3.7274,3.8023,3.8736,3.9388,3.9388,3.9388,2.2313,2.2654,0.0,2.1081,2.0746,0.0,1.8708,0.0,0.0,0.0,0.0,0.0,0.0,0.0,0.0,0.0,0.0,0.0,0.0,0.0,0.0,0.0,0.0,0.0,0.0,0.0,1.815,1.8925,1.8766,0.0,0.0,0.0,2.2108,2.2297,2.3941,2.4788,2.4788,2.5946,2.6499,2.6499,2.6499,2.6499,2.6499,2.6499,2.6555,2.6777,2.7977,2.8677,2.909,3.0331,3.0874,3.0986,3.0986,3.0986,3.1117,3.2267,3.2947,3.3404,3.4149,3.4397,3.4397,3.4397,3.4397,3.4397,3.4397,3.4397,3.4397,3.4397,3.4397,3.4397,3.4397,3.4397,3.4397,3.4397,3.4397,3.4397,3.4397,3.4397,3.4481,3.4799,3.5963,3.7011,3.7295,3.8523,3.9388,3.9388,3.9388,3.9388,3.9388,3.9388,3.9388,3.9388,3.9388,3.9388,3.9388,3.9388,3.9083,3.824,3.8958,3.8797,3.7424,3.826,3.8189,3.6944,3.7467,3.763,3.7349,3.8046,3.8616,3.9065,3.9305,3.9388]}]]